Darstellungsparameter: Aktuell verwendete Einstellungen:
Skalierung der Graphiken ... ?
xyx+y,   Skalierungsfaktor:      Skalierung: Modus: x, Faktor: 1
Darstellungszeitraum ... ?
Vom - - bis: - -   Zeitraum: 18.02.2019 - 17.08.2019
Min/Max/Avg-Anzeige ... ?
Zeige MMA aktuell
Zeige MMA Monat
Zeige MMA alles
Zeige --A aktuell
Zeige --A Monat
Zeige --A alles
Keine MMA-Anzeige
MMA:
Keine MMA-Graphiken
MMA-Basis: 18.02.2019 - 17.08.2019
Quicknavigation für Darstellung... ?
Tage:      1T, 2T, 3T, 5T -1T -2T -3T -5T +1T +2T +3T +5T
Wochen: 1W, 2W, 3W -1W -2W -3W +1W +2W +3W
Monate: 1M, 3M, 6M -1M -3M -6M +1M +3M +6M
Jahre:    1J, 3J, 5J, 10J -1J -3J -5J -10J +1J +3J +5J +10J
Nutze für die Darstellung ... ?
Originaldaten oder Mittelwerte auf ...
Stundenbasis Tagesbasis Wochenbasis
Monatsbasis Jahresbasis      Datenbasis: Original-Daten
Darstellen als:
Statistik (Auto) Statistik J:M      Darstellung:
Zur Graphik,    zurück zur Übersicht aller Sensoren.
 
Tabellarische Datenbersicht: ?
 
Sensor: Nr:Datum:Temp:Feuchte:Taupunkt:
Aussen-T/F 1 18-02-2019 00:00:00 1.7 C 92 % 0.54 C
2 18-02-2019 00:05:00 1.7 C 92 % 0.54 C
3 18-02-2019 00:10:00 1.8 C 92 % 0.64 C
4 18-02-2019 00:15:00 1.9 C 92 % 0.74 C
5 18-02-2019 00:20:00 1.7 C 91 % 0.39 C
6 18-02-2019 00:25:00 1.5 C 91 % 0.19 C
7 18-02-2019 00:30:00 1.4 C 91 % 0.1 C
8 18-02-2019 00:35:00 1.2 C 91 % -0.1 C
9 18-02-2019 00:40:00 1.3 C 92 % 0.15 C
10 18-02-2019 00:45:00 1.2 C 92 % 0.05 C
11 18-02-2019 00:50:00 1.1 C 92 % -0.05 C
12 18-02-2019 00:55:00 1.1 C 92 % -0.05 C
13 18-02-2019 01:00:00 0.9 C 92 % -0.25 C
14 18-02-2019 01:05:00 0.9 C 92 % -0.25 C
15 18-02-2019 01:10:00 0.9 C 93 % -0.1 C
16 18-02-2019 01:15:00 0.7 C 92 % -0.45 C
17 18-02-2019 01:20:00 0.5 C 92 % -0.65 C
18 18-02-2019 01:25:00 0.4 C 92 % -0.74 C
19 18-02-2019 01:30:00 0.4 C 93 % -0.6 C
20 18-02-2019 01:35:00 0.3 C 93 % -0.7 C
21 18-02-2019 01:40:00 0.3 C 93 % -0.7 C
22 18-02-2019 01:45:00 0.3 C 93 % -0.7 C
23 18-02-2019 01:50:00 0.2 C 93 % -0.79 C
24 18-02-2019 01:55:00 0.1 C 93 % -0.89 C
25 18-02-2019 02:00:00 0.1 C 93 % -0.89 C
Sensor: Nr:Datum:Temp:Feuchte:Taupunkt:
Aussen-T/F 26 18-02-2019 02:05:00 0 C 93 % -0.99 C
27 18-02-2019 02:10:00 0 C 93 % -0.99 C
28 18-02-2019 02:15:00 0.1 C 94 % -0.75 C
29 18-02-2019 02:20:00 0.1 C 94 % -0.75 C
30 18-02-2019 02:25:00 0.1 C 94 % -0.75 C
31 18-02-2019 02:30:00 0.1 C 94 % -0.75 C
32 18-02-2019 02:35:00 0.2 C 94 % -0.65 C
33 18-02-2019 02:40:00 0.2 C 94 % -0.65 C
34 18-02-2019 02:45:00 0.2 C 94 % -0.65 C
35 18-02-2019 02:50:00 0.1 C 94 % -0.75 C
36 18-02-2019 02:55:00 -0.2 C 94 % -1.05 C
37 18-02-2019 03:00:00 -0.3 C 94 % -1.15 C
38 18-02-2019 03:05:00 -0.3 C 94 % -1.15 C
39 18-02-2019 03:10:00 -0.3 C 94 % -1.15 C
40 18-02-2019 03:15:00 -0.3 C 94 % -1.15 C
41 18-02-2019 03:20:00 -0.4 C 94 % -1.25 C
42 18-02-2019 03:25:00 -0.4 C 94 % -1.25 C
43 18-02-2019 03:30:00 -0.4 C 94 % -1.25 C
44 18-02-2019 03:35:00 -0.4 C 94 % -1.25 C
45 18-02-2019 03:40:00 -0.4 C 95 % -1.1 C
46 18-02-2019 03:45:00 -0.5 C 94 % -1.34 C
47 18-02-2019 03:50:00 -0.6 C 94 % -1.44 C
48 18-02-2019 03:55:00 -0.7 C 94 % -1.54 C
49 18-02-2019 04:00:00 -0.7 C 94 % -1.54 C
50 18-02-2019 04:05:00 -0.8 C 94 % -1.64 C
Sensor: Nr:Datum:Temp:Feuchte:Taupunkt:
Aussen-T/F 51 18-02-2019 04:10:00 -0.8 C 94 % -1.64 C
52 18-02-2019 04:15:00 -0.8 C 94 % -1.64 C
53 18-02-2019 04:20:00 -0.9 C 94 % -1.74 C
54 18-02-2019 04:25:00 -0.8 C 95 % -1.5 C
55 18-02-2019 04:30:00 -0.7 C 95 % -1.4 C
56 18-02-2019 04:35:00 -0.7 C 95 % -1.4 C
57 18-02-2019 04:40:00 -0.7 C 95 % -1.4 C
58 18-02-2019 04:45:00 -0.7 C 95 % -1.4 C
59 18-02-2019 04:50:00 -0.8 C 95 % -1.5 C
60 18-02-2019 04:55:00 -0.9 C 95 % -1.6 C
61 18-02-2019 05:00:00 -1 C 95 % -1.7 C
62 18-02-2019 05:05:00 -1.1 C 95 % -1.8 C
63 18-02-2019 05:10:00 -1.1 C 95 % -1.8 C
64 18-02-2019 05:15:00 -1.2 C 95 % -1.9 C
65 18-02-2019 05:20:00 -1.2 C 95 % -1.9 C
66 18-02-2019 05:25:00 -1.3 C 95 % -2 C
67 18-02-2019 05:30:00 -1.2 C 95 % -1.9 C
68 18-02-2019 05:35:00 -1.2 C 95 % -1.9 C
69 18-02-2019 05:40:00 -1.2 C 95 % -1.9 C
70 18-02-2019 05:45:00 -1.3 C 95 % -2 C
71 18-02-2019 05:50:00 -1.3 C 95 % -2 C
72 18-02-2019 05:55:00 -1.5 C 95 % -2.19 C
73 18-02-2019 06:00:00 -1.5 C 95 % -2.19 C
74 18-02-2019 06:05:00 -1.4 C 95 % -2.1 C
75 18-02-2019 06:10:00 -1.4 C 95 % -2.1 C
Sensor: Nr:Datum:Temp:Feuchte:Taupunkt:
Aussen-T/F 76 18-02-2019 06:15:00 -1.4 C 95 % -2.1 C
77 18-02-2019 06:20:00 -1.6 C 95 % -2.29 C
78 18-02-2019 06:25:00 -1.4 C 95 % -2.1 C
79 18-02-2019 06:30:00 -1.4 C 95 % -2.1 C
80 18-02-2019 06:35:00 -1.4 C 95 % -2.1 C
81 18-02-2019 06:40:00 -1.6 C 95 % -2.29 C
82 18-02-2019 06:45:00 -1.7 C 95 % -2.39 C
83 18-02-2019 06:50:00 -1.6 C 95 % -2.29 C
84 18-02-2019 06:55:00 -1.3 C 95 % -2 C
85 18-02-2019 07:00:00 -1.3 C 96 % -1.85 C
86 18-02-2019 07:05:00 -1.3 C 95 % -2 C
87 18-02-2019 07:10:00 -1.5 C 95 % -2.19 C
88 18-02-2019 07:15:00 -1.7 C 95 % -2.39 C
89 18-02-2019 07:20:00 -1.7 C 95 % -2.39 C
90 18-02-2019 07:25:00 -1.6 C 95 % -2.29 C
91 18-02-2019 07:30:00 -1.6 C 95 % -2.29 C
92 18-02-2019 07:35:00 -1.7 C 95 % -2.39 C
93 18-02-2019 07:40:00 -1.8 C 95 % -2.49 C
94 18-02-2019 07:45:00 -1.8 C 95 % -2.49 C
95 18-02-2019 07:50:00 -1.9 C 95 % -2.59 C
96 18-02-2019 07:55:00 -1.9 C 95 % -2.59 C
97 18-02-2019 08:00:00 -1.9 C 95 % -2.59 C
98 18-02-2019 08:05:00 -1.9 C 95 % -2.59 C
99 18-02-2019 08:10:00 -1.9 C 95 % -2.59 C
100 18-02-2019 08:15:00 -1.9 C 95 % -2.59 C
Sensor: Nr:Datum:Temp:Feuchte:Taupunkt:
Aussen-T/F 101 18-02-2019 08:20:00 -1.9 C 95 % -2.59 C
102 18-02-2019 08:25:00 -1.8 C 95 % -2.49 C
103 18-02-2019 08:30:00 -1.8 C 95 % -2.49 C
104 18-02-2019 08:35:00 -1.7 C 96 % -2.25 C
105 18-02-2019 08:40:00 -1.4 C 96 % -1.95 C
106 18-02-2019 08:45:00 -1.2 C 96 % -1.75 C
107 18-02-2019 08:50:00 -1.1 C 96 % -1.66 C
108 18-02-2019 08:55:00 -1.1 C 96 % -1.66 C
109 18-02-2019 09:00:00 -0.9 C 96 % -1.46 C
110 18-02-2019 09:05:00 -0.6 C 96 % -1.16 C
111 18-02-2019 09:10:00 -0.5 C 96 % -1.06 C
112 18-02-2019 09:15:00 -0.6 C 96 % -1.16 C
113 18-02-2019 09:20:00 -0.6 C 96 % -1.16 C
114 18-02-2019 09:25:00 -0.5 C 96 % -1.06 C
115 18-02-2019 09:30:00 -0.4 C 96 % -0.96 C
116 18-02-2019 09:35:00 -0.4 C 96 % -0.96 C
117 18-02-2019 09:40:00 -0.5 C 96 % -1.06 C
118 18-02-2019 09:45:00 -0.6 C 96 % -1.16 C
119 18-02-2019 09:50:00 -0.6 C 96 % -1.16 C
120 18-02-2019 09:55:00 -0.6 C 96 % -1.16 C
121 18-02-2019 10:00:00 -0.5 C 96 % -1.06 C
122 18-02-2019 10:05:00 -0.5 C 96 % -1.06 C
123 18-02-2019 10:10:00 -0.4 C 96 % -0.96 C
124 18-02-2019 10:15:00 -0.3 C 96 % -0.86 C
125 18-02-2019 10:20:00 -0.1 C 96 % -0.66 C
Sensor: Nr:Datum:Temp:Feuchte:Taupunkt:
Aussen-T/F 126 18-02-2019 10:25:00 0.1 C 96 % -0.46 C
127 18-02-2019 10:30:00 0.2 C 96 % -0.36 C
128 18-02-2019 10:35:00 0.3 C 96 % -0.26 C
129 18-02-2019 10:40:00 0.5 C 96 % -0.06 C
130 18-02-2019 10:45:00 0.7 C 96 % 0.14 C
131 18-02-2019 10:50:00 1 C 97 % 0.58 C
132 18-02-2019 10:55:00 1.3 C 97 % 0.88 C
133 18-02-2019 11:00:00 1.6 C 97 % 1.18 C
134 18-02-2019 11:05:00 1.7 C 97 % 1.28 C
135 18-02-2019 11:10:00 1.9 C 97 % 1.48 C
136 18-02-2019 11:15:00 2.2 C 97 % 1.77 C
137 18-02-2019 11:20:00 2.4 C 97 % 1.97 C
138 18-02-2019 11:25:00 2.7 C 97 % 2.27 C
139 18-02-2019 11:30:00 3 C 97 % 2.57 C
140 18-02-2019 11:35:00 3.3 C 97 % 2.87 C
141 18-02-2019 11:40:00 3.6 C 97 % 3.17 C
142 18-02-2019 11:45:00 3.7 C 96 % 3.12 C
143 18-02-2019 11:50:00 3.9 C 96 % 3.32 C
144 18-02-2019 11:55:00 4.1 C 95 % 3.37 C
145 18-02-2019 12:00:00 4.2 C 95 % 3.47 C
146 18-02-2019 12:05:00 4.4 C 95 % 3.67 C
147 18-02-2019 12:10:00 4.7 C 95 % 3.97 C
148 18-02-2019 12:15:00 4.9 C 95 % 4.17 C
149 18-02-2019 12:20:00 5.3 C 95 % 4.57 C
150 18-02-2019 12:25:00 5.6 C 95 % 4.86 C
Sensor: Nr:Datum:Temp:Feuchte:Taupunkt:
Aussen-T/F 151 18-02-2019 12:30:00 6.1 C 95 % 5.36 C
152 18-02-2019 12:35:00 6.6 C 93 % 5.55 C
153 18-02-2019 12:40:00 7.1 C 92 % 5.89 C
154 18-02-2019 12:45:00 7.5 C 90 % 5.97 C
155 18-02-2019 12:50:00 7.9 C 88 % 6.04 C
156 18-02-2019 12:55:00 8.2 C 87 % 6.17 C
157 18-02-2019 13:00:00 8.3 C 86 % 6.1 C
158 18-02-2019 13:05:00 8.4 C 85 % 6.03 C
159 18-02-2019 13:10:00 8.6 C 84 % 6.05 C
160 18-02-2019 13:15:00 8.8 C 83 % 6.08 C
161 18-02-2019 13:20:00 9 C 83 % 6.27 C
162 18-02-2019 13:25:00 9.3 C 81 % 6.21 C
163 18-02-2019 13:30:00 9.7 C 81 % 6.6 C
164 18-02-2019 13:35:00 10 C 79 % 6.53 C
165 18-02-2019 13:40:00 10.3 C 78 % 6.64 C
166 18-02-2019 13:45:00 10.6 C 76 % 6.55 C
167 18-02-2019 13:50:00 10.9 C 75 % 6.65 C
168 18-02-2019 13:55:00 11.2 C 74 % 6.74 C
169 18-02-2019 14:00:00 11.5 C 73 % 6.84 C
170 18-02-2019 14:05:00 11.6 C 71 % 6.53 C
171 18-02-2019 14:10:00 11.7 C 71 % 6.62 C
172 18-02-2019 14:15:00 11.7 C 71 % 6.62 C
173 18-02-2019 14:20:00 11.6 C 71 % 6.53 C
174 18-02-2019 14:25:00 11.5 C 71 % 6.43 C
175 18-02-2019 14:30:00 11.3 C 72 % 6.44 C
Sensor: Nr:Datum:Temp:Feuchte:Taupunkt:
Aussen-T/F 176 18-02-2019 14:35:00 11.2 C 72 % 6.35 C
177 18-02-2019 14:40:00 11 C 73 % 6.35 C
178 18-02-2019 14:45:00 10.9 C 73 % 6.26 C
179 18-02-2019 14:50:00 11 C 73 % 6.35 C
180 18-02-2019 14:55:00 11.1 C 73 % 6.45 C
181 18-02-2019 15:00:00 11.1 C 73 % 6.45 C
182 18-02-2019 15:05:00 11.2 C 72 % 6.35 C
183 18-02-2019 15:10:00 11.4 C 71 % 6.34 C
184 18-02-2019 15:15:00 11.6 C 71 % 6.53 C
185 18-02-2019 15:20:00 11.7 C 69 % 6.21 C
186 18-02-2019 15:25:00 11.9 C 67 % 5.98 C
187 18-02-2019 15:30:00 12.2 C 65 % 5.82 C
188 18-02-2019 15:35:00 12.4 C 65 % 6.01 C
189 18-02-2019 15:40:00 12.6 C 66 % 6.42 C
190 18-02-2019 15:45:00 12.7 C 60 % 5.14 C
191 18-02-2019 15:50:00 12.9 C 62 % 5.8 C
192 18-02-2019 15:55:00 13 C 62 % 5.9 C
193 18-02-2019 16:00:00 12.9 C 62 % 5.8 C
194 18-02-2019 16:05:00 12.8 C 62 % 5.71 C
195 18-02-2019 16:10:00 12.6 C 61 % 5.29 C
196 18-02-2019 16:15:00 12.4 C 63 % 5.56 C
197 18-02-2019 16:20:00 12.2 C 62 % 5.14 C
198 18-02-2019 16:25:00 11.9 C 63 % 5.09 C
199 18-02-2019 16:30:00 11.7 C 65 % 5.35 C
200 18-02-2019 16:35:00 11.5 C 66 % 5.38 C
Sensor: Nr:Datum:Temp:Feuchte:Taupunkt:
Aussen-T/F 201 18-02-2019 16:40:00 11.3 C 67 % 5.4 C
202 18-02-2019 16:45:00 11.1 C 68 % 5.43 C
203 18-02-2019 16:50:00 10.9 C 68 % 5.23 C
204 18-02-2019 16:55:00 10.8 C 68 % 5.14 C
205 18-02-2019 17:00:00 10.8 C 68 % 5.14 C
206 18-02-2019 17:05:00 10.8 C 68 % 5.14 C
207 18-02-2019 17:10:00 10.8 C 69 % 5.35 C
208 18-02-2019 17:15:00 10.9 C 68 % 5.23 C
209 18-02-2019 17:20:00 10.9 C 68 % 5.23 C
210 18-02-2019 17:25:00 10.8 C 69 % 5.35 C
211 18-02-2019 17:30:00 10.6 C 70 % 5.36 C
212 18-02-2019 17:35:00 10.3 C 70 % 5.08 C
213 18-02-2019 17:40:00 10.1 C 70 % 4.89 C
214 18-02-2019 17:45:00 9.9 C 71 % 4.9 C
215 18-02-2019 17:50:00 9.7 C 72 % 4.9 C
216 18-02-2019 17:55:00 9.5 C 72 % 4.71 C
217 18-02-2019 18:00:00 9.3 C 73 % 4.72 C
218 18-02-2019 18:05:00 9.1 C 73 % 4.52 C
219 18-02-2019 18:10:00 8.9 C 73 % 4.33 C
220 18-02-2019 18:15:00 8.7 C 74 % 4.33 C
221 18-02-2019 18:20:00 8.5 C 74 % 4.14 C
222 18-02-2019 18:25:00 8.3 C 75 % 4.14 C
223 18-02-2019 18:30:00 8.3 C 76 % 4.33 C
224 18-02-2019 18:35:00 8.2 C 76 % 4.23 C
225 18-02-2019 18:40:00 8.1 C 76 % 4.13 C
Sensor: Nr:Datum:Temp:Feuchte:Taupunkt:
Aussen-T/F 226 18-02-2019 18:45:00 8 C 76 % 4.04 C
227 18-02-2019 18:50:00 7.9 C 76 % 3.94 C
228 18-02-2019 18:55:00 7.7 C 75 % 3.56 C
229 18-02-2019 19:00:00 7.5 C 76 % 3.55 C
230 18-02-2019 19:05:00 7.3 C 78 % 3.73 C
231 18-02-2019 19:10:00 7.2 C 79 % 3.81 C
232 18-02-2019 19:15:00 7.1 C 79 % 3.71 C
233 18-02-2019 19:20:00 6.9 C 80 % 3.7 C
234 18-02-2019 19:25:00 6.8 C 81 % 3.77 C
235 18-02-2019 19:30:00 6.8 C 81 % 3.77 C
236 18-02-2019 19:35:00 6.8 C 82 % 3.95 C
237 18-02-2019 19:40:00 6.9 C 81 % 3.87 C
238 18-02-2019 19:45:00 6.9 C 81 % 3.87 C
239 18-02-2019 19:50:00 6.9 C 81 % 3.87 C
240 18-02-2019 19:55:00 6.9 C 81 % 3.87 C
241 18-02-2019 20:00:00 6.8 C 80 % 3.6 C
242 18-02-2019 20:05:00 6.7 C 79 % 3.32 C
243 18-02-2019 20:10:00 6.6 C 79 % 3.23 C
244 18-02-2019 20:15:00 6.4 C 78 % 2.85 C
245 18-02-2019 20:20:00 6.1 C 79 % 2.74 C
246 18-02-2019 20:25:00 5.8 C 81 % 2.8 C
247 18-02-2019 20:30:00 5.5 C 81 % 2.51 C
248 18-02-2019 20:35:00 5.2 C 82 % 2.39 C
249 18-02-2019 20:40:00 4.9 C 82 % 2.09 C
250 18-02-2019 20:45:00 4.7 C 84 % 2.23 C
Sensor: Nr:Datum:Temp:Feuchte:Taupunkt:
Aussen-T/F 251 18-02-2019 20:50:00 4.6 C 85 % 2.3 C
252 18-02-2019 20:55:00 4.6 C 86 % 2.47 C
253 18-02-2019 21:00:00 4.6 C 86 % 2.47 C
254 18-02-2019 21:05:00 4.6 C 86 % 2.47 C
255 18-02-2019 21:10:00 4.4 C 86 % 2.27 C
256 18-02-2019 21:15:00 4.3 C 86 % 2.17 C
257 18-02-2019 21:20:00 4.3 C 86 % 2.17 C
258 18-02-2019 21:25:00 4.2 C 86 % 2.07 C
259 18-02-2019 21:30:00 4.2 C 86 % 2.07 C
260 18-02-2019 21:35:00 4 C 86 % 1.88 C
261 18-02-2019 21:40:00 3.9 C 86 % 1.78 C
262 18-02-2019 21:45:00 3.8 C 86 % 1.68 C
263 18-02-2019 21:50:00 3.6 C 86 % 1.48 C
264 18-02-2019 21:55:00 3.3 C 86 % 1.19 C
265 18-02-2019 22:00:00 3.2 C 87 % 1.25 C
266 18-02-2019 22:05:00 3 C 87 % 1.05 C
267 18-02-2019 22:10:00 3 C 88 % 1.21 C
268 18-02-2019 22:15:00 2.9 C 89 % 1.27 C
269 18-02-2019 22:20:00 2.9 C 89 % 1.27 C
270 18-02-2019 22:25:00 2.8 C 89 % 1.17 C
271 18-02-2019 22:30:00 2.7 C 89 % 1.07 C
272 18-02-2019 22:35:00 2.7 C 89 % 1.07 C
273 18-02-2019 22:40:00 2.7 C 89 % 1.07 C
274 18-02-2019 22:45:00 2.5 C 89 % 0.88 C
275 18-02-2019 22:50:00 2.4 C 90 % 0.93 C
Sensor: Nr:Datum:Temp:Feuchte:Taupunkt:
Aussen-T/F 276 18-02-2019 22:55:00 2.4 C 90 % 0.93 C
277 18-02-2019 23:00:00 2.3 C 90 % 0.83 C
278 18-02-2019 23:05:00 2.3 C 90 % 0.83 C
279 18-02-2019 23:10:00 2.2 C 91 % 0.89 C
280 18-02-2019 23:15:00 2.3 C 91 % 0.99 C
281 18-02-2019 23:20:00 2.3 C 91 % 0.99 C
282 18-02-2019 23:25:00 2.3 C 91 % 0.99 C
283 18-02-2019 23:30:00 2.2 C 91 % 0.89 C
284 18-02-2019 23:35:00 2.1 C 91 % 0.79 C
285 18-02-2019 23:40:00 2 C 91 % 0.69 C
286 18-02-2019 23:45:00 1.9 C 91 % 0.59 C
287 18-02-2019 23:50:00 1.9 C 91 % 0.59 C
288 18-02-2019 23:55:00 1.8 C 91 % 0.49 C
289 19-02-2019 00:00:00 1.8 C 91 % 0.49 C
290 19-02-2019 00:05:00 1.7 C 91 % 0.39 C
291 19-02-2019 00:10:00 1.7 C 92 % 0.54 C
292 19-02-2019 00:15:00 1.7 C 92 % 0.54 C
293 19-02-2019 00:20:00 1.7 C 92 % 0.54 C
294 19-02-2019 00:25:00 1.8 C 92 % 0.64 C
295 19-02-2019 00:30:00 1.7 C 92 % 0.54 C
296 19-02-2019 00:35:00 1.7 C 92 % 0.54 C
297 19-02-2019 00:40:00 1.7 C 92 % 0.54 C
298 19-02-2019 00:45:00 1.7 C 93 % 0.69 C
299 19-02-2019 00:50:00 1.7 C 93 % 0.69 C
300 19-02-2019 00:55:00 1.8 C 93 % 0.79 C
Sensor: Nr:Datum:Temp:Feuchte:Taupunkt:
Aussen-T/F 301 19-02-2019 01:00:00 1.8 C 93 % 0.79 C
302 19-02-2019 01:05:00 1.8 C 93 % 0.79 C
303 19-02-2019 01:10:00 1.8 C 93 % 0.79 C
304 19-02-2019 01:15:00 1.9 C 93 % 0.89 C
305 19-02-2019 01:20:00 1.9 C 93 % 0.89 C
306 19-02-2019 01:25:00 1.9 C 93 % 0.89 C
307 19-02-2019 01:30:00 1.8 C 92 % 0.64 C
308 19-02-2019 01:35:00 1.8 C 92 % 0.64 C
309 19-02-2019 01:40:00 1.8 C 93 % 0.79 C
310 19-02-2019 01:45:00 1.9 C 93 % 0.89 C
311 19-02-2019 01:50:00 1.8 C 93 % 0.79 C
312 19-02-2019 01:55:00 1.8 C 93 % 0.79 C
313 19-02-2019 02:00:00 1.8 C 93 % 0.79 C
314 19-02-2019 02:05:00 1.8 C 93 % 0.79 C
315 19-02-2019 02:10:00 1.8 C 93 % 0.79 C
316 19-02-2019 02:15:00 1.9 C 94 % 1.04 C
317 19-02-2019 02:20:00 2 C 93 % 0.99 C
318 19-02-2019 02:25:00 1.9 C 93 % 0.89 C
319 19-02-2019 02:30:00 1.8 C 93 % 0.79 C
320 19-02-2019 02:35:00 1.8 C 93 % 0.79 C
321 19-02-2019 02:40:00 1.8 C 93 % 0.79 C
322 19-02-2019 02:45:00 1.8 C 93 % 0.79 C
323 19-02-2019 02:50:00 1.9 C 94 % 1.04 C
324 19-02-2019 02:55:00 1.9 C 94 % 1.04 C
325 19-02-2019 03:00:00 2 C 94 % 1.14 C
Sensor: Nr:Datum:Temp:Feuchte:Taupunkt:
Aussen-T/F 326 19-02-2019 03:05:00 2 C 94 % 1.14 C
327 19-02-2019 03:10:00 2 C 94 % 1.14 C
328 19-02-2019 03:15:00 2.1 C 94 % 1.24 C
329 19-02-2019 03:20:00 2.1 C 94 % 1.24 C
330 19-02-2019 03:25:00 2.1 C 94 % 1.24 C
331 19-02-2019 03:30:00 2.3 C 95 % 1.58 C
332 19-02-2019 03:35:00 2.4 C 95 % 1.68 C
333 19-02-2019 03:40:00 2.6 C 95 % 1.88 C
334 19-02-2019 03:45:00 2.7 C 95 % 1.98 C
335 19-02-2019 03:50:00 2.8 C 95 % 2.08 C
336 19-02-2019 03:55:00 3 C 95 % 2.28 C
337 19-02-2019 04:00:00 3.2 C 95 % 2.48 C
338 19-02-2019 04:05:00 3.3 C 95 % 2.58 C
339 19-02-2019 04:10:00 3.4 C 95 % 2.68 C
340 19-02-2019 04:15:00 3.6 C 95 % 2.88 C
341 19-02-2019 04:20:00 3.7 C 95 % 2.98 C
342 19-02-2019 04:25:00 3.8 C 95 % 3.07 C
343 19-02-2019 04:30:00 3.8 C 94 % 2.93 C
344 19-02-2019 04:35:00 3.8 C 94 % 2.93 C
345 19-02-2019 04:40:00 3.8 C 93 % 2.77 C
346 19-02-2019 04:45:00 3.9 C 93 % 2.87 C
347 19-02-2019 04:50:00 4 C 93 % 2.97 C
348 19-02-2019 04:55:00 4.1 C 92 % 2.92 C
349 19-02-2019 05:00:00 4.1 C 92 % 2.92 C
350 19-02-2019 05:05:00 3.9 C 91 % 2.57 C
Sensor: Nr:Datum:Temp:Feuchte:Taupunkt:
Aussen-T/F 351 19-02-2019 05:10:00 3.9 C 90 % 2.41 C
352 19-02-2019 05:15:00 3.9 C 91 % 2.57 C
353 19-02-2019 05:20:00 3.9 C 91 % 2.57 C
354 19-02-2019 05:25:00 3.9 C 91 % 2.57 C
355 19-02-2019 05:30:00 3.9 C 91 % 2.57 C
356 19-02-2019 05:35:00 4 C 91 % 2.67 C
357 19-02-2019 05:40:00 4.1 C 91 % 2.77 C
358 19-02-2019 05:45:00 4.2 C 91 % 2.87 C
359 19-02-2019 05:50:00 4.3 C 90 % 2.81 C
360 19-02-2019 05:55:00 4.4 C 90 % 2.91 C
361 19-02-2019 06:00:00 4.6 C 90 % 3.1 C
362 19-02-2019 06:05:00 4.7 C 89 % 3.05 C
363 19-02-2019 06:10:00 4.8 C 88 % 2.99 C
364 19-02-2019 06:15:00 4.9 C 88 % 3.08 C
365 19-02-2019 06:20:00 5.1 C 87 % 3.12 C
366 19-02-2019 06:25:00 5.1 C 87 % 3.12 C
367 19-02-2019 06:30:00 5.1 C 87 % 3.12 C
368 19-02-2019 06:35:00 5.1 C 87 % 3.12 C
369 19-02-2019 06:40:00 5.1 C 87 % 3.12 C
370 19-02-2019 06:45:00 5.1 C 87 % 3.12 C
371 19-02-2019 06:50:00 5.1 C 88 % 3.28 C
372 19-02-2019 06:55:00 5.2 C 88 % 3.38 C
373 19-02-2019 07:00:00 5.2 C 88 % 3.38 C
374 19-02-2019 07:05:00 5.2 C 89 % 3.54 C
375 19-02-2019 07:10:00 5.2 C 89 % 3.54 C
Sensor: Nr:Datum:Temp:Feuchte:Taupunkt:
Aussen-T/F 376 19-02-2019 07:15:00 5.2 C 89 % 3.54 C
377 19-02-2019 07:20:00 5.2 C 89 % 3.54 C
378 19-02-2019 07:25:00 5.2 C 90 % 3.7 C
379 19-02-2019 07:30:00 5.2 C 90 % 3.7 C
380 19-02-2019 07:35:00 5.2 C 91 % 3.85 C
381 19-02-2019 07:40:00 5.2 C 91 % 3.85 C
382 19-02-2019 07:45:00 5.2 C 92 % 4.01 C
383 19-02-2019 07:50:00 5.2 C 92 % 4.01 C
384 19-02-2019 07:55:00 5.2 C 92 % 4.01 C
385 19-02-2019 08:00:00 5.2 C 92 % 4.01 C
386 19-02-2019 08:05:00 5.2 C 93 % 4.16 C
387 19-02-2019 08:10:00 5.1 C 92 % 3.91 C
388 19-02-2019 08:15:00 4.9 C 92 % 3.71 C
389 19-02-2019 08:20:00 4.9 C 93 % 3.87 C
390 19-02-2019 08:25:00 4.9 C 93 % 3.87 C
391 19-02-2019 08:30:00 4.8 C 93 % 3.77 C
392 19-02-2019 08:35:00 4.8 C 93 % 3.77 C
393 19-02-2019 08:40:00 4.8 C 94 % 3.92 C
394 19-02-2019 08:45:00 4.8 C 93 % 3.77 C
395 19-02-2019 08:50:00 4.7 C 93 % 3.67 C
396 19-02-2019 08:55:00 4.6 C 94 % 3.72 C
397 19-02-2019 09:00:00 4.7 C 94 % 3.82 C
398 19-02-2019 09:05:00 4.8 C 94 % 3.92 C
399 19-02-2019 09:10:00 4.9 C 95 % 4.17 C
400 19-02-2019 09:15:00 5 C 95 % 4.27 C
Sensor: Nr:Datum:Temp:Feuchte:Taupunkt:
Aussen-T/F 401 19-02-2019 09:20:00 5.1 C 95 % 4.37 C
402 19-02-2019 09:25:00 5.1 C 95 % 4.37 C
403 19-02-2019 09:30:00 5.2 C 95 % 4.47 C
404 19-02-2019 09:35:00 5.3 C 95 % 4.57 C
405 19-02-2019 09:40:00 5.5 C 95 % 4.76 C
406 19-02-2019 09:45:00 5.7 C 95 % 4.96 C
407 19-02-2019 09:50:00 5.8 C 95 % 5.06 C
408 19-02-2019 09:55:00 5.9 C 95 % 5.16 C
409 19-02-2019 10:00:00 5.9 C 95 % 5.16 C
410 19-02-2019 10:05:00 6.1 C 95 % 5.36 C
411 19-02-2019 10:10:00 6.2 C 95 % 5.46 C
412 19-02-2019 10:15:00 6.2 C 95 % 5.46 C
413 19-02-2019 10:20:00 6.2 C 94 % 5.31 C
414 19-02-2019 10:25:00 6.3 C 94 % 5.41 C
415 19-02-2019 10:30:00 6.4 C 94 % 5.51 C
416 19-02-2019 10:35:00 6.4 C 94 % 5.51 C
417 19-02-2019 10:40:00 6.5 C 94 % 5.61 C
418 19-02-2019 10:45:00 6.6 C 94 % 5.71 C
419 19-02-2019 10:50:00 6.6 C 94 % 5.71 C
420 19-02-2019 10:55:00 6.7 C 93 % 5.65 C
421 19-02-2019 11:00:00 6.7 C 93 % 5.65 C
422 19-02-2019 11:05:00 6.8 C 93 % 5.75 C
423 19-02-2019 11:10:00 6.9 C 93 % 5.85 C
424 19-02-2019 11:15:00 7.1 C 93 % 6.05 C
425 19-02-2019 11:20:00 7.1 C 93 % 6.05 C
Sensor: Nr:Datum:Temp:Feuchte:Taupunkt:
Aussen-T/F 426 19-02-2019 11:25:00 7.2 C 93 % 6.15 C
427 19-02-2019 11:30:00 7.3 C 93 % 6.25 C
428 19-02-2019 11:35:00 7.4 C 93 % 6.34 C
429 19-02-2019 11:40:00 7.6 C 92 % 6.39 C
430 19-02-2019 11:45:00 7.6 C 92 % 6.39 C
431 19-02-2019 11:50:00 7.8 C 92 % 6.58 C
432 19-02-2019 11:55:00 7.9 C 92 % 6.68 C
433 19-02-2019 12:00:00 8.1 C 92 % 6.88 C
434 19-02-2019 12:05:00 8.2 C 91 % 6.82 C
435 19-02-2019 12:10:00 8.4 C 91 % 7.02 C
436 19-02-2019 12:15:00 8.5 C 89 % 6.79 C
437 19-02-2019 12:20:00 8.6 C 88 % 6.73 C
438 19-02-2019 12:25:00 8.7 C 88 % 6.83 C
439 19-02-2019 12:30:00 8.8 C 88 % 6.93 C
440 19-02-2019 12:35:00 8.8 C 87 % 6.76 C
441 19-02-2019 12:40:00 8.9 C 86 % 6.69 C
442 19-02-2019 12:45:00 9.1 C 85 % 6.72 C
443 19-02-2019 12:50:00 9.2 C 85 % 6.81 C
444 19-02-2019 12:55:00 9.3 C 85 % 6.91 C
445 19-02-2019 13:00:00 9.2 C 84 % 6.64 C
446 19-02-2019 13:05:00 9.2 C 83 % 6.47 C
447 19-02-2019 13:10:00 9.3 C 83 % 6.57 C
448 19-02-2019 13:15:00 9.4 C 82 % 6.49 C
449 19-02-2019 13:20:00 9.7 C 83 % 6.96 C
450 19-02-2019 13:25:00 9.8 C 81 % 6.7 C
Sensor: Nr:Datum:Temp:Feuchte:Taupunkt:
Aussen-T/F 451 19-02-2019 13:30:00 10.1 C 82 % 7.17 C
452 19-02-2019 13:35:00 10.3 C 79 % 6.82 C
453 19-02-2019 13:40:00 10.4 C 78 % 6.74 C
454 19-02-2019 13:45:00 10.5 C 76 % 6.45 C
455 19-02-2019 13:50:00 10.6 C 75 % 6.36 C
456 19-02-2019 13:55:00 10.8 C 75 % 6.55 C
457 19-02-2019 14:00:00 10.8 C 75 % 6.55 C
458 19-02-2019 14:05:00 10.7 C 75 % 6.46 C
459 19-02-2019 14:10:00 10.7 C 74 % 6.26 C
460 19-02-2019 14:15:00 10.8 C 74 % 6.36 C
461 19-02-2019 14:20:00 10.7 C 74 % 6.26 C
462 19-02-2019 14:25:00 10.7 C 74 % 6.26 C
463 19-02-2019 14:30:00 10.6 C 74 % 6.17 C
464 19-02-2019 14:35:00 10.6 C 74 % 6.17 C
465 19-02-2019 14:40:00 10.5 C 75 % 6.26 C
466 19-02-2019 14:45:00 10.5 C 76 % 6.45 C
467 19-02-2019 14:50:00 10.6 C 75 % 6.36 C
468 19-02-2019 14:55:00 10.6 C 74 % 6.17 C
469 19-02-2019 15:00:00 10.7 C 74 % 6.26 C
470 19-02-2019 15:05:00 10.7 C 75 % 6.46 C
471 19-02-2019 15:10:00 10.8 C 74 % 6.36 C
472 19-02-2019 15:15:00 10.9 C 74 % 6.45 C
473 19-02-2019 15:20:00 10.9 C 73 % 6.26 C
474 19-02-2019 15:25:00 10.9 C 72 % 6.06 C
475 19-02-2019 15:30:00 10.9 C 73 % 6.26 C
Sensor: Nr:Datum:Temp:Feuchte:Taupunkt:
Aussen-T/F 476 19-02-2019 15:35:00 11 C 72 % 6.15 C
477 19-02-2019 15:40:00 11 C 71 % 5.95 C
478 19-02-2019 15:45:00 11.1 C 71 % 6.05 C
479 19-02-2019 15:50:00 11.2 C 71 % 6.14 C
480 19-02-2019 15:55:00 11.2 C 70 % 5.94 C
481 19-02-2019 16:00:00 11.3 C 72 % 6.44 C
482 19-02-2019 16:05:00 11.2 C 73 % 6.55 C
483 19-02-2019 16:10:00 11.1 C 72 % 6.25 C
484 19-02-2019 16:15:00 10.9 C 71 % 5.86 C
485 19-02-2019 16:20:00 10.9 C 72 % 6.06 C
486 19-02-2019 16:25:00 10.9 C 72 % 6.06 C
487 19-02-2019 16:30:00 10.8 C 71 % 5.76 C
488 19-02-2019 16:35:00 10.8 C 73 % 6.16 C
489 19-02-2019 16:40:00 10.8 C 73 % 6.16 C
490 19-02-2019 16:45:00 10.7 C 72 % 5.87 C
491 19-02-2019 16:50:00 10.7 C 72 % 5.87 C
492 19-02-2019 16:55:00 10.7 C 73 % 6.07 C
493 19-02-2019 17:00:00 10.7 C 72 % 5.87 C
494 19-02-2019 17:05:00 10.4 C 72 % 5.58 C
495 19-02-2019 17:10:00 10.2 C 73 % 5.58 C
496 19-02-2019 17:15:00 10.1 C 73 % 5.49 C
497 19-02-2019 17:20:00 10.1 C 74 % 5.68 C
498 19-02-2019 17:25:00 9.9 C 74 % 5.49 C
499 19-02-2019 17:30:00 9.8 C 74 % 5.39 C
500 19-02-2019 17:35:00 9.6 C 75 % 5.39 C
Sensor: Nr:Datum:Temp:Feuchte:Taupunkt:
Aussen-T/F 501 19-02-2019 17:40:00 9.3 C 75 % 5.1 C
502 19-02-2019 17:45:00 9.1 C 76 % 5.1 C
503 19-02-2019 17:50:00 8.7 C 78 % 5.08 C
504 19-02-2019 17:55:00 8.4 C 79 % 4.98 C
505 19-02-2019 18:00:00 8.1 C 80 % 4.86 C
506 19-02-2019 18:05:00 7.8 C 81 % 4.75 C
507 19-02-2019 18:10:00 7.6 C 82 % 4.73 C
508 19-02-2019 18:15:00 7.6 C 82 % 4.73 C
509 19-02-2019 18:20:00 7.5 C 82 % 4.63 C
510 19-02-2019 18:25:00 7.4 C 83 % 4.71 C
511 19-02-2019 18:30:00 7.2 C 83 % 4.51 C
512 19-02-2019 18:35:00 7.1 C 84 % 4.58 C
513 19-02-2019 18:40:00 6.9 C 84 % 4.39 C
514 19-02-2019 18:45:00 6.8 C 85 % 4.46 C
515 19-02-2019 18:50:00 6.7 C 85 % 4.36 C
516 19-02-2019 18:55:00 6.7 C 86 % 4.53 C
517 19-02-2019 19:00:00 6.6 C 86 % 4.43 C
518 19-02-2019 19:05:00 6.6 C 86 % 4.43 C
519 19-02-2019 19:10:00 6.5 C 86 % 4.33 C
520 19-02-2019 19:15:00 6.4 C 87 % 4.4 C
521 19-02-2019 19:20:00 6.4 C 87 % 4.4 C
522 19-02-2019 19:25:00 6.3 C 87 % 4.3 C
523 19-02-2019 19:30:00 6.2 C 87 % 4.2 C
524 19-02-2019 19:35:00 6.1 C 87 % 4.1 C
525 19-02-2019 19:40:00 6.1 C 88 % 4.27 C
Sensor: Nr:Datum:Temp:Feuchte:Taupunkt:
Aussen-T/F 526 19-02-2019 19:45:00 5.9 C 88 % 4.07 C
527 19-02-2019 19:50:00 5.9 C 88 % 4.07 C
528 19-02-2019 19:55:00 5.7 C 88 % 3.87 C
529 19-02-2019 20:00:00 5.7 C 89 % 4.03 C
530 19-02-2019 20:05:00 5.7 C 89 % 4.03 C
531 19-02-2019 20:10:00 5.7 C 89 % 4.03 C
532 19-02-2019 20:15:00 5.6 C 89 % 3.93 C
533 19-02-2019 20:20:00 5.6 C 89 % 3.93 C
534 19-02-2019 20:25:00 5.4 C 89 % 3.74 C
535 19-02-2019 20:30:00 5.4 C 89 % 3.74 C
536 19-02-2019 20:35:00 5.4 C 90 % 3.89 C
537 19-02-2019 20:40:00 5.3 C 89 % 3.64 C
538 19-02-2019 20:45:00 5.2 C 89 % 3.54 C
539 19-02-2019 20:50:00 5.1 C 90 % 3.6 C
540 19-02-2019 20:55:00 5.2 C 90 % 3.7 C
541 19-02-2019 21:00:00 5.3 C 90 % 3.8 C
542 19-02-2019 21:05:00 5.3 C 90 % 3.8 C
543 19-02-2019 21:10:00 5.3 C 90 % 3.8 C
544 19-02-2019 21:15:00 5.2 C 89 % 3.54 C
545 19-02-2019 21:20:00 5.1 C 89 % 3.44 C
546 19-02-2019 21:25:00 5 C 90 % 3.5 C
547 19-02-2019 21:30:00 4.9 C 90 % 3.4 C
548 19-02-2019 21:35:00 4.8 C 90 % 3.3 C
549 19-02-2019 21:40:00 4.6 C 89 % 2.95 C
550 19-02-2019 21:45:00 4.4 C 89 % 2.75 C
Sensor: Nr:Datum:Temp:Feuchte:Taupunkt:
Aussen-T/F 551 19-02-2019 21:50:00 4.2 C 90 % 2.71 C
552 19-02-2019 21:55:00 4.1 C 90 % 2.61 C
553 19-02-2019 22:00:00 3.9 C 90 % 2.41 C
554 19-02-2019 22:05:00 3.8 C 90 % 2.31 C
555 19-02-2019 22:10:00 3.6 C 90 % 2.12 C
556 19-02-2019 22:15:00 3.5 C 91 % 2.17 C
557 19-02-2019 22:20:00 3.4 C 91 % 2.07 C
558 19-02-2019 22:25:00 3.3 C 91 % 1.98 C
559 19-02-2019 22:30:00 3.3 C 92 % 2.13 C
560 19-02-2019 22:35:00 3.3 C 92 % 2.13 C
561 19-02-2019 22:40:00 3.4 C 93 % 2.38 C
562 19-02-2019 22:45:00 3.4 C 92 % 2.23 C
563 19-02-2019 22:50:00 3.4 C 92 % 2.23 C
564 19-02-2019 22:55:00 3.3 C 92 % 2.13 C
565 19-02-2019 23:00:00 3.3 C 92 % 2.13 C
566 19-02-2019 23:05:00 3.2 C 92 % 2.03 C
567 19-02-2019 23:10:00 3.2 C 92 % 2.03 C
568 19-02-2019 23:15:00 3.1 C 93 % 2.08 C
569 19-02-2019 23:20:00 3.1 C 93 % 2.08 C
570 19-02-2019 23:25:00 3.1 C 93 % 2.08 C
571 19-02-2019 23:30:00 3.1 C 93 % 2.08 C
572 19-02-2019 23:35:00 3 C 93 % 1.98 C
573 19-02-2019 23:40:00 2.9 C 93 % 1.88 C
574 19-02-2019 23:45:00 2.9 C 93 % 1.88 C
575 19-02-2019 23:50:00 2.9 C 93 % 1.88 C
Sensor: Nr:Datum:Temp:Feuchte:Taupunkt:
Aussen-T/F 576 19-02-2019 23:55:00 2.8 C 93 % 1.78 C
577 20-02-2019 00:00:00 2.8 C 93 % 1.78 C
578 20-02-2019 00:05:00 2.8 C 93 % 1.78 C
579 20-02-2019 00:10:00 2.8 C 93 % 1.78 C
580 20-02-2019 00:15:00 2.8 C 93 % 1.78 C
581 20-02-2019 00:20:00 2.8 C 94 % 1.93 C
582 20-02-2019 00:25:00 2.8 C 94 % 1.93 C
583 20-02-2019 00:30:00 2.7 C 93 % 1.68 C
584 20-02-2019 00:35:00 2.5 C 93 % 1.49 C
585 20-02-2019 00:40:00 2.3 C 93 % 1.29 C
586 20-02-2019 00:45:00 2.3 C 93 % 1.29 C
587 20-02-2019 00:50:00 2.3 C 94 % 1.44 C
588 20-02-2019 00:55:00 2.3 C 93 % 1.29 C
589 20-02-2019 01:00:00 2.2 C 93 % 1.19 C
590 20-02-2019 01:05:00 2.2 C 93 % 1.19 C
591 20-02-2019 01:10:00 2.1 C 93 % 1.09 C
592 20-02-2019 01:15:00 2 C 93 % 0.99 C
593 20-02-2019 01:20:00 1.9 C 93 % 0.89 C
594 20-02-2019 01:25:00 1.8 C 94 % 0.94 C
595 20-02-2019 01:30:00 1.7 C 93 % 0.69 C
596 20-02-2019 01:35:00 1.6 C 93 % 0.59 C
597 20-02-2019 01:40:00 1.5 C 93 % 0.49 C
598 20-02-2019 01:45:00 1.5 C 94 % 0.64 C
599 20-02-2019 01:50:00 1.5 C 94 % 0.64 C
600 20-02-2019 01:55:00 1.4 C 94 % 0.54 C
Sensor: Nr:Datum:Temp:Feuchte:Taupunkt:
Aussen-T/F 601 20-02-2019 02:00:00 1.4 C 94 % 0.54 C
602 20-02-2019 02:05:00 1.3 C 94 % 0.44 C
603 20-02-2019 02:10:00 1.3 C 94 % 0.44 C
604 20-02-2019 02:15:00 1.2 C 94 % 0.34 C
605 20-02-2019 02:20:00 1.1 C 94 % 0.24 C
606 20-02-2019 02:25:00 1 C 94 % 0.15 C
607 20-02-2019 02:30:00 1.1 C 94 % 0.24 C
608 20-02-2019 02:35:00 1.1 C 94 % 0.24 C
609 20-02-2019 02:40:00 1.2 C 95 % 0.49 C
610 20-02-2019 02:45:00 1.3 C 95 % 0.59 C
611 20-02-2019 02:50:00 1.2 C 95 % 0.49 C
612 20-02-2019 02:55:00 1.1 C 94 % 0.24 C
613 20-02-2019 03:00:00 1.1 C 94 % 0.24 C
614 20-02-2019 03:05:00 1 C 95 % 0.29 C
615 20-02-2019 03:10:00 1 C 95 % 0.29 C
616 20-02-2019 03:15:00 1 C 95 % 0.29 C
617 20-02-2019 03:20:00 1.1 C 95 % 0.39 C
618 20-02-2019 03:25:00 1.2 C 95 % 0.49 C
619 20-02-2019 03:30:00 1.1 C 95 % 0.39 C
620 20-02-2019 03:35:00 1.1 C 95 % 0.39 C
621 20-02-2019 03:40:00 1.1 C 95 % 0.39 C
622 20-02-2019 03:45:00 1.1 C 95 % 0.39 C
623 20-02-2019 03:50:00 1.2 C 95 % 0.49 C
624 20-02-2019 03:55:00 1.2 C 95 % 0.49 C
625 20-02-2019 04:00:00 1.2 C 95 % 0.49 C
Sensor: Nr:Datum:Temp:Feuchte:Taupunkt:
Aussen-T/F 626 20-02-2019 04:05:00 1.1 C 95 % 0.39 C
627 20-02-2019 04:10:00 1.1 C 95 % 0.39 C
628 20-02-2019 04:15:00 1 C 95 % 0.29 C
629 20-02-2019 04:20:00 0.8 C 95 % 0.09 C
630 20-02-2019 04:25:00 0.7 C 95 % -0.01 C
631 20-02-2019 04:30:00 0.7 C 95 % -0.01 C
632 20-02-2019 04:35:00 0.7 C 95 % -0.01 C
633 20-02-2019 04:40:00 0.8 C 95 % 0.09 C
634 20-02-2019 04:45:00 0.8 C 95 % 0.09 C
635 20-02-2019 04:50:00 0.8 C 95 % 0.09 C
636 20-02-2019 04:55:00 0.8 C 95 % 0.09 C
637 20-02-2019 05:00:00 1 C 96 % 0.44 C
638 20-02-2019 05:05:00 1.1 C 96 % 0.54 C
639 20-02-2019 05:10:00 1.1 C 96 % 0.54 C
640 20-02-2019 05:15:00 1.1 C 95 % 0.39 C
641 20-02-2019 05:20:00 1.1 C 95 % 0.39 C
642 20-02-2019 05:25:00 1 C 95 % 0.29 C
643 20-02-2019 05:30:00 0.9 C 95 % 0.19 C
644 20-02-2019 05:35:00 0.9 C 95 % 0.19 C
645 20-02-2019 05:40:00 0.9 C 95 % 0.19 C
646 20-02-2019 05:45:00 0.9 C 96 % 0.34 C
647 20-02-2019 05:50:00 1 C 96 % 0.44 C
648 20-02-2019 05:55:00 1 C 96 % 0.44 C
649 20-02-2019 06:00:00 0.9 C 96 % 0.34 C
650 20-02-2019 06:05:00 1 C 96 % 0.44 C
Sensor: Nr:Datum:Temp:Feuchte:Taupunkt:
Aussen-T/F 651 20-02-2019 06:10:00 1.1 C 96 % 0.54 C
652 20-02-2019 06:15:00 1 C 96 % 0.44 C
653 20-02-2019 06:20:00 0.9 C 96 % 0.34 C
654 20-02-2019 06:25:00 0.9 C 96 % 0.34 C
655 20-02-2019 06:30:00 0.9 C 96 % 0.34 C
656 20-02-2019 06:35:00 0.9 C 95 % 0.19 C
657 20-02-2019 06:40:00 0.8 C 95 % 0.09 C
658 20-02-2019 06:45:00 0.7 C 95 % -0.01 C
659 20-02-2019 06:50:00 0.6 C 95 % -0.11 C
660 20-02-2019 06:55:00 0.7 C 96 % 0.14 C
661 20-02-2019 07:00:00 0.8 C 96 % 0.24 C
662 20-02-2019 07:05:00 0.8 C 96 % 0.24 C
663 20-02-2019 07:10:00 0.8 C 96 % 0.24 C
664 20-02-2019 07:15:00 0.9 C 96 % 0.34 C
665 20-02-2019 07:20:00 0.8 C 96 % 0.24 C
666 20-02-2019 07:25:00 0.7 C 96 % 0.14 C
667 20-02-2019 07:30:00 0.8 C 96 % 0.24 C
668 20-02-2019 07:35:00 0.7 C 96 % 0.14 C
669 20-02-2019 07:40:00 0.7 C 96 % 0.14 C
670 20-02-2019 07:45:00 0.6 C 96 % 0.04 C
671 20-02-2019 07:50:00 0.6 C 96 % 0.04 C
672 20-02-2019 07:55:00 0.6 C 96 % 0.04 C
673 20-02-2019 08:00:00 0.6 C 96 % 0.04 C
674 20-02-2019 08:05:00 0.7 C 96 % 0.14 C
675 20-02-2019 08:10:00 0.8 C 96 % 0.24 C
Sensor: Nr:Datum:Temp:Feuchte:Taupunkt:
Aussen-T/F 676 20-02-2019 08:15:00 0.9 C 96 % 0.34 C
677 20-02-2019 08:20:00 1.1 C 96 % 0.54 C
678 20-02-2019 08:25:00 1.2 C 96 % 0.63 C
679 20-02-2019 08:30:00 1.3 C 96 % 0.73 C
680 20-02-2019 08:35:00 1.4 C 96 % 0.83 C
681 20-02-2019 08:40:00 1.6 C 97 % 1.18 C
682 20-02-2019 08:45:00 1.8 C 97 % 1.38 C
683 20-02-2019 08:50:00 2 C 97 % 1.58 C
684 20-02-2019 08:55:00 2.3 C 97 % 1.87 C
685 20-02-2019 09:00:00 2.5 C 97 % 2.07 C
686 20-02-2019 09:05:00 2.7 C 97 % 2.27 C
687 20-02-2019 09:10:00 2.8 C 97 % 2.37 C
688 20-02-2019 09:15:00 2.8 C 97 % 2.37 C
689 20-02-2019 09:20:00 2.9 C 97 % 2.47 C
690 20-02-2019 09:25:00 3 C 97 % 2.57 C
691 20-02-2019 09:30:00 3.1 C 97 % 2.67 C
692 20-02-2019 09:35:00 3.3 C 97 % 2.87 C
693 20-02-2019 09:40:00 3.3 C 96 % 2.72 C
694 20-02-2019 09:45:00 3.4 C 96 % 2.82 C
695 20-02-2019 09:50:00 3.6 C 96 % 3.02 C
696 20-02-2019 09:55:00 3.7 C 96 % 3.12 C
697 20-02-2019 10:00:00 3.8 C 96 % 3.22 C
698 20-02-2019 10:05:00 3.8 C 96 % 3.22 C
699 20-02-2019 10:10:00 3.9 C 96 % 3.32 C
700 20-02-2019 10:15:00 4.1 C 96 % 3.52 C
Sensor: Nr:Datum:Temp:Feuchte:Taupunkt:
Aussen-T/F 701 20-02-2019 10:20:00 4.2 C 96 % 3.62 C
702 20-02-2019 10:25:00 4.3 C 96 % 3.72 C
703 20-02-2019 10:30:00 4.4 C 96 % 3.82 C
704 20-02-2019 10:35:00 4.6 C 96 % 4.02 C
705 20-02-2019 10:40:00 4.7 C 95 % 3.97 C
706 20-02-2019 10:45:00 4.9 C 95 % 4.17 C
707 20-02-2019 10:50:00 5 C 95 % 4.27 C
708 20-02-2019 10:55:00 5.2 C 95 % 4.47 C
709 20-02-2019 11:00:00 5.4 C 95 % 4.66 C
710 20-02-2019 11:05:00 5.7 C 94 % 4.81 C
711 20-02-2019 11:10:00 5.8 C 94 % 4.91 C
712 20-02-2019 11:15:00 5.9 C 93 % 4.86 C
713 20-02-2019 11:20:00 6 C 92 % 4.8 C
714 20-02-2019 11:25:00 6.1 C 92 % 4.9 C
715 20-02-2019 11:30:00 6.2 C 92 % 5 C
716 20-02-2019 11:35:00 6.3 C 91 % 4.94 C
717 20-02-2019 11:40:00 6.3 C 91 % 4.94 C
718 20-02-2019 11:45:00 6.3 C 91 % 4.94 C
719 20-02-2019 11:50:00 6.4 C 91 % 5.04 C
720 20-02-2019 11:55:00 6.5 C 90 % 4.98 C
721 20-02-2019 12:00:00 6.6 C 90 % 5.08 C
722 20-02-2019 12:05:00 6.7 C 90 % 5.18 C
723 20-02-2019 12:10:00 6.7 C 90 % 5.18 C
724 20-02-2019 12:15:00 6.9 C 90 % 5.38 C
725 20-02-2019 12:20:00 7.1 C 90 % 5.57 C
Sensor: Nr:Datum:Temp:Feuchte:Taupunkt:
Aussen-T/F 726 20-02-2019 12:25:00 7.3 C 89 % 5.61 C
727 20-02-2019 12:30:00 7.6 C 89 % 5.91 C
728 20-02-2019 12:35:00 7.7 C 87 % 5.68 C
729 20-02-2019 12:40:00 8 C 87 % 5.97 C
730 20-02-2019 12:45:00 8.2 C 86 % 6 C
731 20-02-2019 12:50:00 8.4 C 85 % 6.03 C
732 20-02-2019 12:55:00 8.7 C 83 % 5.98 C
733 20-02-2019 13:00:00 8.9 C 82 % 6 C
734 20-02-2019 13:05:00 9.1 C 82 % 6.19 C
735 20-02-2019 13:10:00 9.3 C 81 % 6.21 C
736 20-02-2019 13:15:00 9.5 C 80 % 6.23 C
737 20-02-2019 13:20:00 9.8 C 79 % 6.34 C
738 20-02-2019 13:25:00 9.9 C 78 % 6.25 C
739 20-02-2019 13:30:00 10.1 C 77 % 6.26 C
740 20-02-2019 13:35:00 10.2 C 77 % 6.35 C
741 20-02-2019 13:40:00 10.2 C 76 % 6.16 C
742 20-02-2019 13:45:00 10.3 C 76 % 6.26 C
743 20-02-2019 13:50:00 10.4 C 76 % 6.36 C
744 20-02-2019 13:55:00 10.7 C 75 % 6.46 C
745 20-02-2019 14:00:00 10.9 C 75 % 6.65 C
746 20-02-2019 14:05:00 10.9 C 74 % 6.45 C
747 20-02-2019 14:10:00 10.9 C 74 % 6.45 C
748 20-02-2019 14:15:00 10.8 C 74 % 6.36 C
749 20-02-2019 14:20:00 10.8 C 75 % 6.55 C
750 20-02-2019 14:25:00 10.8 C 75 % 6.55 C
Sensor: Nr:Datum:Temp:Feuchte:Taupunkt:
Aussen-T/F 751 20-02-2019 14:30:00 10.8 C 75 % 6.55 C
752 20-02-2019 14:35:00 10.8 C 74 % 6.36 C
753 20-02-2019 14:40:00 10.9 C 74 % 6.45 C
754 20-02-2019 14:45:00 10.9 C 74 % 6.45 C
755 20-02-2019 14:50:00 10.9 C 74 % 6.45 C
756 20-02-2019 14:55:00 10.9 C 74 % 6.45 C
757 20-02-2019 15:00:00 11 C 74 % 6.55 C
758 20-02-2019 15:05:00 11 C 74 % 6.55 C
759 20-02-2019 15:10:00 11.1 C 73 % 6.45 C
760 20-02-2019 15:15:00 11.1 C 73 % 6.45 C
761 20-02-2019 15:20:00 11.1 C 73 % 6.45 C
762 20-02-2019 15:25:00 11.1 C 73 % 6.45 C
763 20-02-2019 15:30:00 11 C 73 % 6.35 C
764 20-02-2019 15:35:00 11.1 C 73 % 6.45 C
765 20-02-2019 15:40:00 11.1 C 73 % 6.45 C
766 20-02-2019 15:45:00 11.1 C 73 % 6.45 C
767 20-02-2019 15:50:00 11.1 C 72 % 6.25 C
768 20-02-2019 15:55:00 11.2 C 72 % 6.35 C
769 20-02-2019 16:00:00 11.3 C 71 % 6.24 C
770 20-02-2019 16:05:00 11.3 C 73 % 6.64 C
771 20-02-2019 16:10:00 11.3 C 72 % 6.44 C
772 20-02-2019 16:15:00 11.3 C 72 % 6.44 C
773 20-02-2019 16:20:00 11.3 C 71 % 6.24 C
774 20-02-2019 16:25:00 11.3 C 72 % 6.44 C
775 20-02-2019 16:30:00 11.2 C 71 % 6.14 C
Sensor: Nr:Datum:Temp:Feuchte:Taupunkt:
Aussen-T/F 776 20-02-2019 16:35:00 11.3 C 71 % 6.24 C
777 20-02-2019 16:40:00 11.3 C 71 % 6.24 C
778 20-02-2019 16:45:00 11.5 C 71 % 6.43 C
779 20-02-2019 16:50:00 11.7 C 71 % 6.62 C
780 20-02-2019 16:55:00 11.7 C 69 % 6.21 C
781 20-02-2019 17:00:00 11.7 C 69 % 6.21 C
782 20-02-2019 17:05:00 11.5 C 71 % 6.43 C
783 20-02-2019 17:10:00 11.3 C 71 % 6.24 C
784 20-02-2019 17:15:00 11.1 C 72 % 6.25 C
785 20-02-2019 17:20:00 10.9 C 73 % 6.26 C
786 20-02-2019 17:25:00 10.7 C 74 % 6.26 C
787 20-02-2019 17:30:00 10.4 C 74 % 5.97 C
788 20-02-2019 17:35:00 10.1 C 75 % 5.88 C
789 20-02-2019 17:40:00 9.7 C 76 % 5.68 C
790 20-02-2019 17:45:00 9.3 C 77 % 5.48 C
791 20-02-2019 17:50:00 8.9 C 78 % 5.28 C
792 20-02-2019 17:55:00 8.6 C 79 % 5.17 C
793 20-02-2019 18:00:00 8.3 C 80 % 5.06 C
794 20-02-2019 18:05:00 8 C 81 % 4.94 C
795 20-02-2019 18:10:00 7.7 C 82 % 4.83 C
796 20-02-2019 18:15:00 7.6 C 83 % 4.9 C
797 20-02-2019 18:20:00 7.4 C 84 % 4.88 C
798 20-02-2019 18:25:00 7.2 C 84 % 4.68 C
799 20-02-2019 18:30:00 7.1 C 85 % 4.75 C
800 20-02-2019 18:35:00 7 C 85 % 4.66 C
Sensor: Nr:Datum:Temp:Feuchte:Taupunkt:
Aussen-T/F 801 20-02-2019 18:40:00 6.9 C 85 % 4.56 C
802 20-02-2019 18:45:00 6.8 C 86 % 4.63 C
803 20-02-2019 18:50:00 6.8 C 86 % 4.63 C
804 20-02-2019 18:55:00 6.7 C 86 % 4.53 C
805 20-02-2019 19:00:00 6.6 C 86 % 4.43 C
806 20-02-2019 19:05:00 6.5 C 86 % 4.33 C
807 20-02-2019 19:10:00 6.4 C 87 % 4.4 C
808 20-02-2019 19:15:00 6.3 C 87 % 4.3 C
809 20-02-2019 19:20:00 6.3 C 87 % 4.3 C
810 20-02-2019 19:25:00 6.2 C 88 % 4.36 C
811 20-02-2019 19:30:00 6.1 C 88 % 4.27 C
812 20-02-2019 19:35:00 6.1 C 88 % 4.27 C
813 20-02-2019 19:40:00 5.9 C 88 % 4.07 C
814 20-02-2019 19:45:00 5.9 C 89 % 4.23 C
815 20-02-2019 19:50:00 5.9 C 89 % 4.23 C
816 20-02-2019 19:55:00 5.8 C 89 % 4.13 C
817 20-02-2019 20:00:00 5.6 C 88 % 3.77 C
818 20-02-2019 20:05:00 5.4 C 88 % 3.58 C
819 20-02-2019 20:10:00 5.2 C 89 % 3.54 C
820 20-02-2019 20:15:00 5.2 C 89 % 3.54 C
821 20-02-2019 20:20:00 5.1 C 90 % 3.6 C
822 20-02-2019 20:25:00 4.9 C 90 % 3.4 C
823 20-02-2019 20:30:00 4.8 C 90 % 3.3 C
824 20-02-2019 20:35:00 4.6 C 90 % 3.1 C
825 20-02-2019 20:40:00 4.4 C 90 % 2.91 C
Sensor: Nr:Datum:Temp:Feuchte:Taupunkt:
Aussen-T/F 826 20-02-2019 20:45:00 4.4 C 91 % 3.06 C
827 20-02-2019 20:50:00 4.4 C 91 % 3.06 C
828 20-02-2019 20:55:00 4.4 C 91 % 3.06 C
829 20-02-2019 21:00:00 4.4 C 92 % 3.22 C
830 20-02-2019 21:05:00 4.3 C 91 % 2.96 C
831 20-02-2019 21:10:00 4.2 C 91 % 2.87 C
832 20-02-2019 21:15:00 4.1 C 91 % 2.77 C
833 20-02-2019 21:20:00 3.8 C 90 % 2.31 C
834 20-02-2019 21:25:00 3.7 C 91 % 2.37 C
835 20-02-2019 21:30:00 3.6 C 92 % 2.42 C
836 20-02-2019 21:35:00 3.6 C 92 % 2.42 C
837 20-02-2019 21:40:00 3.6 C 92 % 2.42 C
838 20-02-2019 21:45:00 3.4 C 92 % 2.23 C
839 20-02-2019 21:50:00 3.4 C 92 % 2.23 C
840 20-02-2019 21:55:00 3.2 C 92 % 2.03 C
841 20-02-2019 22:00:00 3.2 C 92 % 2.03 C
842 20-02-2019 22:05:00 3.1 C 92 % 1.93 C
843 20-02-2019 22:10:00 2.9 C 92 % 1.73 C
844 20-02-2019 22:15:00 2.8 C 92 % 1.63 C
845 20-02-2019 22:20:00 2.7 C 92 % 1.53 C
846 20-02-2019 22:25:00 2.6 C 93 % 1.59 C
847 20-02-2019 22:30:00 2.5 C 93 % 1.49 C
848 20-02-2019 22:35:00 2.6 C 93 % 1.59 C
849 20-02-2019 22:40:00 2.6 C 94 % 1.73 C
850 20-02-2019 22:45:00 2.6 C 94 % 1.73 C
Sensor: Nr:Datum:Temp:Feuchte:Taupunkt:
Aussen-T/F 851 20-02-2019 22:50:00 2.5 C 94 % 1.63 C
852 20-02-2019 22:55:00 2.3 C 93 % 1.29 C
853 20-02-2019 23:00:00 2.2 C 94 % 1.34 C
854 20-02-2019 23:05:00 2.3 C 94 % 1.44 C
855 20-02-2019 23:10:00 2.4 C 94 % 1.54 C
856 20-02-2019 23:15:00 2.3 C 94 % 1.44 C
857 20-02-2019 23:20:00 2.2 C 94 % 1.34 C
858 20-02-2019 23:25:00 1.9 C 94 % 1.04 C
859 20-02-2019 23:30:00 1.8 C 94 % 0.94 C
860 20-02-2019 23:35:00 1.9 C 94 % 1.04 C
861 20-02-2019 23:40:00 1.9 C 94 % 1.04 C
862 20-02-2019 23:45:00 2 C 95 % 1.29 C
863 20-02-2019 23:50:00 2.2 C 95 % 1.48 C
864 20-02-2019 23:55:00 2.2 C 95 % 1.48 C
865 21-02-2019 00:00:00 2.1 C 94 % 1.24 C
866 21-02-2019 00:05:00 1.9 C 95 % 1.19 C
867 21-02-2019 00:10:00 1.8 C 94 % 0.94 C
868 21-02-2019 00:15:00 1.7 C 94 % 0.84 C
869 21-02-2019 00:20:00 1.6 C 94 % 0.74 C
870 21-02-2019 00:25:00 1.5 C 94 % 0.64 C
871 21-02-2019 00:30:00 1.4 C 94 % 0.54 C
872 21-02-2019 00:35:00 1.4 C 95 % 0.69 C
873 21-02-2019 00:40:00 1.4 C 95 % 0.69 C
874 21-02-2019 00:45:00 1.3 C 95 % 0.59 C
875 21-02-2019 00:50:00 1.3 C 95 % 0.59 C
Sensor: Nr:Datum:Temp:Feuchte:Taupunkt:
Aussen-T/F 876 21-02-2019 00:55:00 1.5 C 95 % 0.79 C
877 21-02-2019 01:00:00 1.6 C 95 % 0.89 C
878 21-02-2019 01:05:00 1.6 C 95 % 0.89 C
879 21-02-2019 01:10:00 1.7 C 95 % 0.99 C
880 21-02-2019 01:15:00 1.7 C 95 % 0.99 C
881 21-02-2019 01:20:00 1.8 C 95 % 1.09 C
882 21-02-2019 01:25:00 1.7 C 95 % 0.99 C
883 21-02-2019 01:30:00 1.6 C 95 % 0.89 C
884 21-02-2019 01:35:00 1.3 C 95 % 0.59 C
885 21-02-2019 01:40:00 1.3 C 95 % 0.59 C
886 21-02-2019 01:45:00 1.3 C 95 % 0.59 C
887 21-02-2019 01:50:00 1.6 C 96 % 1.03 C
888 21-02-2019 01:55:00 1.8 C 96 % 1.23 C
889 21-02-2019 02:00:00 1.8 C 96 % 1.23 C
890 21-02-2019 02:05:00 1.8 C 96 % 1.23 C
891 21-02-2019 02:10:00 1.7 C 95 % 0.99 C
892 21-02-2019 02:15:00 1.4 C 95 % 0.69 C
893 21-02-2019 02:20:00 1.2 C 95 % 0.49 C
894 21-02-2019 02:25:00 0.9 C 95 % 0.19 C
895 21-02-2019 02:30:00 0.8 C 95 % 0.09 C
896 21-02-2019 02:35:00 0.7 C 95 % -0.01 C
897 21-02-2019 02:40:00 0.7 C 95 % -0.01 C
898 21-02-2019 02:45:00 0.6 C 95 % -0.11 C
899 21-02-2019 02:50:00 0.6 C 95 % -0.11 C
900 21-02-2019 02:55:00 0.6 C 95 % -0.11 C
Sensor: Nr:Datum:Temp:Feuchte:Taupunkt:
Aussen-T/F 901 21-02-2019 03:00:00 0.7 C 96 % 0.14 C
902 21-02-2019 03:05:00 0.7 C 96 % 0.14 C
903 21-02-2019 03:10:00 0.7 C 95 % -0.01 C
904 21-02-2019 03:15:00 0.7 C 96 % 0.14 C
905 21-02-2019 03:20:00 0.7 C 96 % 0.14 C
906 21-02-2019 03:25:00 0.6 C 96 % 0.04 C
907 21-02-2019 03:30:00 0.7 C 96 % 0.14 C
908 21-02-2019 03:35:00 0.7 C 96 % 0.14 C
909 21-02-2019 03:40:00 0.8 C 96 % 0.24 C
910 21-02-2019 03:45:00 0.8 C 96 % 0.24 C
911 21-02-2019 03:50:00 0.8 C 96 % 0.24 C
912 21-02-2019 03:55:00 1 C 96 % 0.44 C
913 21-02-2019 04:00:00 1.1 C 96 % 0.54 C
914 21-02-2019 04:05:00 1.2 C 96 % 0.63 C
915 21-02-2019 04:10:00 1.1 C 96 % 0.54 C
916 21-02-2019 04:15:00 0.9 C 96 % 0.34 C
917 21-02-2019 04:20:00 0.8 C 96 % 0.24 C
918 21-02-2019 04:25:00 0.8 C 96 % 0.24 C
919 21-02-2019 04:30:00 0.8 C 96 % 0.24 C
920 21-02-2019 04:35:00 0.9 C 96 % 0.34 C
921 21-02-2019 04:40:00 0.9 C 96 % 0.34 C
922 21-02-2019 04:45:00 0.9 C 96 % 0.34 C
923 21-02-2019 04:50:00 0.8 C 96 % 0.24 C
924 21-02-2019 04:55:00 0.8 C 96 % 0.24 C
925 21-02-2019 05:00:00 0.7 C 96 % 0.14 C
Sensor: Nr:Datum:Temp:Feuchte:Taupunkt:
Aussen-T/F 926 21-02-2019 05:05:00 0.6 C 96 % 0.04 C
927 21-02-2019 05:10:00 0.6 C 96 % 0.04 C
928 21-02-2019 05:15:00 0.5 C 96 % -0.06 C
929 21-02-2019 05:20:00 0.5 C 96 % -0.06 C
930 21-02-2019 05:25:00 0.7 C 96 % 0.14 C
931 21-02-2019 05:30:00 0.9 C 96 % 0.34 C
932 21-02-2019 05:35:00 1.2 C 96 % 0.63 C
933 21-02-2019 05:40:00 1.6 C 97 % 1.18 C
934 21-02-2019 05:45:00 1.8 C 97 % 1.38 C
935 21-02-2019 05:50:00 1.8 C 97 % 1.38 C
936 21-02-2019 05:55:00 1.9 C 97 % 1.48 C
937 21-02-2019 06:00:00 1.9 C 97 % 1.48 C
938 21-02-2019 06:05:00 1.9 C 97 % 1.48 C
939 21-02-2019 06:10:00 1.8 C 97 % 1.38 C
940 21-02-2019 06:15:00 1.7 C 96 % 1.13 C
941 21-02-2019 06:20:00 1.4 C 96 % 0.83 C
942 21-02-2019 06:25:00 1.3 C 96 % 0.73 C
943 21-02-2019 06:30:00 1.2 C 96 % 0.63 C
944 21-02-2019 06:35:00 1 C 96 % 0.44 C
945 21-02-2019 06:40:00 0.8 C 96 % 0.24 C
946 21-02-2019 06:45:00 0.7 C 96 % 0.14 C
947 21-02-2019 06:50:00 0.6 C 96 % 0.04 C
948 21-02-2019 06:55:00 0.7 C 96 % 0.14 C
949 21-02-2019 07:00:00 0.7 C 96 % 0.14 C
950 21-02-2019 07:05:00 0.8 C 96 % 0.24 C
Sensor: Nr:Datum:Temp:Feuchte:Taupunkt:
Aussen-T/F 951 21-02-2019 07:10:00 1.1 C 96 % 0.54 C
952 21-02-2019 07:15:00 1.2 C 96 % 0.63 C
953 21-02-2019 07:20:00 1.3 C 97 % 0.88 C
954 21-02-2019 07:25:00 1.3 C 97 % 0.88 C
955 21-02-2019 07:30:00 1.3 C 97 % 0.88 C
956 21-02-2019 07:35:00 1.3 C 97 % 0.88 C
957 21-02-2019 07:40:00 1.3 C 97 % 0.88 C
958 21-02-2019 07:45:00 1.4 C 96 % 0.83 C
959 21-02-2019 07:50:00 1.4 C 96 % 0.83 C
960 21-02-2019 07:55:00 1.5 C 96 % 0.93 C
961 21-02-2019 08:00:00 1.6 C 97 % 1.18 C
962 21-02-2019 08:05:00 1.7 C 97 % 1.28 C
963 21-02-2019 08:10:00 1.8 C 97 % 1.38 C
964 21-02-2019 08:15:00 1.9 C 97 % 1.48 C
965 21-02-2019 08:20:00 2.1 C 97 % 1.67 C
966 21-02-2019 08:25:00 2.1 C 97 % 1.67 C
967 21-02-2019 08:30:00 2.2 C 97 % 1.77 C
968 21-02-2019 08:35:00 2.3 C 97 % 1.87 C
969 21-02-2019 08:40:00 2.3 C 97 % 1.87 C
970 21-02-2019 08:45:00 2.4 C 97 % 1.97 C
971 21-02-2019 08:50:00 2.4 C 97 % 1.97 C
972 21-02-2019 08:55:00 2.5 C 97 % 2.07 C
973 21-02-2019 09:00:00 2.6 C 97 % 2.17 C
974 21-02-2019 09:05:00 2.6 C 97 % 2.17 C
975 21-02-2019 09:10:00 2.7 C 97 % 2.27 C
Sensor: Nr:Datum:Temp:Feuchte:Taupunkt:
Aussen-T/F 976 21-02-2019 09:15:00 2.7 C 97 % 2.27 C
977 21-02-2019 09:20:00 2.8 C 97 % 2.37 C
978 21-02-2019 09:25:00 2.8 C 97 % 2.37 C
979 21-02-2019 09:30:00 2.8 C 97 % 2.37 C
980 21-02-2019 09:35:00 2.9 C 97 % 2.47 C
981 21-02-2019 09:40:00 2.9 C 97 % 2.47 C
982 21-02-2019 09:45:00 3 C 97 % 2.57 C
983 21-02-2019 09:50:00 3.1 C 97 % 2.67 C
984 21-02-2019 09:55:00 3.2 C 97 % 2.77 C
985 21-02-2019 10:00:00 3.2 C 97 % 2.77 C
986 21-02-2019 10:05:00 3.3 C 97 % 2.87 C
987 21-02-2019 10:10:00 3.4 C 97 % 2.97 C
988 21-02-2019 10:15:00 3.7 C 97 % 3.27 C
989 21-02-2019 10:20:00 3.8 C 97 % 3.37 C
990 21-02-2019 10:25:00 3.9 C 97 % 3.47 C
991 21-02-2019 10:30:00 4 C 97 % 3.57 C
992 21-02-2019 10:35:00 4.2 C 97 % 3.77 C
993 21-02-2019 10:40:00 4.2 C 97 % 3.77 C
994 21-02-2019 10:45:00 4.3 C 97 % 3.87 C
995 21-02-2019 10:50:00 4.4 C 97 % 3.97 C
996 21-02-2019 10:55:00 4.6 C 97 % 4.17 C
997 21-02-2019 11:00:00 4.8 C 97 % 4.37 C
998 21-02-2019 11:05:00 4.9 C 96 % 4.32 C
999 21-02-2019 11:10:00 5.1 C 96 % 4.52 C
1000 21-02-2019 11:15:00 5.3 C 96 % 4.72 C
Sensor: Nr:Datum:Temp:Feuchte:Taupunkt:
Aussen-T/F 1001 21-02-2019 11:20:00 5.4 C 96 % 4.81 C
1002 21-02-2019 11:25:00 5.6 C 95 % 4.86 C
1003 21-02-2019 11:30:00 5.7 C 95 % 4.96 C
1004 21-02-2019 11:35:00 5.9 C 95 % 5.16 C
1005 21-02-2019 11:40:00 6.2 C 94 % 5.31 C
1006 21-02-2019 11:45:00 6.4 C 93 % 5.35 C
1007 21-02-2019 11:50:00 6.6 C 93 % 5.55 C
1008 21-02-2019 11:55:00 6.8 C 92 % 5.59 C
1009 21-02-2019 12:00:00 7 C 92 % 5.79 C
1010 21-02-2019 12:05:00 7.2 C 92 % 5.99 C
1011 21-02-2019 12:10:00 7.4 C 91 % 6.03 C
1012 21-02-2019 12:15:00 7.7 C 91 % 6.33 C
1013 21-02-2019 12:20:00 7.8 C 90 % 6.27 C
1014 21-02-2019 12:25:00 8.1 C 90 % 6.56 C
1015 21-02-2019 12:30:00 8.3 C 90 % 6.76 C
1016 21-02-2019 12:35:00 8.5 C 90 % 6.96 C
1017 21-02-2019 12:40:00 8.8 C 90 % 7.25 C
1018 21-02-2019 12:45:00 9.3 C 89 % 7.58 C
1019 21-02-2019 12:50:00 9.8 C 87 % 7.74 C
1020 21-02-2019 12:55:00 10.1 C 86 % 7.87 C
1021 21-02-2019 13:00:00 10.3 C 85 % 7.89 C
1022 21-02-2019 13:05:00 10.5 C 84 % 7.91 C
1023 21-02-2019 13:10:00 10.7 C 84 % 8.11 C
1024 21-02-2019 13:15:00 10.8 C 83 % 8.03 C
1025 21-02-2019 13:20:00 11 C 84 % 8.4 C
Sensor: Nr:Datum:Temp:Feuchte:Taupunkt:
Aussen-T/F 1026 21-02-2019 13:25:00 11.3 C 83 % 8.52 C
1027 21-02-2019 13:30:00 11.5 C 81 % 8.36 C
1028 21-02-2019 13:35:00 11.7 C 81 % 8.55 C
1029 21-02-2019 13:40:00 11.8 C 80 % 8.47 C
1030 21-02-2019 13:45:00 11.9 C 79 % 8.38 C
1031 21-02-2019 13:50:00 12 C 79 % 8.48 C
1032 21-02-2019 13:55:00 12.1 C 79 % 8.57 C
1033 21-02-2019 14:00:00 12.1 C 79 % 8.57 C
1034 21-02-2019 14:05:00 12.2 C 78 % 8.48 C
1035 21-02-2019 14:10:00 12.3 C 79 % 8.77 C
1036 21-02-2019 14:15:00 12.6 C 78 % 8.87 C
1037 21-02-2019 14:20:00 12.7 C 77 % 8.78 C
1038 21-02-2019 14:25:00 12.7 C 76 % 8.58 C
1039 21-02-2019 14:30:00 12.8 C 76 % 8.68 C
1040 21-02-2019 14:35:00 12.8 C 76 % 8.68 C
1041 21-02-2019 14:40:00 12.7 C 76 % 8.58 C
1042 21-02-2019 14:45:00 12.7 C 76 % 8.58 C
1043 21-02-2019 14:50:00 12.7 C 76 % 8.58 C
1044 21-02-2019 14:55:00 12.9 C 77 % 8.97 C
1045 21-02-2019 15:00:00 13.2 C 75 % 8.87 C
1046 21-02-2019 15:05:00 13.2 C 75 % 8.87 C
1047 21-02-2019 15:10:00 13.3 C 74 % 8.77 C
1048 21-02-2019 15:15:00 13.4 C 74 % 8.87 C
1049 21-02-2019 15:20:00 13.4 C 74 % 8.87 C
1050 21-02-2019 15:25:00 13.3 C 74 % 8.77 C
Sensor: Nr:Datum:Temp:Feuchte:Taupunkt:
Aussen-T/F 1051 21-02-2019 15:30:00 13.3 C 75 % 8.97 C
1052 21-02-2019 15:35:00 13.3 C 74 % 8.77 C
1053 21-02-2019 15:40:00 13.3 C 75 % 8.97 C
1054 21-02-2019 15:45:00 13.4 C 74 % 8.87 C
1055 21-02-2019 15:50:00 13.4 C 73 % 8.66 C
1056 21-02-2019 15:55:00 13.4 C 74 % 8.87 C
1057 21-02-2019 16:00:00 13.3 C 73 % 8.57 C
1058 21-02-2019 16:05:00 13.3 C 73 % 8.57 C
1059 21-02-2019 16:10:00 13.3 C 74 % 8.77 C
1060 21-02-2019 16:15:00 13.3 C 75 % 8.97 C
1061 21-02-2019 16:20:00 13.4 C 75 % 9.06 C
1062 21-02-2019 16:25:00 13.4 C 74 % 8.87 C
1063 21-02-2019 16:30:00 13.4 C 74 % 8.87 C
1064 21-02-2019 16:35:00 13.4 C 74 % 8.87 C
1065 21-02-2019 16:40:00 13.4 C 74 % 8.87 C
1066 21-02-2019 16:45:00 13.3 C 75 % 8.97 C
1067 21-02-2019 16:50:00 13.3 C 74 % 8.77 C
1068 21-02-2019 16:55:00 13.3 C 74 % 8.77 C
1069 21-02-2019 17:00:00 13.2 C 73 % 8.47 C
1070 21-02-2019 17:05:00 13.1 C 73 % 8.38 C
1071 21-02-2019 17:10:00 13.1 C 73 % 8.38 C
1072 21-02-2019 17:15:00 13.1 C 75 % 8.77 C
1073 21-02-2019 17:20:00 13.1 C 80 % 9.73 C
1074 21-02-2019 17:25:00 12.8 C 81 % 9.62 C
1075 21-02-2019 17:30:00 12.6 C 82 % 9.61 C
Sensor: Nr:Datum:Temp:Feuchte:Taupunkt:
Aussen-T/F 1076 21-02-2019 17:35:00 12.3 C 83 % 9.5 C
1077 21-02-2019 17:40:00 12 C 84 % 9.38 C
1078 21-02-2019 17:45:00 11.7 C 84 % 9.09 C
1079 21-02-2019 17:50:00 11.5 C 85 % 9.07 C
1080 21-02-2019 17:55:00 11.3 C 85 % 8.87 C
1081 21-02-2019 18:00:00 11.1 C 86 % 8.85 C
1082 21-02-2019 18:05:00 10.9 C 86 % 8.65 C
1083 21-02-2019 18:10:00 10.8 C 86 % 8.56 C
1084 21-02-2019 18:15:00 10.7 C 86 % 8.46 C
1085 21-02-2019 18:20:00 10.6 C 86 % 8.36 C
1086 21-02-2019 18:25:00 10.6 C 86 % 8.36 C
1087 21-02-2019 18:30:00 10.5 C 86 % 8.26 C
1088 21-02-2019 18:35:00 10.4 C 86 % 8.16 C
1089 21-02-2019 18:40:00 10.4 C 86 % 8.16 C
1090 21-02-2019 18:45:00 10.3 C 86 % 8.06 C
1091 21-02-2019 18:50:00 10.3 C 87 % 8.23 C
1092 21-02-2019 18:55:00 10.2 C 87 % 8.14 C
1093 21-02-2019 19:00:00 10.2 C 87 % 8.14 C
1094 21-02-2019 19:05:00 10.1 C 86 % 7.87 C
1095 21-02-2019 19:10:00 10 C 86 % 7.77 C
1096 21-02-2019 19:15:00 9.8 C 86 % 7.57 C
1097 21-02-2019 19:20:00 9.8 C 87 % 7.74 C
1098 21-02-2019 19:25:00 9.7 C 88 % 7.81 C
1099 21-02-2019 19:30:00 9.7 C 88 % 7.81 C
1100 21-02-2019 19:35:00 9.7 C 88 % 7.81 C
Sensor: Nr:Datum:Temp:Feuchte:Taupunkt:
Aussen-T/F 1101 21-02-2019 19:40:00 9.6 C 88 % 7.71 C
1102 21-02-2019 19:45:00 9.6 C 87 % 7.55 C
1103 21-02-2019 19:50:00 9.4 C 88 % 7.52 C
1104 21-02-2019 19:55:00 9.3 C 88 % 7.42 C
1105 21-02-2019 20:00:00 9.2 C 88 % 7.32 C
1106 21-02-2019 20:05:00 9.2 C 89 % 7.48 C
1107 21-02-2019 20:10:00 9.2 C 89 % 7.48 C
1108 21-02-2019 20:15:00 9.1 C 89 % 7.39 C
1109 21-02-2019 20:20:00 9.1 C 89 % 7.39 C
1110 21-02-2019 20:25:00 9.2 C 90 % 7.65 C
1111 21-02-2019 20:30:00 9.2 C 90 % 7.65 C
1112 21-02-2019 20:35:00 9.2 C 90 % 7.65 C
1113 21-02-2019 20:40:00 9.2 C 90 % 7.65 C
1114 21-02-2019 20:45:00 9.2 C 90 % 7.65 C
1115 21-02-2019 20:50:00 9.2 C 90 % 7.65 C
1116 21-02-2019 20:55:00 9.2 C 90 % 7.65 C
1117 21-02-2019 21:00:00 9.3 C 90 % 7.75 C
1118 21-02-2019 21:05:00 9.3 C 90 % 7.75 C
1119 21-02-2019 21:10:00 9.3 C 91 % 7.91 C
1120 21-02-2019 21:15:00 9.3 C 91 % 7.91 C
1121 21-02-2019 21:20:00 9.3 C 91 % 7.91 C
1122 21-02-2019 21:25:00 9.3 C 91 % 7.91 C
1123 21-02-2019 21:30:00 9.3 C 91 % 7.91 C
1124 21-02-2019 21:35:00 9.3 C 91 % 7.91 C
1125 21-02-2019 21:40:00 9.3 C 90 % 7.75 C
Sensor: Nr:Datum:Temp:Feuchte:Taupunkt:
Aussen-T/F 1126 21-02-2019 21:45:00 9.4 C 90 % 7.85 C
1127 21-02-2019 21:50:00 9.4 C 90 % 7.85 C
1128 21-02-2019 21:55:00 9.4 C 90 % 7.85 C
1129 21-02-2019 22:00:00 9.3 C 90 % 7.75 C
1130 21-02-2019 22:05:00 9.3 C 90 % 7.75 C
1131 21-02-2019 22:10:00 9.3 C 89 % 7.58 C
1132 21-02-2019 22:15:00 9.3 C 90 % 7.75 C
1133 21-02-2019 22:20:00 9.3 C 89 % 7.58 C
1134 21-02-2019 22:25:00 9.3 C 89 % 7.58 C
1135 21-02-2019 22:30:00 9.3 C 89 % 7.58 C
1136 21-02-2019 22:35:00 9.3 C 89 % 7.58 C
1137 21-02-2019 22:40:00 9.3 C 89 % 7.58 C
1138 21-02-2019 22:45:00 9.2 C 89 % 7.48 C
1139 21-02-2019 22:50:00 9.2 C 89 % 7.48 C
1140 21-02-2019 22:55:00 9.2 C 89 % 7.48 C
1141 21-02-2019 23:00:00 9.1 C 89 % 7.39 C
1142 21-02-2019 23:05:00 9.1 C 89 % 7.39 C
1143 21-02-2019 23:10:00 9 C 89 % 7.29 C
1144 21-02-2019 23:15:00 9 C 90 % 7.45 C
1145 21-02-2019 23:20:00 9.1 C 90 % 7.55 C
1146 21-02-2019 23:25:00 9.2 C 90 % 7.65 C
1147 21-02-2019 23:30:00 9.3 C 90 % 7.75 C
1148 21-02-2019 23:35:00 9.3 C 89 % 7.58 C
1149 21-02-2019 23:40:00 9.4 C 89 % 7.68 C
1150 21-02-2019 23:45:00 9.3 C 89 % 7.58 C
Sensor: Nr:Datum:Temp:Feuchte:Taupunkt:
Aussen-T/F 1151 21-02-2019 23:50:00 9.4 C 89 % 7.68 C
1152 21-02-2019 23:55:00 9.4 C 89 % 7.68 C
1153 22-02-2019 00:00:00 9.4 C 89 % 7.68 C
1154 22-02-2019 00:05:00 9.4 C 88 % 7.52 C
1155 22-02-2019 00:10:00 9.3 C 89 % 7.58 C
1156 22-02-2019 00:15:00 9.3 C 89 % 7.58 C
1157 22-02-2019 00:20:00 9.3 C 89 % 7.58 C
1158 22-02-2019 00:25:00 9.3 C 89 % 7.58 C
1159 22-02-2019 00:30:00 9.4 C 89 % 7.68 C
1160 22-02-2019 00:35:00 9.5 C 90 % 7.94 C
1161 22-02-2019 00:40:00 9.8 C 90 % 8.24 C
1162 22-02-2019 00:45:00 10 C 88 % 8.11 C
1163 22-02-2019 00:50:00 10.1 C 88 % 8.21 C
1164 22-02-2019 00:55:00 10.1 C 88 % 8.21 C
1165 22-02-2019 01:00:00 10.1 C 88 % 8.21 C
1166 22-02-2019 01:05:00 10.1 C 87 % 8.04 C
1167 22-02-2019 01:10:00 9.9 C 87 % 7.84 C
1168 22-02-2019 01:15:00 9.8 C 87 % 7.74 C
1169 22-02-2019 01:20:00 9.8 C 88 % 7.91 C
1170 22-02-2019 01:25:00 9.7 C 88 % 7.81 C
1171 22-02-2019 01:30:00 9.7 C 89 % 7.98 C
1172 22-02-2019 01:35:00 9.7 C 89 % 7.98 C
1173 22-02-2019 01:40:00 9.7 C 89 % 7.98 C
1174 22-02-2019 01:45:00 9.6 C 89 % 7.88 C
1175 22-02-2019 01:50:00 9.6 C 89 % 7.88 C
Sensor: Nr:Datum:Temp:Feuchte:Taupunkt:
Aussen-T/F 1176 22-02-2019 01:55:00 9.5 C 89 % 7.78 C
1177 22-02-2019 02:00:00 9.4 C 89 % 7.68 C
1178 22-02-2019 02:05:00 9.4 C 89 % 7.68 C
1179 22-02-2019 02:10:00 9.4 C 90 % 7.85 C
1180 22-02-2019 02:15:00 9.4 C 90 % 7.85 C
1181 22-02-2019 02:20:00 9.4 C 90 % 7.85 C
1182 22-02-2019 02:25:00 9.3 C 90 % 7.75 C
1183 22-02-2019 02:30:00 9.3 C 90 % 7.75 C
1184 22-02-2019 02:35:00 9.3 C 90 % 7.75 C
1185 22-02-2019 02:40:00 9.2 C 90 % 7.65 C
1186 22-02-2019 02:45:00 9.2 C 91 % 7.81 C
1187 22-02-2019 02:50:00 9.3 C 91 % 7.91 C
1188 22-02-2019 02:55:00 9.3 C 92 % 8.07 C
1189 22-02-2019 03:00:00 9.4 C 92 % 8.17 C
1190 22-02-2019 03:05:00 9.4 C 91 % 8.01 C
1191 22-02-2019 03:10:00 9.4 C 92 % 8.17 C
1192 22-02-2019 03:15:00 9.4 C 92 % 8.17 C
1193 22-02-2019 03:20:00 9.5 C 92 % 8.27 C
1194 22-02-2019 03:25:00 9.5 C 92 % 8.27 C
1195 22-02-2019 03:30:00 9.6 C 92 % 8.37 C
1196 22-02-2019 03:35:00 9.6 C 93 % 8.53 C
1197 22-02-2019 03:40:00 9.7 C 93 % 8.62 C
1198 22-02-2019 03:45:00 9.7 C 92 % 8.46 C
1199 22-02-2019 03:50:00 9.7 C 92 % 8.46 C
1200 22-02-2019 03:55:00 9.7 C 92 % 8.46 C
Sensor: Nr:Datum:Temp:Feuchte:Taupunkt:
Aussen-T/F 1201 22-02-2019 04:00:00 9.8 C 92 % 8.56 C
1202 22-02-2019 04:05:00 9.8 C 92 % 8.56 C
1203 22-02-2019 04:10:00 9.8 C 92 % 8.56 C
1204 22-02-2019 04:15:00 9.8 C 93 % 8.72 C
1205 22-02-2019 04:20:00 9.8 C 93 % 8.72 C
1206 22-02-2019 04:25:00 9.7 C 93 % 8.62 C
1207 22-02-2019 04:30:00 9.7 C 93 % 8.62 C
1208 22-02-2019 04:35:00 9.6 C 93 % 8.53 C
1209 22-02-2019 04:40:00 9.6 C 93 % 8.53 C
1210 22-02-2019 04:45:00 9.5 C 93 % 8.43 C
1211 22-02-2019 04:50:00 9.5 C 94 % 8.58 C
1212 22-02-2019 04:55:00 9.4 C 94 % 8.48 C
1213 22-02-2019 05:00:00 9.4 C 94 % 8.48 C
1214 22-02-2019 05:05:00 9.4 C 94 % 8.48 C
1215 22-02-2019 05:10:00 9.4 C 94 % 8.48 C
1216 22-02-2019 05:15:00 9.4 C 94 % 8.48 C
1217 22-02-2019 05:20:00 9.4 C 94 % 8.48 C
1218 22-02-2019 05:25:00 9.3 C 94 % 8.39 C
1219 22-02-2019 05:30:00 9.3 C 94 % 8.39 C
1220 22-02-2019 05:35:00 9.3 C 94 % 8.39 C
1221 22-02-2019 05:40:00 9.3 C 94 % 8.39 C
1222 22-02-2019 05:45:00 9.3 C 95 % 8.54 C
1223 22-02-2019 05:50:00 9.3 C 95 % 8.54 C
1224 22-02-2019 05:55:00 9.3 C 95 % 8.54 C
1225 22-02-2019 06:00:00 9.3 C 95 % 8.54 C
Sensor: Nr:Datum:Temp:Feuchte:Taupunkt:
Aussen-T/F 1226 22-02-2019 06:05:00 9.3 C 95 % 8.54 C
1227 22-02-2019 06:10:00 9.3 C 95 % 8.54 C
1228 22-02-2019 06:15:00 9.4 C 95 % 8.64 C
1229 22-02-2019 06:20:00 9.4 C 95 % 8.64 C
1230 22-02-2019 06:25:00 9.4 C 95 % 8.64 C
1231 22-02-2019 06:30:00 9.4 C 95 % 8.64 C
1232 22-02-2019 06:35:00 9.4 C 95 % 8.64 C
1233 22-02-2019 06:40:00 9.3 C 95 % 8.54 C
1234 22-02-2019 06:45:00 9.3 C 95 % 8.54 C
1235 22-02-2019 06:50:00 9.3 C 95 % 8.54 C
1236 22-02-2019 06:55:00 9.3 C 95 % 8.54 C
1237 22-02-2019 07:00:00 9.3 C 95 % 8.54 C
1238 22-02-2019 07:05:00 9.3 C 95 % 8.54 C
1239 22-02-2019 07:10:00 9.3 C 95 % 8.54 C
1240 22-02-2019 07:15:00 9.2 C 95 % 8.44 C
1241 22-02-2019 07:20:00 9.2 C 95 % 8.44 C
1242 22-02-2019 07:25:00 9.2 C 95 % 8.44 C
1243 22-02-2019 07:30:00 9.2 C 95 % 8.44 C
1244 22-02-2019 07:35:00 9.2 C 96 % 8.6 C
1245 22-02-2019 07:40:00 9.2 C 96 % 8.6 C
1246 22-02-2019 07:45:00 9.2 C 96 % 8.6 C
1247 22-02-2019 07:50:00 9.2 C 96 % 8.6 C
1248 22-02-2019 07:55:00 9.2 C 96 % 8.6 C
1249 22-02-2019 08:00:00 9.1 C 96 % 8.5 C
1250 22-02-2019 08:05:00 9.1 C 96 % 8.5 C
Sensor: Nr:Datum:Temp:Feuchte:Taupunkt:
Aussen-T/F 1251 22-02-2019 08:10:00 9.1 C 96 % 8.5 C
1252 22-02-2019 08:15:00 9.1 C 96 % 8.5 C
1253 22-02-2019 08:20:00 9.1 C 96 % 8.5 C
1254 22-02-2019 08:25:00 9.1 C 96 % 8.5 C
1255 22-02-2019 08:30:00 9.2 C 96 % 8.6 C
1256 22-02-2019 08:35:00 9.2 C 96 % 8.6 C
1257 22-02-2019 08:40:00 9.2 C 96 % 8.6 C
1258 22-02-2019 08:45:00 9.2 C 96 % 8.6 C
1259 22-02-2019 08:50:00 9.3 C 96 % 8.7 C
1260 22-02-2019 08:55:00 9.3 C 96 % 8.7 C
1261 22-02-2019 09:00:00 9.4 C 96 % 8.8 C
1262 22-02-2019 09:05:00 9.4 C 96 % 8.8 C
1263 22-02-2019 09:10:00 9.5 C 96 % 8.89 C
1264 22-02-2019 09:15:00 9.5 C 96 % 8.89 C
1265 22-02-2019 09:20:00 9.5 C 96 % 8.89 C
1266 22-02-2019 09:25:00 9.5 C 96 % 8.89 C
1267 22-02-2019 09:30:00 9.5 C 96 % 8.89 C
1268 22-02-2019 09:35:00 9.5 C 96 % 8.89 C
1269 22-02-2019 09:40:00 9.5 C 96 % 8.89 C
1270 22-02-2019 09:45:00 9.6 C 96 % 8.99 C
1271 22-02-2019 09:50:00 9.6 C 96 % 8.99 C
1272 22-02-2019 09:55:00 9.6 C 96 % 8.99 C
1273 22-02-2019 10:00:00 9.7 C 96 % 9.09 C
1274 22-02-2019 10:05:00 9.7 C 96 % 9.09 C
1275 22-02-2019 10:10:00 9.8 C 96 % 9.19 C
Sensor: Nr:Datum:Temp:Feuchte:Taupunkt:
Aussen-T/F 1276 22-02-2019 10:15:00 9.8 C 96 % 9.19 C
1277 22-02-2019 10:20:00 9.8 C 96 % 9.19 C
1278 22-02-2019 10:25:00 9.9 C 96 % 9.29 C
1279 22-02-2019 10:30:00 9.9 C 96 % 9.29 C
1280 22-02-2019 10:35:00 10 C 96 % 9.39 C
1281 22-02-2019 10:40:00 10.1 C 96 % 9.49 C
1282 22-02-2019 10:45:00 10.1 C 96 % 9.49 C
1283 22-02-2019 10:50:00 10.2 C 96 % 9.59 C
1284 22-02-2019 10:55:00 10.2 C 96 % 9.59 C
1285 22-02-2019 11:00:00 10.3 C 96 % 9.69 C
1286 22-02-2019 11:05:00 10.3 C 96 % 9.69 C
1287 22-02-2019 11:10:00 10.5 C 96 % 9.89 C
1288 22-02-2019 11:15:00 10.6 C 96 % 9.99 C
1289 22-02-2019 11:20:00 10.6 C 96 % 9.99 C
1290 22-02-2019 11:25:00 10.6 C 95 % 9.83 C
1291 22-02-2019 11:30:00 10.7 C 95 % 9.93 C
1292 22-02-2019 11:35:00 10.7 C 95 % 9.93 C
1293 22-02-2019 11:40:00 10.7 C 94 % 9.77 C
1294 22-02-2019 11:45:00 10.8 C 93 % 9.71 C
1295 22-02-2019 11:50:00 10.9 C 93 % 9.81 C
1296 22-02-2019 11:55:00 11 C 93 % 9.91 C
1297 22-02-2019 12:00:00 11.2 C 92 % 9.95 C
1298 22-02-2019 12:05:00 11.2 C 91 % 9.79 C
1299 22-02-2019 12:10:00 11.3 C 91 % 9.89 C
1300 22-02-2019 12:15:00 11.4 C 89 % 9.65 C
Sensor: Nr:Datum:Temp:Feuchte:Taupunkt:
Aussen-T/F 1301 22-02-2019 12:20:00 11.4 C 89 % 9.65 C
1302 22-02-2019 12:25:00 11.6 C 88 % 9.68 C
1303 22-02-2019 12:30:00 11.7 C 88 % 9.78 C
1304 22-02-2019 12:35:00 11.8 C 87 % 9.71 C
1305 22-02-2019 12:40:00 11.8 C 85 % 9.36 C
1306 22-02-2019 12:45:00 11.9 C 85 % 9.46 C
1307 22-02-2019 12:50:00 11.9 C 85 % 9.46 C
1308 22-02-2019 12:55:00 12 C 85 % 9.56 C
1309 22-02-2019 13:00:00 12.1 C 85 % 9.66 C
1310 22-02-2019 13:05:00 12.1 C 84 % 9.48 C
1311 22-02-2019 13:10:00 12.1 C 84 % 9.48 C
1312 22-02-2019 13:15:00 12.1 C 84 % 9.48 C
1313 22-02-2019 13:20:00 12.2 C 84 % 9.58 C
1314 22-02-2019 13:25:00 12.5 C 82 % 9.51 C
1315 22-02-2019 13:30:00 12.8 C 82 % 9.81 C
1316 22-02-2019 13:35:00 12.8 C 80 % 9.44 C
1317 22-02-2019 13:40:00 12.8 C 80 % 9.44 C
1318 22-02-2019 13:45:00 12.8 C 80 % 9.44 C
1319 22-02-2019 13:50:00 12.7 C 80 % 9.34 C
1320 22-02-2019 13:55:00 12.6 C 80 % 9.25 C
1321 22-02-2019 14:00:00 12.6 C 80 % 9.25 C
1322 22-02-2019 14:05:00 12.6 C 80 % 9.25 C
1323 22-02-2019 14:10:00 12.6 C 79 % 9.06 C
1324 22-02-2019 14:15:00 12.7 C 79 % 9.16 C
1325 22-02-2019 14:20:00 12.7 C 78 % 8.97 C
Sensor: Nr:Datum:Temp:Feuchte:Taupunkt:
Aussen-T/F 1326 22-02-2019 14:25:00 12.8 C 78 % 9.06 C
1327 22-02-2019 14:30:00 12.8 C 78 % 9.06 C
1328 22-02-2019 14:35:00 12.9 C 79 % 9.35 C
1329 22-02-2019 14:40:00 13 C 76 % 8.87 C
1330 22-02-2019 14:45:00 13.1 C 76 % 8.97 C
1331 22-02-2019 14:50:00 13.1 C 76 % 8.97 C
1332 22-02-2019 14:55:00 13.1 C 76 % 8.97 C
1333 22-02-2019 15:00:00 13.2 C 75 % 8.87 C
1334 22-02-2019 15:05:00 13.3 C 76 % 9.16 C
1335 22-02-2019 15:10:00 13.3 C 75 % 8.97 C
1336 22-02-2019 15:15:00 13.4 C 74 % 8.87 C
1337 22-02-2019 15:20:00 13.4 C 74 % 8.87 C
1338 22-02-2019 15:25:00 13.4 C 73 % 8.66 C
1339 22-02-2019 15:30:00 13.3 C 74 % 8.77 C
1340 22-02-2019 15:35:00 13.3 C 74 % 8.77 C
1341 22-02-2019 15:40:00 13.2 C 74 % 8.67 C
1342 22-02-2019 15:45:00 13.2 C 74 % 8.67 C
1343 22-02-2019 15:50:00 13.2 C 75 % 8.87 C
1344 22-02-2019 15:55:00 13.1 C 74 % 8.58 C
1345 22-02-2019 16:00:00 13.1 C 74 % 8.58 C
1346 22-02-2019 16:05:00 13.1 C 75 % 8.77 C
1347 22-02-2019 16:10:00 13.1 C 75 % 8.77 C
1348 22-02-2019 16:15:00 12.9 C 74 % 8.38 C
1349 22-02-2019 16:20:00 12.9 C 73 % 8.18 C
1350 22-02-2019 16:25:00 12.8 C 73 % 8.09 C
Sensor: Nr:Datum:Temp:Feuchte:Taupunkt:
Aussen-T/F 1351 22-02-2019 16:30:00 12.8 C 72 % 7.88 C
1352 22-02-2019 16:35:00 12.7 C 72 % 7.79 C
1353 22-02-2019 16:40:00 12.7 C 72 % 7.79 C
1354 22-02-2019 16:45:00 12.7 C 74 % 8.19 C
1355 22-02-2019 16:50:00 12.7 C 74 % 8.19 C
1356 22-02-2019 16:55:00 12.6 C 73 % 7.89 C
1357 22-02-2019 17:00:00 12.5 C 74 % 8 C
1358 22-02-2019 17:05:00 12.4 C 74 % 7.9 C
1359 22-02-2019 17:10:00 12.3 C 75 % 8 C
1360 22-02-2019 17:15:00 12.2 C 73 % 7.51 C
1361 22-02-2019 17:20:00 12.2 C 74 % 7.71 C
1362 22-02-2019 17:25:00 12.1 C 76 % 8 C
1363 22-02-2019 17:30:00 11.9 C 77 % 8 C
1364 22-02-2019 17:35:00 11.7 C 77 % 7.81 C
1365 22-02-2019 17:40:00 11.4 C 78 % 7.71 C
1366 22-02-2019 17:45:00 11.3 C 78 % 7.61 C
1367 22-02-2019 17:50:00 11.1 C 79 % 7.6 C
1368 22-02-2019 17:55:00 10.8 C 79 % 7.31 C
1369 22-02-2019 18:00:00 10.4 C 80 % 7.1 C
1370 22-02-2019 18:05:00 10.1 C 80 % 6.81 C
1371 22-02-2019 18:10:00 9.8 C 81 % 6.7 C
1372 22-02-2019 18:15:00 9.4 C 82 % 6.49 C
1373 22-02-2019 18:20:00 9.2 C 82 % 6.29 C
1374 22-02-2019 18:25:00 9 C 83 % 6.27 C
1375 22-02-2019 18:30:00 8.8 C 84 % 6.25 C
Sensor: Nr:Datum:Temp:Feuchte:Taupunkt:
Aussen-T/F 1376 22-02-2019 18:35:00 8.7 C 84 % 6.15 C
1377 22-02-2019 18:40:00 8.6 C 85 % 6.23 C
1378 22-02-2019 18:45:00 8.4 C 85 % 6.03 C
1379 22-02-2019 18:50:00 8.3 C 85 % 5.93 C
1380 22-02-2019 18:55:00 8.2 C 86 % 6 C
1381 22-02-2019 19:00:00 8.2 C 86 % 6 C
1382 22-02-2019 19:05:00 8.3 C 86 % 6.1 C
1383 22-02-2019 19:10:00 8.3 C 87 % 6.27 C
1384 22-02-2019 19:15:00 8.4 C 87 % 6.37 C
1385 22-02-2019 19:20:00 8.5 C 86 % 6.3 C
1386 22-02-2019 19:25:00 8.6 C 86 % 6.39 C
1387 22-02-2019 19:30:00 8.6 C 86 % 6.39 C
1388 22-02-2019 19:35:00 8.6 C 86 % 6.39 C
1389 22-02-2019 19:40:00 8.7 C 86 % 6.49 C
1390 22-02-2019 19:45:00 8.7 C 86 % 6.49 C
1391 22-02-2019 19:50:00 8.8 C 86 % 6.59 C
1392 22-02-2019 19:55:00 8.9 C 86 % 6.69 C
1393 22-02-2019 20:00:00 8.9 C 85 % 6.52 C
1394 22-02-2019 20:05:00 9 C 85 % 6.62 C
1395 22-02-2019 20:10:00 9 C 85 % 6.62 C
1396 22-02-2019 20:15:00 9.1 C 85 % 6.72 C
1397 22-02-2019 20:20:00 9.1 C 85 % 6.72 C
1398 22-02-2019 20:25:00 9.1 C 85 % 6.72 C
1399 22-02-2019 20:30:00 9.1 C 85 % 6.72 C
1400 22-02-2019 20:35:00 9 C 85 % 6.62 C
Sensor: Nr:Datum:Temp:Feuchte:Taupunkt:
Aussen-T/F 1401 22-02-2019 20:40:00 8.9 C 86 % 6.69 C
1402 22-02-2019 20:45:00 8.9 C 86 % 6.69 C
1403 22-02-2019 20:50:00 8.9 C 86 % 6.69 C
1404 22-02-2019 20:55:00 8.9 C 86 % 6.69 C
1405 22-02-2019 21:00:00 8.8 C 86 % 6.59 C
1406 22-02-2019 21:05:00 8.8 C 86 % 6.59 C
1407 22-02-2019 21:10:00 8.8 C 86 % 6.59 C
1408 22-02-2019 21:15:00 8.8 C 86 % 6.59 C
1409 22-02-2019 21:20:00 8.7 C 87 % 6.66 C
1410 22-02-2019 21:25:00 8.7 C 86 % 6.49 C
1411 22-02-2019 21:30:00 8.6 C 86 % 6.39 C
1412 22-02-2019 21:35:00 8.4 C 86 % 6.2 C
1413 22-02-2019 21:40:00 8.3 C 86 % 6.1 C
1414 22-02-2019 21:45:00 8.1 C 86 % 5.9 C
1415 22-02-2019 21:50:00 7.9 C 86 % 5.71 C
1416 22-02-2019 21:55:00 7.8 C 87 % 5.78 C
1417 22-02-2019 22:00:00 7.6 C 87 % 5.58 C
1418 22-02-2019 22:05:00 7.4 C 88 % 5.55 C
1419 22-02-2019 22:10:00 7.3 C 88 % 5.45 C
1420 22-02-2019 22:15:00 7.2 C 88 % 5.35 C
1421 22-02-2019 22:20:00 7.1 C 89 % 5.41 C
1422 22-02-2019 22:25:00 7 C 89 % 5.31 C
1423 22-02-2019 22:30:00 6.9 C 89 % 5.22 C
1424 22-02-2019 22:35:00 6.8 C 89 % 5.12 C
1425 22-02-2019 22:40:00 6.7 C 90 % 5.18 C
Sensor: Nr:Datum:Temp:Feuchte:Taupunkt:
Aussen-T/F 1426 22-02-2019 22:45:00 6.6 C 90 % 5.08 C
1427 22-02-2019 22:50:00 6.4 C 90 % 4.88 C
1428 22-02-2019 22:55:00 6.3 C 90 % 4.78 C
1429 22-02-2019 23:00:00 6.2 C 90 % 4.69 C
1430 22-02-2019 23:05:00 6.1 C 91 % 4.74 C
1431 22-02-2019 23:10:00 6.1 C 91 % 4.74 C
1432 22-02-2019 23:15:00 6 C 91 % 4.65 C
1433 22-02-2019 23:20:00 6 C 92 % 4.8 C
1434 22-02-2019 23:25:00 5.9 C 92 % 4.7 C
1435 22-02-2019 23:30:00 5.9 C 92 % 4.7 C
1436 22-02-2019 23:35:00 5.9 C 92 % 4.7 C
1437 22-02-2019 23:40:00 5.9 C 92 % 4.7 C
1438 22-02-2019 23:45:00 5.9 C 92 % 4.7 C
1439 22-02-2019 23:50:00 5.8 C 92 % 4.6 C
1440 22-02-2019 23:55:00 5.7 C 92 % 4.5 C
1441 23-02-2019 00:00:00 5.7 C 92 % 4.5 C
1442 23-02-2019 00:05:00 5.7 C 92 % 4.5 C
1443 23-02-2019 00:10:00 5.6 C 92 % 4.41 C
1444 23-02-2019 00:15:00 5.4 C 92 % 4.21 C
1445 23-02-2019 00:20:00 5.3 C 92 % 4.11 C
1446 23-02-2019 00:25:00 5.3 C 92 % 4.11 C
1447 23-02-2019 00:30:00 5.2 C 92 % 4.01 C
1448 23-02-2019 00:35:00 5.2 C 92 % 4.01 C
1449 23-02-2019 00:40:00 5.2 C 93 % 4.16 C
1450 23-02-2019 00:45:00 5.1 C 93 % 4.06 C
Sensor: Nr:Datum:Temp:Feuchte:Taupunkt:
Aussen-T/F 1451 23-02-2019 00:50:00 5.1 C 93 % 4.06 C
1452 23-02-2019 00:55:00 5 C 93 % 3.96 C
1453 23-02-2019 01:00:00 4.9 C 93 % 3.87 C
1454 23-02-2019 01:05:00 4.8 C 93 % 3.77 C
1455 23-02-2019 01:10:00 4.8 C 93 % 3.77 C
1456 23-02-2019 01:15:00 4.7 C 93 % 3.67 C
1457 23-02-2019 01:20:00 4.7 C 93 % 3.67 C
1458 23-02-2019 01:25:00 4.6 C 93 % 3.57 C
1459 23-02-2019 01:30:00 4.4 C 93 % 3.37 C
1460 23-02-2019 01:35:00 4.4 C 93 % 3.37 C
1461 23-02-2019 01:40:00 4.4 C 93 % 3.37 C
1462 23-02-2019 01:45:00 4.3 C 94 % 3.42 C
1463 23-02-2019 01:50:00 4.3 C 94 % 3.42 C
1464 23-02-2019 01:55:00 4.3 C 94 % 3.42 C
1465 23-02-2019 02:00:00 4.3 C 94 % 3.42 C
1466 23-02-2019 02:05:00 4.3 C 94 % 3.42 C
1467 23-02-2019 02:10:00 4.4 C 94 % 3.52 C
1468 23-02-2019 02:15:00 4.4 C 94 % 3.52 C
1469 23-02-2019 02:20:00 4.3 C 94 % 3.42 C
1470 23-02-2019 02:25:00 4.3 C 94 % 3.42 C
1471 23-02-2019 02:30:00 4.2 C 94 % 3.32 C
1472 23-02-2019 02:35:00 4.1 C 94 % 3.22 C
1473 23-02-2019 02:40:00 4 C 94 % 3.12 C
1474 23-02-2019 02:45:00 4 C 94 % 3.12 C
1475 23-02-2019 02:50:00 4 C 94 % 3.12 C
Sensor: Nr:Datum:Temp:Feuchte:Taupunkt:
Aussen-T/F 1476 23-02-2019 02:55:00 3.9 C 94 % 3.02 C
1477 23-02-2019 03:00:00 3.8 C 94 % 2.93 C
1478 23-02-2019 03:05:00 3.8 C 95 % 3.07 C
1479 23-02-2019 03:10:00 3.8 C 95 % 3.07 C
1480 23-02-2019 03:15:00 3.8 C 95 % 3.07 C
1481 23-02-2019 03:20:00 3.9 C 95 % 3.17 C
1482 23-02-2019 03:25:00 3.8 C 95 % 3.07 C
1483 23-02-2019 03:30:00 3.7 C 95 % 2.98 C
1484 23-02-2019 03:35:00 3.7 C 95 % 2.98 C
1485 23-02-2019 03:40:00 3.8 C 95 % 3.07 C
1486 23-02-2019 03:45:00 3.8 C 95 % 3.07 C
1487 23-02-2019 03:50:00 3.9 C 95 % 3.17 C
1488 23-02-2019 03:55:00 4 C 95 % 3.27 C
1489 23-02-2019 04:00:00 4.1 C 95 % 3.37 C
1490 23-02-2019 04:05:00 4.2 C 95 % 3.47 C
1491 23-02-2019 04:10:00 4.2 C 95 % 3.47 C
1492 23-02-2019 04:15:00 4.3 C 95 % 3.57 C
1493 23-02-2019 04:20:00 4.3 C 95 % 3.57 C
1494 23-02-2019 04:25:00 4.3 C 95 % 3.57 C
1495 23-02-2019 04:30:00 4.4 C 95 % 3.67 C
1496 23-02-2019 04:35:00 4.3 C 95 % 3.57 C
1497 23-02-2019 04:40:00 4.3 C 95 % 3.57 C
1498 23-02-2019 04:45:00 4.3 C 95 % 3.57 C
1499 23-02-2019 04:50:00 4.3 C 95 % 3.57 C
1500 23-02-2019 04:55:00 4.2 C 95 % 3.47 C
Sensor: Nr:Datum:Temp:Feuchte:Taupunkt:
Aussen-T/F 1501 23-02-2019 05:00:00 4.2 C 95 % 3.47 C
1502 23-02-2019 05:05:00 4.2 C 95 % 3.47 C
1503 23-02-2019 05:10:00 4.3 C 95 % 3.57 C
1504 23-02-2019 05:15:00 4.3 C 95 % 3.57 C
1505 23-02-2019 05:20:00 4.5 C 94 % 3.62 C
1506 23-02-2019 05:25:00 4.6 C 94 % 3.72 C
1507 23-02-2019 05:30:00 4.6 C 93 % 3.57 C
1508 23-02-2019 05:35:00 4.7 C 93 % 3.67 C
1509 23-02-2019 05:40:00 4.7 C 93 % 3.67 C
1510 23-02-2019 05:45:00 4.7 C 92 % 3.51 C
1511 23-02-2019 05:50:00 4.7 C 92 % 3.51 C
1512 23-02-2019 05:55:00 4.8 C 91 % 3.46 C
1513 23-02-2019 06:00:00 4.8 C 91 % 3.46 C
1514 23-02-2019 06:05:00 4.8 C 91 % 3.46 C
1515 23-02-2019 06:10:00 4.9 C 90 % 3.4 C
1516 23-02-2019 06:15:00 4.8 C 91 % 3.46 C
1517 23-02-2019 06:20:00 4.8 C 91 % 3.46 C
1518 23-02-2019 06:25:00 4.8 C 89 % 3.14 C
1519 23-02-2019 06:30:00 4.8 C 89 % 3.14 C
1520 23-02-2019 06:35:00 4.8 C 89 % 3.14 C
1521 23-02-2019 06:40:00 4.9 C 89 % 3.24 C
1522 23-02-2019 06:45:00 4.9 C 90 % 3.4 C
1523 23-02-2019 06:50:00 4.9 C 89 % 3.24 C
1524 23-02-2019 06:55:00 4.8 C 89 % 3.14 C
1525 23-02-2019 07:00:00 4.8 C 88 % 2.99 C
Sensor: Nr:Datum:Temp:Feuchte:Taupunkt:
Aussen-T/F 1526 23-02-2019 07:05:00 4.8 C 88 % 2.99 C
1527 23-02-2019 07:10:00 4.8 C 88 % 2.99 C
1528 23-02-2019 07:15:00 4.7 C 87 % 2.73 C
1529 23-02-2019 07:20:00 4.8 C 87 % 2.82 C
1530 23-02-2019 07:25:00 4.8 C 87 % 2.82 C
1531 23-02-2019 07:30:00 4.8 C 87 % 2.82 C
1532 23-02-2019 07:35:00 4.8 C 86 % 2.66 C
1533 23-02-2019 07:40:00 4.8 C 86 % 2.66 C
1534 23-02-2019 07:45:00 4.8 C 87 % 2.82 C
1535 23-02-2019 07:50:00 4.8 C 86 % 2.66 C
1536 23-02-2019 07:55:00 4.8 C 86 % 2.66 C
1537 23-02-2019 08:00:00 4.8 C 86 % 2.66 C
1538 23-02-2019 08:05:00 4.8 C 87 % 2.82 C
1539 23-02-2019 08:10:00 4.8 C 86 % 2.66 C
1540 23-02-2019 08:15:00 4.8 C 85 % 2.5 C
1541 23-02-2019 08:20:00 4.8 C 85 % 2.5 C
1542 23-02-2019 08:25:00 4.8 C 85 % 2.5 C
1543 23-02-2019 08:30:00 4.9 C 85 % 2.6 C
1544 23-02-2019 08:35:00 4.9 C 85 % 2.6 C
1545 23-02-2019 08:40:00 4.9 C 84 % 2.43 C
1546 23-02-2019 08:45:00 4.9 C 84 % 2.43 C
1547 23-02-2019 08:50:00 4.9 C 84 % 2.43 C
1548 23-02-2019 08:55:00 4.9 C 84 % 2.43 C
1549 23-02-2019 09:00:00 4.9 C 84 % 2.43 C
1550 23-02-2019 09:05:00 4.9 C 83 % 2.26 C
Sensor: Nr:Datum:Temp:Feuchte:Taupunkt:
Aussen-T/F 1551 23-02-2019 09:10:00 4.8 C 83 % 2.16 C
1552 23-02-2019 09:15:00 4.8 C 83 % 2.16 C
1553 23-02-2019 09:20:00 4.8 C 84 % 2.33 C
1554 23-02-2019 09:25:00 4.8 C 84 % 2.33 C
1555 23-02-2019 09:30:00 4.8 C 84 % 2.33 C
1556 23-02-2019 09:35:00 4.7 C 84 % 2.23 C
1557 23-02-2019 09:40:00 4.7 C 83 % 2.07 C
1558 23-02-2019 09:45:00 4.7 C 83 % 2.07 C
1559 23-02-2019 09:50:00 4.7 C 83 % 2.07 C
1560 23-02-2019 09:55:00 4.7 C 83 % 2.07 C
1561 23-02-2019 10:00:00 4.7 C 83 % 2.07 C
1562 23-02-2019 10:05:00 4.7 C 83 % 2.07 C
1563 23-02-2019 10:10:00 4.7 C 83 % 2.07 C
1564 23-02-2019 10:15:00 4.8 C 83 % 2.16 C
1565 23-02-2019 10:20:00 4.8 C 82 % 1.99 C
1566 23-02-2019 10:25:00 4.8 C 82 % 1.99 C
1567 23-02-2019 10:30:00 4.9 C 82 % 2.09 C
1568 23-02-2019 10:35:00 5 C 81 % 2.02 C
1569 23-02-2019 10:40:00 5.1 C 81 % 2.12 C
1570 23-02-2019 10:45:00 5.2 C 81 % 2.21 C
1571 23-02-2019 10:50:00 5.3 C 81 % 2.31 C
1572 23-02-2019 10:55:00 5.4 C 80 % 2.23 C
1573 23-02-2019 11:00:00 5.4 C 81 % 2.41 C
1574 23-02-2019 11:05:00 5.6 C 81 % 2.6 C
1575 23-02-2019 11:10:00 5.7 C 80 % 2.53 C
Sensor: Nr:Datum:Temp:Feuchte:Taupunkt:
Aussen-T/F 1576 23-02-2019 11:15:00 5.8 C 80 % 2.62 C
1577 23-02-2019 11:20:00 5.9 C 80 % 2.72 C
1578 23-02-2019 11:25:00 6.1 C 80 % 2.92 C
1579 23-02-2019 11:30:00 6.2 C 79 % 2.84 C
1580 23-02-2019 11:35:00 6.3 C 79 % 2.93 C
1581 23-02-2019 11:40:00 6.4 C 78 % 2.85 C
1582 23-02-2019 11:45:00 6.6 C 77 % 2.86 C
1583 23-02-2019 11:50:00 6.7 C 77 % 2.96 C
1584 23-02-2019 11:55:00 6.8 C 76 % 2.87 C
1585 23-02-2019 12:00:00 6.9 C 76 % 2.97 C
1586 23-02-2019 12:05:00 7.1 C 75 % 2.98 C
1587 23-02-2019 12:10:00 7.2 C 74 % 2.89 C
1588 23-02-2019 12:15:00 7.3 C 74 % 2.98 C
1589 23-02-2019 12:20:00 7.5 C 73 % 2.98 C
1590 23-02-2019 12:25:00 7.7 C 72 % 2.98 C
1591 23-02-2019 12:30:00 7.8 C 71 % 2.88 C
1592 23-02-2019 12:35:00 7.8 C 71 % 2.88 C
1593 23-02-2019 12:40:00 7.9 C 70 % 2.78 C
1594 23-02-2019 12:45:00 8 C 71 % 3.07 C
1595 23-02-2019 12:50:00 8.1 C 70 % 2.97 C
1596 23-02-2019 12:55:00 8.2 C 71 % 3.26 C
1597 23-02-2019 13:00:00 8.3 C 69 % 2.96 C
1598 23-02-2019 13:05:00 8.4 C 68 % 2.85 C
1599 23-02-2019 13:10:00 8.4 C 69 % 3.05 C
1600 23-02-2019 13:15:00 8.7 C 68 % 3.13 C
Sensor: Nr:Datum:Temp:Feuchte:Taupunkt:
Aussen-T/F 1601 23-02-2019 13:20:00 8.9 C 68 % 3.32 C
1602 23-02-2019 13:25:00 9.1 C 67 % 3.31 C
1603 23-02-2019 13:30:00 9.3 C 66 % 3.28 C
1604 23-02-2019 13:35:00 9.3 C 66 % 3.28 C
1605 23-02-2019 13:40:00 9.4 C 67 % 3.59 C
1606 23-02-2019 13:45:00 9.6 C 65 % 3.35 C
1607 23-02-2019 13:50:00 9.6 C 65 % 3.35 C
1608 23-02-2019 13:55:00 9.7 C 64 % 3.23 C
1609 23-02-2019 14:00:00 9.7 C 64 % 3.23 C
1610 23-02-2019 14:05:00 9.7 C 63 % 3.01 C
1611 23-02-2019 14:10:00 9.7 C 64 % 3.23 C
1612 23-02-2019 14:15:00 9.8 C 63 % 3.1 C
1613 23-02-2019 14:20:00 9.8 C 62 % 2.88 C
1614 23-02-2019 14:25:00 9.9 C 62 % 2.97 C
1615 23-02-2019 14:30:00 10 C 61 % 2.84 C
1616 23-02-2019 14:35:00 10.1 C 60 % 2.7 C
1617 23-02-2019 14:40:00 10.2 C 59 % 2.56 C
1618 23-02-2019 14:45:00 10.3 C 54 % 1.41 C
1619 23-02-2019 14:50:00 10.4 C 52 % 0.98 C
1620 23-02-2019 14:55:00 10.6 C 49 % 0.35 C
1621 23-02-2019 15:00:00 10.6 C 47 % -0.23 C
1622 23-02-2019 15:05:00 10.7 C 46 % -0.43 C
1623 23-02-2019 15:10:00 10.8 C 48 % 0.24 C
1624 23-02-2019 15:15:00 10.8 C 46 % -0.34 C
1625 23-02-2019 15:20:00 10.8 C 46 % -0.34 C
Sensor: Nr:Datum:Temp:Feuchte:Taupunkt:
Aussen-T/F 1626 23-02-2019 15:25:00 10.8 C 46 % -0.34 C
1627 23-02-2019 15:30:00 10.8 C 45 % -0.64 C
1628 23-02-2019 15:35:00 10.8 C 42 % -1.58 C
1629 23-02-2019 15:40:00 10.8 C 42 % -1.58 C
1630 23-02-2019 15:45:00 10.8 C 43 % -1.26 C
1631 23-02-2019 15:50:00 10.8 C 42 % -1.58 C
1632 23-02-2019 15:55:00 10.9 C 44 % -0.86 C
1633 23-02-2019 16:00:00 10.9 C 43 % -1.17 C
1634 23-02-2019 16:05:00 10.9 C 43 % -1.17 C
1635 23-02-2019 16:10:00 11.1 C 46 % -0.07 C
1636 23-02-2019 16:15:00 11.1 C 52 % 1.63 C
1637 23-02-2019 16:20:00 11 C 43 % -1.08 C
1638 23-02-2019 16:25:00 10.9 C 42 % -1.49 C
1639 23-02-2019 16:30:00 10.8 C 44 % -0.95 C
1640 23-02-2019 16:35:00 10.8 C 47 % -0.04 C
1641 23-02-2019 16:40:00 10.6 C 46 % -0.52 C
1642 23-02-2019 16:45:00 10.4 C 52 % 0.98 C
1643 23-02-2019 16:50:00 10.2 C 53 % 1.06 C
1644 23-02-2019 16:55:00 9.9 C 54 % 1.04 C
1645 23-02-2019 17:00:00 9.6 C 56 % 1.27 C
1646 23-02-2019 17:05:00 9.3 C 59 % 1.71 C
1647 23-02-2019 17:10:00 8.9 C 61 % 1.8 C
1648 23-02-2019 17:15:00 8.7 C 62 % 1.84 C
1649 23-02-2019 17:20:00 8.3 C 62 % 1.46 C
1650 23-02-2019 17:25:00 8 C 64 % 1.62 C
Sensor: Nr:Datum:Temp:Feuchte:Taupunkt:
Aussen-T/F 1651 23-02-2019 17:30:00 7.8 C 64 % 1.43 C
1652 23-02-2019 17:35:00 7.5 C 65 % 1.36 C
1653 23-02-2019 17:40:00 7.3 C 65 % 1.17 C
1654 23-02-2019 17:45:00 7.1 C 66 % 1.19 C
1655 23-02-2019 17:50:00 6.8 C 67 % 1.11 C
1656 23-02-2019 17:55:00 6.6 C 67 % 0.92 C
1657 23-02-2019 18:00:00 6.4 C 69 % 1.14 C
1658 23-02-2019 18:05:00 6.2 C 70 % 1.15 C
1659 23-02-2019 18:10:00 5.9 C 70 % 0.86 C
1660 23-02-2019 18:15:00 5.7 C 70 % 0.67 C
1661 23-02-2019 18:20:00 5.6 C 71 % 0.77 C
1662 23-02-2019 18:25:00 5.4 C 71 % 0.58 C
1663 23-02-2019 18:30:00 5.3 C 71 % 0.48 C
1664 23-02-2019 18:35:00 5.2 C 71 % 0.38 C
1665 23-02-2019 18:40:00 5.1 C 72 % 0.48 C
1666 23-02-2019 18:45:00 5 C 72 % 0.38 C
1667 23-02-2019 18:50:00 4.9 C 72 % 0.29 C
1668 23-02-2019 18:55:00 4.8 C 72 % 0.19 C
1669 23-02-2019 19:00:00 4.7 C 73 % 0.28 C
1670 23-02-2019 19:05:00 4.7 C 73 % 0.28 C
1671 23-02-2019 19:10:00 4.6 C 73 % 0.19 C
1672 23-02-2019 19:15:00 4.6 C 74 % 0.38 C
1673 23-02-2019 19:20:00 4.5 C 74 % 0.28 C
1674 23-02-2019 19:25:00 4.4 C 73 % 0 C
1675 23-02-2019 19:30:00 4.3 C 74 % 0.09 C
Sensor: Nr:Datum:Temp:Feuchte:Taupunkt:
Aussen-T/F 1676 23-02-2019 19:35:00 4.3 C 75 % 0.27 C
1677 23-02-2019 19:40:00 4.2 C 75 % 0.17 C
1678 23-02-2019 19:45:00 4.1 C 74 % -0.11 C
1679 23-02-2019 19:50:00 4.1 C 75 % 0.08 C
1680 23-02-2019 19:55:00 3.9 C 75 % -0.12 C
1681 23-02-2019 20:00:00 3.9 C 75 % -0.12 C
1682 23-02-2019 20:05:00 3.8 C 75 % -0.21 C
1683 23-02-2019 20:10:00 3.7 C 75 % -0.31 C
1684 23-02-2019 20:15:00 3.7 C 75 % -0.31 C
1685 23-02-2019 20:20:00 3.6 C 75 % -0.41 C
1686 23-02-2019 20:25:00 3.5 C 76 % -0.32 C
1687 23-02-2019 20:30:00 3.4 C 76 % -0.42 C
1688 23-02-2019 20:35:00 3.3 C 77 % -0.34 C
1689 23-02-2019 20:40:00 3.2 C 77 % -0.43 C
1690 23-02-2019 20:45:00 3 C 77 % -0.63 C
1691 23-02-2019 20:50:00 2.8 C 77 % -0.82 C
1692 23-02-2019 20:55:00 2.7 C 78 % -0.74 C
1693 23-02-2019 21:00:00 2.6 C 78 % -0.84 C
1694 23-02-2019 21:05:00 2.4 C 79 % -0.86 C
1695 23-02-2019 21:10:00 2.3 C 78 % -1.13 C
1696 23-02-2019 21:15:00 2.2 C 78 % -1.23 C
1697 23-02-2019 21:20:00 2.2 C 79 % -1.05 C
1698 23-02-2019 21:25:00 2.1 C 79 % -1.15 C
1699 23-02-2019 21:30:00 2.1 C 80 % -0.98 C
1700 23-02-2019 21:35:00 2 C 79 % -1.25 C
Sensor: Nr:Datum:Temp:Feuchte:Taupunkt:
Aussen-T/F 1701 23-02-2019 21:40:00 1.8 C 80 % -1.27 C
1702 23-02-2019 21:45:00 1.7 C 80 % -1.37 C
1703 23-02-2019 21:50:00 1.6 C 81 % -1.3 C
1704 23-02-2019 21:55:00 1.4 C 81 % -1.49 C
1705 23-02-2019 22:00:00 1.3 C 81 % -1.59 C
1706 23-02-2019 22:05:00 1.2 C 82 % -1.52 C
1707 23-02-2019 22:10:00 1.2 C 82 % -1.52 C
1708 23-02-2019 22:15:00 1.1 C 83 % -1.46 C
1709 23-02-2019 22:20:00 1.1 C 84 % -1.29 C
1710 23-02-2019 22:25:00 1.1 C 84 % -1.29 C
1711 23-02-2019 22:30:00 1.1 C 83 % -1.46 C
1712 23-02-2019 22:35:00 0.9 C 83 % -1.65 C
1713 23-02-2019 22:40:00 0.8 C 83 % -1.75 C
1714 23-02-2019 22:45:00 0.7 C 83 % -1.85 C
1715 23-02-2019 22:50:00 0.7 C 83 % -1.85 C
1716 23-02-2019 22:55:00 0.6 C 83 % -1.95 C
1717 23-02-2019 23:00:00 0.6 C 84 % -1.78 C
1718 23-02-2019 23:05:00 0.6 C 84 % -1.78 C
1719 23-02-2019 23:10:00 0.5 C 83 % -2.04 C
1720 23-02-2019 23:15:00 0.4 C 83 % -2.14 C
1721 23-02-2019 23:20:00 0.4 C 84 % -1.98 C
1722 23-02-2019 23:25:00 0.5 C 83 % -2.04 C
1723 23-02-2019 23:30:00 0.4 C 83 % -2.14 C
1724 23-02-2019 23:35:00 0.5 C 83 % -2.04 C
1725 23-02-2019 23:40:00 0.4 C 83 % -2.14 C
Sensor: Nr:Datum:Temp:Feuchte:Taupunkt:
Aussen-T/F 1726 23-02-2019 23:45:00 0.4 C 84 % -1.98 C
1727 23-02-2019 23:50:00 0.4 C 84 % -1.98 C
1728 23-02-2019 23:55:00 0.4 C 84 % -1.98 C
1729 24-02-2019 00:00:00 0.2 C 84 % -2.18 C
1730 24-02-2019 00:05:00 0.1 C 84 % -2.27 C
1731 24-02-2019 00:10:00 -0.1 C 84 % -2.47 C
1732 24-02-2019 00:15:00 -0.2 C 85 % -2.41 C
1733 24-02-2019 00:20:00 -0.3 C 85 % -2.51 C
1734 24-02-2019 00:25:00 -0.3 C 85 % -2.51 C
1735 24-02-2019 00:30:00 -0.3 C 86 % -2.35 C
1736 24-02-2019 00:35:00 -0.3 C 86 % -2.35 C
1737 24-02-2019 00:40:00 -0.4 C 86 % -2.45 C
1738 24-02-2019 00:45:00 -0.4 C 86 % -2.45 C
1739 24-02-2019 00:50:00 -0.5 C 87 % -2.39 C
1740 24-02-2019 00:55:00 -0.6 C 87 % -2.49 C
1741 24-02-2019 01:00:00 -0.6 C 87 % -2.49 C
1742 24-02-2019 01:05:00 -0.6 C 87 % -2.49 C
1743 24-02-2019 01:10:00 -0.6 C 87 % -2.49 C
1744 24-02-2019 01:15:00 -0.6 C 87 % -2.49 C
1745 24-02-2019 01:20:00 -0.6 C 87 % -2.49 C
1746 24-02-2019 01:25:00 -0.6 C 87 % -2.49 C
1747 24-02-2019 01:30:00 -0.7 C 87 % -2.59 C
1748 24-02-2019 01:35:00 -0.7 C 87 % -2.59 C
1749 24-02-2019 01:40:00 -0.7 C 87 % -2.59 C
1750 24-02-2019 01:45:00 -0.7 C 87 % -2.59 C
Sensor: Nr:Datum:Temp:Feuchte:Taupunkt:
Aussen-T/F 1751 24-02-2019 01:50:00 -0.8 C 87 % -2.69 C
1752 24-02-2019 01:55:00 -0.8 C 87 % -2.69 C
1753 24-02-2019 02:00:00 -0.9 C 87 % -2.79 C
1754 24-02-2019 02:05:00 -1 C 87 % -2.88 C
1755 24-02-2019 02:10:00 -1.1 C 88 % -2.83 C
1756 24-02-2019 02:15:00 -1.1 C 88 % -2.83 C
1757 24-02-2019 02:20:00 -1.1 C 88 % -2.83 C
1758 24-02-2019 02:25:00 -1.2 C 88 % -2.93 C
1759 24-02-2019 02:30:00 -1.2 C 88 % -2.93 C
1760 24-02-2019 02:35:00 -1.2 C 88 % -2.93 C
1761 24-02-2019 02:40:00 -1.3 C 88 % -3.03 C
1762 24-02-2019 02:45:00 -1.3 C 88 % -3.03 C
1763 24-02-2019 02:50:00 -1.3 C 88 % -3.03 C
1764 24-02-2019 02:55:00 -1.3 C 89 % -2.88 C
1765 24-02-2019 03:00:00 -1.3 C 89 % -2.88 C
1766 24-02-2019 03:05:00 -1.4 C 89 % -2.97 C
1767 24-02-2019 03:10:00 -1.4 C 89 % -2.97 C
1768 24-02-2019 03:15:00 -1.4 C 89 % -2.97 C
1769 24-02-2019 03:20:00 -1.4 C 89 % -2.97 C
1770 24-02-2019 03:25:00 -1.5 C 89 % -3.07 C
1771 24-02-2019 03:30:00 -1.5 C 89 % -3.07 C
1772 24-02-2019 03:35:00 -1.6 C 89 % -3.17 C
1773 24-02-2019 03:40:00 -1.6 C 89 % -3.17 C
1774 24-02-2019 03:45:00 -1.6 C 89 % -3.17 C
1775 24-02-2019 03:50:00 -1.6 C 90 % -3.02 C
Sensor: Nr:Datum:Temp:Feuchte:Taupunkt:
Aussen-T/F 1776 24-02-2019 03:55:00 -1.7 C 90 % -3.12 C
1777 24-02-2019 04:00:00 -1.7 C 90 % -3.12 C
1778 24-02-2019 04:05:00 -1.7 C 90 % -3.12 C
1779 24-02-2019 04:10:00 -1.7 C 90 % -3.12 C
1780 24-02-2019 04:15:00 -1.6 C 90 % -3.02 C
1781 24-02-2019 04:20:00 -1.7 C 90 % -3.12 C
1782 24-02-2019 04:25:00 -1.7 C 90 % -3.12 C
1783 24-02-2019 04:30:00 -1.7 C 90 % -3.12 C
1784 24-02-2019 04:35:00 -1.8 C 90 % -3.22 C
1785 24-02-2019 04:40:00 -1.8 C 90 % -3.22 C
1786 24-02-2019 04:45:00 -1.8 C 90 % -3.22 C
1787 24-02-2019 04:50:00 -1.8 C 90 % -3.22 C
1788 24-02-2019 04:55:00 -1.8 C 90 % -3.22 C
1789 24-02-2019 05:00:00 -1.8 C 90 % -3.22 C
1790 24-02-2019 05:05:00 -1.8 C 90 % -3.22 C
1791 24-02-2019 05:10:00 -1.8 C 90 % -3.22 C
1792 24-02-2019 05:15:00 -1.8 C 90 % -3.22 C
1793 24-02-2019 05:20:00 -1.8 C 90 % -3.22 C
1794 24-02-2019 05:25:00 -1.9 C 90 % -3.32 C
1795 24-02-2019 05:30:00 -1.9 C 90 % -3.32 C
1796 24-02-2019 05:35:00 -1.9 C 90 % -3.32 C
1797 24-02-2019 05:40:00 -2 C 90 % -3.42 C
1798 24-02-2019 05:45:00 -2 C 90 % -3.42 C
1799 24-02-2019 05:50:00 -1.9 C 90 % -3.32 C
1800 24-02-2019 05:55:00 -1.9 C 90 % -3.32 C
Sensor: Nr:Datum:Temp:Feuchte:Taupunkt:
Aussen-T/F 1801 24-02-2019 06:00:00 -1.9 C 90 % -3.32 C
1802 24-02-2019 06:05:00 -1.9 C 90 % -3.32 C
1803 24-02-2019 06:10:00 -2 C 90 % -3.42 C
1804 24-02-2019 06:15:00 -2 C 90 % -3.42 C
1805 24-02-2019 06:20:00 -2.1 C 90 % -3.52 C
1806 24-02-2019 06:25:00 -2.1 C 90 % -3.52 C
1807 24-02-2019 06:30:00 -2.1 C 91 % -3.37 C
1808 24-02-2019 06:35:00 -2.1 C 91 % -3.37 C
1809 24-02-2019 06:40:00 -2.1 C 91 % -3.37 C
1810 24-02-2019 06:45:00 -2.1 C 91 % -3.37 C
1811 24-02-2019 06:50:00 -2.2 C 91 % -3.47 C
1812 24-02-2019 06:55:00 -2.2 C 91 % -3.47 C
1813 24-02-2019 07:00:00 -2.2 C 91 % -3.47 C
1814 24-02-2019 07:05:00 -2.3 C 91 % -3.57 C
1815 24-02-2019 07:10:00 -2.3 C 91 % -3.57 C
1816 24-02-2019 07:15:00 -2.3 C 91 % -3.57 C
1817 24-02-2019 07:20:00 -2.4 C 91 % -3.66 C
1818 24-02-2019 07:25:00 -2.4 C 91 % -3.66 C
1819 24-02-2019 07:30:00 -2.4 C 91 % -3.66 C
1820 24-02-2019 07:35:00 -2.4 C 91 % -3.66 C
1821 24-02-2019 07:40:00 -2.4 C 91 % -3.66 C
1822 24-02-2019 07:45:00 -2.4 C 92 % -3.52 C
1823 24-02-2019 07:50:00 -2.4 C 92 % -3.52 C
1824 24-02-2019 07:55:00 -2.4 C 92 % -3.52 C
1825 24-02-2019 08:00:00 -2.3 C 92 % -3.42 C
Sensor: Nr:Datum:Temp:Feuchte:Taupunkt:
Aussen-T/F 1826 24-02-2019 08:05:00 -2.3 C 92 % -3.42 C
1827 24-02-2019 08:10:00 -2.2 C 92 % -3.32 C
1828 24-02-2019 08:15:00 -2.2 C 92 % -3.32 C
1829 24-02-2019 08:20:00 -2.2 C 92 % -3.32 C
1830 24-02-2019 08:25:00 -2.1 C 92 % -3.22 C
1831 24-02-2019 08:30:00 -2.1 C 92 % -3.22 C
1832 24-02-2019 08:35:00 -2 C 92 % -3.12 C
1833 24-02-2019 08:40:00 -2 C 92 % -3.12 C
1834 24-02-2019 08:45:00 -2 C 92 % -3.12 C
1835 24-02-2019 08:50:00 -2 C 92 % -3.12 C
1836 24-02-2019 08:55:00 -1.9 C 92 % -3.02 C
1837 24-02-2019 09:00:00 -1.9 C 92 % -3.02 C
1838 24-02-2019 09:05:00 -1.8 C 92 % -2.92 C
1839 24-02-2019 09:10:00 -1.8 C 92 % -2.92 C
1840 24-02-2019 09:15:00 -1.7 C 92 % -2.83 C
1841 24-02-2019 09:20:00 -1.6 C 92 % -2.73 C
1842 24-02-2019 09:25:00 -1.6 C 92 % -2.73 C
1843 24-02-2019 09:30:00 -1.5 C 92 % -2.63 C
1844 24-02-2019 09:35:00 -1.4 C 92 % -2.53 C
1845 24-02-2019 09:40:00 -1.3 C 92 % -2.43 C
1846 24-02-2019 09:45:00 -1.2 C 92 % -2.33 C
1847 24-02-2019 09:50:00 -1.1 C 92 % -2.23 C
1848 24-02-2019 09:55:00 -1 C 91 % -2.28 C
1849 24-02-2019 10:00:00 -0.9 C 91 % -2.18 C
1850 24-02-2019 10:05:00 -0.8 C 91 % -2.08 C
Sensor: Nr:Datum:Temp:Feuchte:Taupunkt:
Aussen-T/F 1851 24-02-2019 10:10:00 -0.6 C 90 % -2.03 C
1852 24-02-2019 10:15:00 -0.4 C 90 % -1.84 C
1853 24-02-2019 10:20:00 -0.2 C 90 % -1.64 C
1854 24-02-2019 10:25:00 0 C 89 % -1.59 C
1855 24-02-2019 10:30:00 0.3 C 89 % -1.29 C
1856 24-02-2019 10:35:00 0.7 C 88 % -1.05 C
1857 24-02-2019 10:40:00 1 C 88 % -0.76 C
1858 24-02-2019 10:45:00 1.4 C 87 % -0.52 C
1859 24-02-2019 10:50:00 1.7 C 86 % -0.38 C
1860 24-02-2019 10:55:00 2.2 C 85 % -0.05 C
1861 24-02-2019 11:00:00 2.6 C 83 % 0.01 C
1862 24-02-2019 11:05:00 2.9 C 82 % 0.14 C
1863 24-02-2019 11:10:00 3.2 C 82 % 0.43 C
1864 24-02-2019 11:15:00 3.4 C 81 % 0.46 C
1865 24-02-2019 11:20:00 3.7 C 80 % 0.58 C
1866 24-02-2019 11:25:00 3.9 C 79 % 0.6 C
1867 24-02-2019 11:30:00 4.2 C 76 % 0.36 C
1868 24-02-2019 11:35:00 4.6 C 75 % 0.56 C
1869 24-02-2019 11:40:00 4.8 C 76 % 0.94 C
1870 24-02-2019 11:45:00 5.1 C 74 % 0.86 C
1871 24-02-2019 11:50:00 5.3 C 74 % 1.05 C
1872 24-02-2019 11:55:00 5.4 C 73 % 0.96 C
1873 24-02-2019 12:00:00 5.6 C 73 % 1.15 C
1874 24-02-2019 12:05:00 5.7 C 72 % 1.06 C
1875 24-02-2019 12:10:00 5.9 C 72 % 1.25 C
Sensor: Nr:Datum:Temp:Feuchte:Taupunkt:
Aussen-T/F 1876 24-02-2019 12:15:00 6.3 C 70 % 1.24 C
1877 24-02-2019 12:20:00 6.6 C 69 % 1.33 C
1878 24-02-2019 12:25:00 6.9 C 68 % 1.41 C
1879 24-02-2019 12:30:00 7.4 C 67 % 1.69 C
1880 24-02-2019 12:35:00 8.1 C 66 % 2.14 C
1881 24-02-2019 12:40:00 8.6 C 63 % 1.97 C
1882 24-02-2019 12:45:00 8.8 C 58 % 1 C
1883 24-02-2019 12:50:00 9.1 C 58 % 1.29 C
1884 24-02-2019 12:55:00 9.2 C 57 % 1.14 C
1885 24-02-2019 13:00:00 9.2 C 55 % 0.64 C
1886 24-02-2019 13:05:00 9.3 C 49 % -0.85 C
1887 24-02-2019 13:10:00 9.4 C 48 % -1.04 C
1888 24-02-2019 13:15:00 9.7 C 46 % -1.34 C
1889 24-02-2019 13:20:00 9.9 C 42 % -2.39 C
1890 24-02-2019 13:25:00 10.3 C 45 % -1.1 C
1891 24-02-2019 13:30:00 10.6 C 44 % -1.13 C
1892 24-02-2019 13:35:00 10.9 C 44 % -0.86 C
1893 24-02-2019 13:40:00 11.2 C 40 % -1.88 C
1894 24-02-2019 13:45:00 11.4 C 40 % -1.7 C
1895 24-02-2019 13:50:00 11.7 C 40 % -1.43 C
1896 24-02-2019 13:55:00 11.9 C 37 % -2.31 C
1897 24-02-2019 14:00:00 11.9 C 35 % -3.05 C
1898 24-02-2019 14:05:00 11.9 C 36 % -2.68 C
1899 24-02-2019 14:10:00 11.9 C 36 % -2.68 C
1900 24-02-2019 14:15:00 11.9 C 36 % -2.68 C
Sensor: Nr:Datum:Temp:Feuchte:Taupunkt:
Aussen-T/F 1901 24-02-2019 14:20:00 11.9 C 38 % -1.95 C
1902 24-02-2019 14:25:00 11.8 C 37 % -2.4 C
1903 24-02-2019 14:30:00 11.8 C 37 % -2.4 C
1904 24-02-2019 14:35:00 11.8 C 38 % -2.04 C
1905 24-02-2019 14:40:00 11.8 C 40 % -1.34 C
1906 24-02-2019 14:45:00 11.9 C 36 % -2.68 C
1907 24-02-2019 14:50:00 12 C 35 % -2.97 C
1908 24-02-2019 14:55:00 12.1 C 34 % -3.27 C
1909 24-02-2019 15:00:00 12.2 C 36 % -2.41 C
1910 24-02-2019 15:05:00 12.3 C 35 % -2.7 C
1911 24-02-2019 15:10:00 12.4 C 35 % -2.61 C
1912 24-02-2019 15:15:00 12.4 C 35 % -2.61 C
1913 24-02-2019 15:20:00 12.5 C 34 % -2.91 C
1914 24-02-2019 15:25:00 12.6 C 36 % -2.06 C
1915 24-02-2019 15:30:00 12.6 C 39 % -0.97 C
1916 24-02-2019 15:35:00 12.6 C 44 % 0.69 C
1917 24-02-2019 15:40:00 12.4 C 42 % -0.14 C
1918 24-02-2019 15:45:00 12.4 C 44 % 0.5 C
1919 24-02-2019 15:50:00 12.3 C 44 % 0.41 C
1920 24-02-2019 15:55:00 12.3 C 44 % 0.41 C
1921 24-02-2019 16:00:00 12.3 C 45 % 0.72 C
1922 24-02-2019 16:05:00 12.2 C 46 % 0.94 C
1923 24-02-2019 16:10:00 12.3 C 41 % -0.56 C
1924 24-02-2019 16:15:00 12.4 C 44 % 0.5 C
1925 24-02-2019 16:20:00 12.3 C 45 % 0.72 C
Sensor: Nr:Datum:Temp:Feuchte:Taupunkt:
Aussen-T/F 1926 24-02-2019 16:25:00 12.2 C 44 % 0.32 C
1927 24-02-2019 16:30:00 11.9 C 46 % 0.66 C
1928 24-02-2019 16:35:00 11.6 C 47 % 0.69 C
1929 24-02-2019 16:40:00 11.3 C 48 % 0.7 C
1930 24-02-2019 16:45:00 11.2 C 50 % 1.18 C
1931 24-02-2019 16:50:00 11.1 C 51 % 1.36 C
1932 24-02-2019 16:55:00 10.9 C 51 % 1.17 C
1933 24-02-2019 17:00:00 10.8 C 52 % 1.35 C
1934 24-02-2019 17:05:00 10.7 C 52 % 1.26 C
1935 24-02-2019 17:10:00 10.7 C 52 % 1.26 C
1936 24-02-2019 17:15:00 10.5 C 52 % 1.07 C
1937 24-02-2019 17:20:00 10.4 C 52 % 0.98 C
1938 24-02-2019 17:25:00 10.3 C 52 % 0.89 C
1939 24-02-2019 17:30:00 10.3 C 52 % 0.89 C
1940 24-02-2019 17:35:00 10.3 C 52 % 0.89 C
1941 24-02-2019 17:40:00 10.2 C 53 % 1.06 C
1942 24-02-2019 17:45:00 10 C 53 % 0.87 C
1943 24-02-2019 17:50:00 9.8 C 53 % 0.69 C
1944 24-02-2019 17:55:00 9.6 C 54 % 0.76 C
1945 24-02-2019 18:00:00 9.3 C 55 % 0.74 C
1946 24-02-2019 18:05:00 9.1 C 56 % 0.8 C
1947 24-02-2019 18:10:00 8.8 C 56 % 0.52 C
1948 24-02-2019 18:15:00 8.7 C 56 % 0.43 C
1949 24-02-2019 18:20:00 8.6 C 56 % 0.33 C
1950 24-02-2019 18:25:00 8.4 C 56 % 0.15 C
Sensor: Nr:Datum:Temp:Feuchte:Taupunkt:
Aussen-T/F 1951 24-02-2019 18:30:00 8.4 C 57 % 0.39 C
1952 24-02-2019 18:35:00 8.3 C 56 % 0.05 C
1953 24-02-2019 18:40:00 8.2 C 57 % 0.2 C
1954 24-02-2019 18:45:00 8 C 58 % 0.25 C
1955 24-02-2019 18:50:00 7.8 C 59 % 0.3 C
1956 24-02-2019 18:55:00 7.7 C 58 % -0.03 C
1957 24-02-2019 19:00:00 7.6 C 59 % 0.11 C
1958 24-02-2019 19:05:00 7.4 C 59 % -0.07 C
1959 24-02-2019 19:10:00 7.2 C 60 % -0.03 C
1960 24-02-2019 19:15:00 7.2 C 60 % -0.03 C
1961 24-02-2019 19:20:00 7.1 C 59 % -0.36 C
1962 24-02-2019 19:25:00 7 C 62 % 0.23 C
1963 24-02-2019 19:30:00 6.8 C 61 % -0.18 C
1964 24-02-2019 19:35:00 6.7 C 61 % -0.28 C
1965 24-02-2019 19:40:00 6.6 C 62 % -0.15 C
1966 24-02-2019 19:45:00 6.4 C 62 % -0.34 C
1967 24-02-2019 19:50:00 6.3 C 64 % 0 C
1968 24-02-2019 19:55:00 6.1 C 64 % -0.19 C
1969 24-02-2019 20:00:00 5.9 C 62 % -0.81 C
1970 24-02-2019 20:05:00 5.8 C 65 % -0.26 C
1971 24-02-2019 20:10:00 5.7 C 64 % -0.56 C
1972 24-02-2019 20:15:00 5.5 C 64 % -0.75 C
1973 24-02-2019 20:20:00 5.2 C 65 % -0.83 C
1974 24-02-2019 20:25:00 4.9 C 67 % -0.7 C
1975 24-02-2019 20:30:00 4.6 C 69 % -0.58 C
Sensor: Nr:Datum:Temp:Feuchte:Taupunkt:
Aussen-T/F 1976 24-02-2019 20:35:00 4.4 C 68 % -0.98 C
1977 24-02-2019 20:40:00 4.3 C 67 % -1.27 C
1978 24-02-2019 20:45:00 4.4 C 68 % -0.98 C
1979 24-02-2019 20:50:00 4.3 C 68 % -1.07 C
1980 24-02-2019 20:55:00 4.2 C 70 % -0.77 C
1981 24-02-2019 21:00:00 4.1 C 71 % -0.67 C
1982 24-02-2019 21:05:00 3.9 C 70 % -1.06 C
1983 24-02-2019 21:10:00 3.8 C 71 % -0.96 C
1984 24-02-2019 21:15:00 3.7 C 71 % -1.06 C
1985 24-02-2019 21:20:00 3.7 C 71 % -1.06 C
1986 24-02-2019 21:25:00 3.5 C 72 % -1.06 C
1987 24-02-2019 21:30:00 3.3 C 71 % -1.44 C
1988 24-02-2019 21:35:00 3.1 C 72 % -1.45 C
1989 24-02-2019 21:40:00 2.9 C 73 % -1.45 C
1990 24-02-2019 21:45:00 2.8 C 73 % -1.55 C
1991 24-02-2019 21:50:00 2.8 C 72 % -1.73 C
1992 24-02-2019 21:55:00 2.8 C 71 % -1.92 C
1993 24-02-2019 22:00:00 2.8 C 71 % -1.92 C
1994 24-02-2019 22:05:00 2.8 C 74 % -1.36 C
1995 24-02-2019 22:10:00 2.6 C 76 % -1.19 C
1996 24-02-2019 22:15:00 2.5 C 77 % -1.11 C
1997 24-02-2019 22:20:00 2.4 C 76 % -1.39 C
1998 24-02-2019 22:25:00 2.4 C 76 % -1.39 C
1999 24-02-2019 22:30:00 2.4 C 74 % -1.75 C
2000 24-02-2019 22:35:00 2.5 C 74 % -1.65 C
Sensor: Nr:Datum:Temp:Feuchte:Taupunkt:
Aussen-T/F 2001 24-02-2019 22:40:00 2.6 C 74 % -1.56 C
2002 24-02-2019 22:45:00 2.6 C 74 % -1.56 C
2003 24-02-2019 22:50:00 2.5 C 74 % -1.65 C
2004 24-02-2019 22:55:00 2.4 C 74 % -1.75 C
2005 24-02-2019 23:00:00 2.2 C 75 % -1.76 C
2006 24-02-2019 23:05:00 2.1 C 76 % -1.68 C
2007 24-02-2019 23:10:00 1.9 C 77 % -1.69 C
2008 24-02-2019 23:15:00 1.7 C 78 % -1.71 C
2009 24-02-2019 23:20:00 1.6 C 79 % -1.64 C
2010 24-02-2019 23:25:00 1.5 C 79 % -1.74 C
2011 24-02-2019 23:30:00 1.6 C 78 % -1.81 C
2012 24-02-2019 23:35:00 1.7 C 77 % -1.89 C
2013 24-02-2019 23:40:00 1.8 C 77 % -1.79 C
2014 24-02-2019 23:45:00 1.8 C 77 % -1.79 C
2015 24-02-2019 23:50:00 1.9 C 77 % -1.69 C
2016 24-02-2019 23:55:00 2 C 76 % -1.77 C
2017 25-02-2019 00:00:00 1.8 C 76 % -1.97 C
2018 25-02-2019 00:05:00 1.8 C 77 % -1.79 C
2019 25-02-2019 00:10:00 1.7 C 77 % -1.89 C
2020 25-02-2019 00:15:00 1.4 C 77 % -2.18 C
2021 25-02-2019 00:20:00 1.3 C 78 % -2.1 C
2022 25-02-2019 00:25:00 1.2 C 79 % -2.03 C
2023 25-02-2019 00:30:00 1.1 C 80 % -1.96 C
2024 25-02-2019 00:35:00 0.9 C 80 % -2.15 C
2025 25-02-2019 00:40:00 0.8 C 80 % -2.25 C
Sensor: Nr:Datum:Temp:Feuchte:Taupunkt:
Aussen-T/F 2026 25-02-2019 00:45:00 0.7 C 81 % -2.18 C
2027 25-02-2019 00:50:00 0.7 C 81 % -2.18 C
2028 25-02-2019 00:55:00 0.7 C 81 % -2.18 C
2029 25-02-2019 01:00:00 1 C 81 % -1.88 C
2030 25-02-2019 01:05:00 1.2 C 80 % -1.86 C
2031 25-02-2019 01:10:00 1.3 C 80 % -1.76 C
2032 25-02-2019 01:15:00 1.1 C 80 % -1.96 C
2033 25-02-2019 01:20:00 0.9 C 81 % -1.98 C
2034 25-02-2019 01:25:00 0.9 C 81 % -1.98 C
2035 25-02-2019 01:30:00 0.9 C 81 % -1.98 C
2036 25-02-2019 01:35:00 1 C 81 % -1.88 C
2037 25-02-2019 01:40:00 0.9 C 81 % -1.98 C
2038 25-02-2019 01:45:00 0.7 C 81 % -2.18 C
2039 25-02-2019 01:50:00 0.6 C 82 % -2.11 C
2040 25-02-2019 01:55:00 0.6 C 83 % -1.95 C
2041 25-02-2019 02:00:00 0.7 C 83 % -1.85 C
2042 25-02-2019 02:05:00 0.6 C 82 % -2.11 C
2043 25-02-2019 02:10:00 0.4 C 82 % -2.3 C
2044 25-02-2019 02:15:00 0.3 C 83 % -2.24 C
2045 25-02-2019 02:20:00 0.2 C 83 % -2.34 C
2046 25-02-2019 02:25:00 0 C 83 % -2.53 C
2047 25-02-2019 02:30:00 -0.1 C 84 % -2.47 C
2048 25-02-2019 02:35:00 -0.1 C 84 % -2.47 C
2049 25-02-2019 02:40:00 -0.2 C 85 % -2.41 C
2050 25-02-2019 02:45:00 -0.2 C 85 % -2.41 C
Sensor: Nr:Datum:Temp:Feuchte:Taupunkt:
Aussen-T/F 2051 25-02-2019 02:50:00 -0.1 C 85 % -2.31 C
2052 25-02-2019 02:55:00 0.1 C 85 % -2.11 C
2053 25-02-2019 03:00:00 0.2 C 84 % -2.18 C
2054 25-02-2019 03:05:00 0.3 C 84 % -2.08 C
2055 25-02-2019 03:10:00 0.3 C 84 % -2.08 C
2056 25-02-2019 03:15:00 0.3 C 83 % -2.24 C
2057 25-02-2019 03:20:00 0.2 C 83 % -2.34 C
2058 25-02-2019 03:25:00 0.1 C 83 % -2.44 C
2059 25-02-2019 03:30:00 -0.1 C 83 % -2.63 C
2060 25-02-2019 03:35:00 -0.2 C 84 % -2.57 C
2061 25-02-2019 03:40:00 -0.2 C 85 % -2.41 C
2062 25-02-2019 03:45:00 -0.3 C 85 % -2.51 C
2063 25-02-2019 03:50:00 -0.3 C 85 % -2.51 C
2064 25-02-2019 03:55:00 -0.4 C 85 % -2.61 C
2065 25-02-2019 04:00:00 -0.5 C 85 % -2.71 C
2066 25-02-2019 04:05:00 -0.5 C 86 % -2.55 C
2067 25-02-2019 04:10:00 -0.5 C 86 % -2.55 C
2068 25-02-2019 04:15:00 -0.5 C 86 % -2.55 C
2069 25-02-2019 04:20:00 -0.6 C 86 % -2.65 C
2070 25-02-2019 04:25:00 -0.6 C 86 % -2.65 C
2071 25-02-2019 04:30:00 -0.6 C 86 % -2.65 C
2072 25-02-2019 04:35:00 -0.6 C 86 % -2.65 C
2073 25-02-2019 04:40:00 -0.6 C 86 % -2.65 C
2074 25-02-2019 04:45:00 -0.7 C 86 % -2.74 C
2075 25-02-2019 04:50:00 -0.7 C 87 % -2.59 C
Sensor: Nr:Datum:Temp:Feuchte:Taupunkt:
Aussen-T/F 2076 25-02-2019 04:55:00 -0.6 C 87 % -2.49 C
2077 25-02-2019 05:00:00 -0.6 C 87 % -2.49 C
2078 25-02-2019 05:05:00 -0.6 C 87 % -2.49 C
2079 25-02-2019 05:10:00 -0.6 C 87 % -2.49 C
2080 25-02-2019 05:15:00 -0.6 C 87 % -2.49 C
2081 25-02-2019 05:20:00 -0.7 C 87 % -2.59 C
2082 25-02-2019 05:25:00 -0.8 C 87 % -2.69 C
2083 25-02-2019 05:30:00 -0.8 C 87 % -2.69 C
2084 25-02-2019 05:35:00 -0.8 C 87 % -2.69 C
2085 25-02-2019 05:40:00 -0.9 C 87 % -2.79 C
2086 25-02-2019 05:45:00 -0.8 C 88 % -2.53 C
2087 25-02-2019 05:50:00 -0.7 C 88 % -2.44 C
2088 25-02-2019 05:55:00 -0.6 C 88 % -2.34 C
2089 25-02-2019 06:00:00 -0.6 C 88 % -2.34 C
2090 25-02-2019 06:05:00 -0.6 C 87 % -2.49 C
2091 25-02-2019 06:10:00 -0.7 C 87 % -2.59 C
2092 25-02-2019 06:15:00 -0.8 C 87 % -2.69 C
2093 25-02-2019 06:20:00 -0.8 C 88 % -2.53 C
2094 25-02-2019 06:25:00 -0.8 C 88 % -2.53 C
2095 25-02-2019 06:30:00 -0.9 C 88 % -2.63 C
2096 25-02-2019 06:35:00 -1 C 88 % -2.73 C
2097 25-02-2019 06:40:00 -1.1 C 88 % -2.83 C
2098 25-02-2019 06:45:00 -1.1 C 88 % -2.83 C
2099 25-02-2019 06:50:00 -1.1 C 89 % -2.68 C
2100 25-02-2019 06:55:00 -0.9 C 89 % -2.48 C
Sensor: Nr:Datum:Temp:Feuchte:Taupunkt:
Aussen-T/F 2101 25-02-2019 07:00:00 -0.9 C 88 % -2.63 C
2102 25-02-2019 07:05:00 -1 C 88 % -2.73 C
2103 25-02-2019 07:10:00 -1.1 C 88 % -2.83 C
2104 25-02-2019 07:15:00 -1.1 C 88 % -2.83 C
2105 25-02-2019 07:20:00 -1.2 C 88 % -2.93 C
2106 25-02-2019 07:25:00 -1.2 C 88 % -2.93 C
2107 25-02-2019 07:30:00 -1.3 C 88 % -3.03 C
2108 25-02-2019 07:35:00 -1.3 C 88 % -3.03 C
2109 25-02-2019 07:40:00 -1.3 C 88 % -3.03 C
2110 25-02-2019 07:45:00 -1.4 C 88 % -3.13 C
2111 25-02-2019 07:50:00 -1.4 C 89 % -2.97 C
2112 25-02-2019 07:55:00 -1.4 C 89 % -2.97 C
2113 25-02-2019 08:00:00 -1.4 C 89 % -2.97 C
2114 25-02-2019 08:05:00 -1.3 C 90 % -2.73 C
2115 25-02-2019 08:10:00 -1.2 C 90 % -2.63 C
2116 25-02-2019 08:15:00 -1.2 C 90 % -2.63 C
2117 25-02-2019 08:20:00 -1.2 C 89 % -2.78 C
2118 25-02-2019 08:25:00 -1.3 C 89 % -2.88 C
2119 25-02-2019 08:30:00 -1.2 C 90 % -2.63 C
2120 25-02-2019 08:35:00 -1.2 C 90 % -2.63 C
2121 25-02-2019 08:40:00 -1.1 C 90 % -2.53 C
2122 25-02-2019 08:45:00 -1.1 C 90 % -2.53 C
2123 25-02-2019 08:50:00 -1.1 C 90 % -2.53 C
2124 25-02-2019 08:55:00 -1.1 C 90 % -2.53 C
2125 25-02-2019 09:00:00 -0.9 C 90 % -2.33 C
Sensor: Nr:Datum:Temp:Feuchte:Taupunkt:
Aussen-T/F 2126 25-02-2019 09:05:00 -0.9 C 89 % -2.48 C
2127 25-02-2019 09:10:00 -0.9 C 89 % -2.48 C
2128 25-02-2019 09:15:00 -0.9 C 89 % -2.48 C
2129 25-02-2019 09:20:00 -0.8 C 89 % -2.38 C
2130 25-02-2019 09:25:00 -0.8 C 89 % -2.38 C
2131 25-02-2019 09:30:00 -0.7 C 89 % -2.28 C
2132 25-02-2019 09:35:00 -0.6 C 89 % -2.18 C
2133 25-02-2019 09:40:00 -0.6 C 89 % -2.18 C
2134 25-02-2019 09:45:00 -0.5 C 88 % -2.24 C
2135 25-02-2019 09:50:00 -0.4 C 88 % -2.14 C
2136 25-02-2019 09:55:00 -0.3 C 88 % -2.04 C
2137 25-02-2019 10:00:00 -0.3 C 88 % -2.04 C
2138 25-02-2019 10:05:00 -0.2 C 88 % -1.94 C
2139 25-02-2019 10:10:00 0 C 88 % -1.74 C
2140 25-02-2019 10:15:00 0.1 C 87 % -1.8 C
2141 25-02-2019 10:20:00 0.3 C 87 % -1.6 C
2142 25-02-2019 10:25:00 0.5 C 87 % -1.41 C
2143 25-02-2019 10:30:00 0.7 C 88 % -1.05 C
2144 25-02-2019 10:35:00 1 C 87 % -0.91 C
2145 25-02-2019 10:40:00 1.3 C 87 % -0.62 C
2146 25-02-2019 10:45:00 1.7 C 87 % -0.23 C
2147 25-02-2019 10:50:00 2.1 C 86 % 0.01 C
2148 25-02-2019 10:55:00 2.6 C 85 % 0.34 C
2149 25-02-2019 11:00:00 2.9 C 82 % 0.14 C
2150 25-02-2019 11:05:00 3.3 C 81 % 0.36 C
Sensor: Nr:Datum:Temp:Feuchte:Taupunkt:
Aussen-T/F 2151 25-02-2019 11:10:00 3.7 C 82 % 0.92 C
2152 25-02-2019 11:15:00 3.9 C 79 % 0.6 C
2153 25-02-2019 11:20:00 4.3 C 78 % 0.81 C
2154 25-02-2019 11:25:00 4.6 C 77 % 0.92 C
2155 25-02-2019 11:30:00 4.9 C 78 % 1.39 C
2156 25-02-2019 11:35:00 5.1 C 77 % 1.41 C
2157 25-02-2019 11:40:00 5.4 C 77 % 1.7 C
2158 25-02-2019 11:45:00 5.8 C 76 % 1.91 C
2159 25-02-2019 11:50:00 6 C 74 % 1.73 C
2160 25-02-2019 11:55:00 6.2 C 72 % 1.54 C
2161 25-02-2019 12:00:00 6.5 C 72 % 1.83 C
2162 25-02-2019 12:05:00 6.8 C 72 % 2.12 C
2163 25-02-2019 12:10:00 7.3 C 71 % 2.4 C
2164 25-02-2019 12:15:00 7.7 C 70 % 2.58 C
2165 25-02-2019 12:20:00 8.1 C 69 % 2.77 C
2166 25-02-2019 12:25:00 8.4 C 69 % 3.05 C
2167 25-02-2019 12:30:00 8.9 C 68 % 3.32 C
2168 25-02-2019 12:35:00 9.5 C 66 % 3.47 C
2169 25-02-2019 12:40:00 9.9 C 64 % 3.42 C
2170 25-02-2019 12:45:00 10.3 C 62 % 3.35 C
2171 25-02-2019 12:50:00 10.5 C 62 % 3.54 C
2172 25-02-2019 12:55:00 10.6 C 61 % 3.4 C
2173 25-02-2019 13:00:00 10.7 C 61 % 3.5 C
2174 25-02-2019 13:05:00 11 C 62 % 4.01 C
2175 25-02-2019 13:10:00 11.3 C 60 % 3.83 C
Sensor: Nr:Datum:Temp:Feuchte:Taupunkt:
Aussen-T/F 2176 25-02-2019 13:15:00 11.6 C 53 % 2.36 C
2177 25-02-2019 13:20:00 11.9 C 54 % 2.9 C
2178 25-02-2019 13:25:00 12.3 C 47 % 1.33 C
2179 25-02-2019 13:30:00 12.7 C 51 % 2.84 C
2180 25-02-2019 13:35:00 13.1 C 50 % 2.93 C
2181 25-02-2019 13:40:00 13.4 C 53 % 4.03 C
2182 25-02-2019 13:45:00 13.8 C 51 % 3.85 C
2183 25-02-2019 13:50:00 14.2 C 50 % 3.94 C
2184 25-02-2019 13:55:00 14.6 C 48 % 3.73 C
2185 25-02-2019 14:00:00 14.8 C 49 % 4.2 C
2186 25-02-2019 14:05:00 14.9 C 48 % 4 C
2187 25-02-2019 14:10:00 15 C 49 % 4.39 C
2188 25-02-2019 14:15:00 15.1 C 48 % 4.18 C
2189 25-02-2019 14:20:00 15 C 45 % 3.18 C
2190 25-02-2019 14:25:00 14.9 C 45 % 3.09 C
2191 25-02-2019 14:30:00 14.7 C 46 % 3.22 C
2192 25-02-2019 14:35:00 14.6 C 46 % 3.12 C
2193 25-02-2019 14:40:00 14.4 C 44 % 2.32 C
2194 25-02-2019 14:45:00 14.4 C 46 % 2.94 C
2195 25-02-2019 14:50:00 14.5 C 46 % 3.03 C
2196 25-02-2019 14:55:00 14.6 C 48 % 3.73 C
2197 25-02-2019 15:00:00 14.5 C 48 % 3.63 C
2198 25-02-2019 15:05:00 14.5 C 46 % 3.03 C
2199 25-02-2019 15:10:00 14.5 C 47 % 3.34 C
2200 25-02-2019 15:15:00 14.4 C 50 % 4.12 C
Sensor: Nr:Datum:Temp:Feuchte:Taupunkt:
Aussen-T/F 2201 25-02-2019 15:20:00 14.4 C 47 % 3.25 C
2202 25-02-2019 15:25:00 14.3 C 49 % 3.74 C
2203 25-02-2019 15:30:00 14.2 C 50 % 3.94 C
2204 25-02-2019 15:35:00 14 C 51 % 4.04 C
2205 25-02-2019 15:40:00 13.9 C 52 % 4.22 C
2206 25-02-2019 15:45:00 13.8 C 52 % 4.13 C
2207 25-02-2019 15:50:00 13.8 C 52 % 4.13 C
2208 25-02-2019 15:55:00 13.8 C 51 % 3.85 C
2209 25-02-2019 16:00:00 13.9 C 51 % 3.94 C
2210 25-02-2019 16:05:00 13.9 C 51 % 3.94 C
2211 25-02-2019 16:10:00 14.1 C 51 % 4.13 C
2212 25-02-2019 16:15:00 14.1 C 46 % 2.67 C
2213 25-02-2019 16:20:00 14.3 C 51 % 4.31 C
2214 25-02-2019 16:25:00 14.5 C 48 % 3.63 C
2215 25-02-2019 16:30:00 14.7 C 50 % 4.4 C
2216 25-02-2019 16:35:00 14.7 C 50 % 4.4 C
2217 25-02-2019 16:40:00 14.6 C 48 % 3.73 C
2218 25-02-2019 16:45:00 14.6 C 49 % 4.02 C
2219 25-02-2019 16:50:00 14.6 C 50 % 4.31 C
2220 25-02-2019 16:55:00 14.5 C 50 % 4.21 C
2221 25-02-2019 17:00:00 14.4 C 51 % 4.4 C
2222 25-02-2019 17:05:00 14.2 C 51 % 4.22 C
2223 25-02-2019 17:10:00 14.1 C 52 % 4.4 C
2224 25-02-2019 17:15:00 13.9 C 52 % 4.22 C
2225 25-02-2019 17:20:00 13.7 C 53 % 4.31 C
Sensor: Nr:Datum:Temp:Feuchte:Taupunkt:
Aussen-T/F 2226 25-02-2019 17:25:00 13.6 C 53 % 4.21 C
2227 25-02-2019 17:30:00 13.6 C 54 % 4.48 C
2228 25-02-2019 17:35:00 13.6 C 53 % 4.21 C
2229 25-02-2019 17:40:00 13.4 C 53 % 4.03 C
2230 25-02-2019 17:45:00 13.3 C 54 % 4.2 C
2231 25-02-2019 17:50:00 13.1 C 54 % 4.01 C
2232 25-02-2019 17:55:00 12.8 C 55 % 4 C
2233 25-02-2019 18:00:00 12.6 C 56 % 4.07 C
2234 25-02-2019 18:05:00 12.2 C 56 % 3.69 C
2235 25-02-2019 18:10:00 11.8 C 58 % 3.82 C
2236 25-02-2019 18:15:00 11.4 C 58 % 3.44 C
2237 25-02-2019 18:20:00 11.2 C 59 % 3.5 C
2238 25-02-2019 18:25:00 11 C 60 % 3.55 C
2239 25-02-2019 18:30:00 10.8 C 60 % 3.36 C
2240 25-02-2019 18:35:00 10.7 C 61 % 3.5 C
2241 25-02-2019 18:40:00 10.6 C 62 % 3.63 C
2242 25-02-2019 18:45:00 10.4 C 62 % 3.44 C
2243 25-02-2019 18:50:00 10.3 C 63 % 3.58 C
2244 25-02-2019 18:55:00 10.2 C 63 % 3.48 C
2245 25-02-2019 19:00:00 10 C 63 % 3.29 C
2246 25-02-2019 19:05:00 9.8 C 64 % 3.32 C
2247 25-02-2019 19:10:00 9.6 C 65 % 3.35 C
2248 25-02-2019 19:15:00 9.4 C 66 % 3.38 C
2249 25-02-2019 19:20:00 9.2 C 67 % 3.4 C
2250 25-02-2019 19:25:00 8.9 C 68 % 3.32 C
Sensor: Nr:Datum:Temp:Feuchte:Taupunkt:
Aussen-T/F 2251 25-02-2019 19:30:00 8.8 C 68 % 3.23 C
2252 25-02-2019 19:35:00 8.8 C 68 % 3.23 C
2253 25-02-2019 19:40:00 8.8 C 68 % 3.23 C
2254 25-02-2019 19:45:00 8.7 C 68 % 3.13 C
2255 25-02-2019 19:50:00 8.6 C 68 % 3.04 C
2256 25-02-2019 19:55:00 8.3 C 69 % 2.96 C
2257 25-02-2019 20:00:00 8.1 C 70 % 2.97 C
2258 25-02-2019 20:05:00 8 C 71 % 3.07 C
2259 25-02-2019 20:10:00 7.8 C 71 % 2.88 C
2260 25-02-2019 20:15:00 7.4 C 72 % 2.69 C
2261 25-02-2019 20:20:00 7.1 C 72 % 2.4 C
2262 25-02-2019 20:25:00 6.9 C 73 % 2.4 C
2263 25-02-2019 20:30:00 6.8 C 74 % 2.5 C
2264 25-02-2019 20:35:00 6.8 C 75 % 2.69 C
2265 25-02-2019 20:40:00 6.6 C 74 % 2.31 C
2266 25-02-2019 20:45:00 6.4 C 74 % 2.11 C
2267 25-02-2019 20:50:00 6.3 C 74 % 2.02 C
2268 25-02-2019 20:55:00 6.3 C 75 % 2.2 C
2269 25-02-2019 21:00:00 6.3 C 75 % 2.2 C
2270 25-02-2019 21:05:00 6.1 C 75 % 2.01 C
2271 25-02-2019 21:10:00 5.9 C 75 % 1.82 C
2272 25-02-2019 21:15:00 5.9 C 75 % 1.82 C
2273 25-02-2019 21:20:00 5.8 C 75 % 1.72 C
2274 25-02-2019 21:25:00 5.6 C 76 % 1.71 C
2275 25-02-2019 21:30:00 5.4 C 77 % 1.7 C
Sensor: Nr:Datum:Temp:Feuchte:Taupunkt:
Aussen-T/F 2276 25-02-2019 21:35:00 5.3 C 77 % 1.6 C
2277 25-02-2019 21:40:00 5.2 C 78 % 1.69 C
2278 25-02-2019 21:45:00 5.2 C 78 % 1.69 C
2279 25-02-2019 21:50:00 5.1 C 79 % 1.77 C
2280 25-02-2019 21:55:00 5.1 C 79 % 1.77 C
2281 25-02-2019 22:00:00 5 C 79 % 1.67 C
2282 25-02-2019 22:05:00 5 C 78 % 1.49 C
2283 25-02-2019 22:10:00 4.9 C 78 % 1.39 C
2284 25-02-2019 22:15:00 4.8 C 79 % 1.47 C
2285 25-02-2019 22:20:00 4.8 C 79 % 1.47 C
2286 25-02-2019 22:25:00 4.7 C 79 % 1.38 C
2287 25-02-2019 22:30:00 4.5 C 79 % 1.18 C
2288 25-02-2019 22:35:00 4.4 C 80 % 1.26 C
2289 25-02-2019 22:40:00 4.2 C 80 % 1.07 C
2290 25-02-2019 22:45:00 4.2 C 80 % 1.07 C
2291 25-02-2019 22:50:00 4.1 C 80 % 0.97 C
2292 25-02-2019 22:55:00 4 C 82 % 1.21 C
2293 25-02-2019 23:00:00 3.9 C 82 % 1.12 C
2294 25-02-2019 23:05:00 3.8 C 83 % 1.19 C
2295 25-02-2019 23:10:00 3.8 C 83 % 1.19 C
2296 25-02-2019 23:15:00 3.7 C 82 % 0.92 C
2297 25-02-2019 23:20:00 3.4 C 82 % 0.63 C
2298 25-02-2019 23:25:00 3.2 C 83 % 0.6 C
2299 25-02-2019 23:30:00 3.1 C 84 % 0.67 C
2300 25-02-2019 23:35:00 3 C 84 % 0.57 C
Sensor: Nr:Datum:Temp:Feuchte:Taupunkt:
Aussen-T/F 2301 25-02-2019 23:40:00 2.8 C 84 % 0.37 C
2302 25-02-2019 23:45:00 2.7 C 85 % 0.44 C
2303 25-02-2019 23:50:00 2.8 C 86 % 0.7 C
2304 25-02-2019 23:55:00 2.8 C 85 % 0.54 C
2305 26-02-2019 00:00:00 2.7 C 85 % 0.44 C
2306 26-02-2019 00:05:00 2.8 C 86 % 0.7 C
2307 26-02-2019 00:10:00 2.7 C 85 % 0.44 C
2308 26-02-2019 00:15:00 2.6 C 86 % 0.5 C
2309 26-02-2019 00:20:00 2.6 C 86 % 0.5 C
2310 26-02-2019 00:25:00 2.6 C 86 % 0.5 C
2311 26-02-2019 00:30:00 2.6 C 87 % 0.66 C
2312 26-02-2019 00:35:00 2.5 C 86 % 0.4 C
2313 26-02-2019 00:40:00 2.3 C 85 % 0.04 C
2314 26-02-2019 00:45:00 2 C 86 % -0.09 C
2315 26-02-2019 00:50:00 1.9 C 87 % -0.03 C
2316 26-02-2019 00:55:00 1.8 C 88 % 0.03 C
2317 26-02-2019 01:00:00 1.8 C 89 % 0.19 C
2318 26-02-2019 01:05:00 1.9 C 89 % 0.28 C
2319 26-02-2019 01:10:00 1.9 C 89 % 0.28 C
2320 26-02-2019 01:15:00 1.9 C 88 % 0.13 C
2321 26-02-2019 01:20:00 1.8 C 89 % 0.19 C
2322 26-02-2019 01:25:00 1.9 C 89 % 0.28 C
2323 26-02-2019 01:30:00 1.9 C 89 % 0.28 C
2324 26-02-2019 01:35:00 2.1 C 90 % 0.64 C
2325 26-02-2019 01:40:00 2.2 C 89 % 0.58 C
Sensor: Nr:Datum:Temp:Feuchte:Taupunkt:
Aussen-T/F 2326 26-02-2019 01:45:00 2.1 C 88 % 0.33 C
2327 26-02-2019 01:50:00 1.9 C 88 % 0.13 C
2328 26-02-2019 01:55:00 1.8 C 88 % 0.03 C
2329 26-02-2019 02:00:00 1.6 C 89 % -0.01 C
2330 26-02-2019 02:05:00 1.6 C 89 % -0.01 C
2331 26-02-2019 02:10:00 1.7 C 90 % 0.24 C
2332 26-02-2019 02:15:00 1.7 C 90 % 0.24 C
2333 26-02-2019 02:20:00 1.6 C 89 % -0.01 C
2334 26-02-2019 02:25:00 1.4 C 89 % -0.21 C
2335 26-02-2019 02:30:00 1.3 C 89 % -0.31 C
2336 26-02-2019 02:35:00 1.3 C 90 % -0.15 C
2337 26-02-2019 02:40:00 1.2 C 90 % -0.25 C
2338 26-02-2019 02:45:00 1.3 C 91 % 0 C
2339 26-02-2019 02:50:00 1.1 C 90 % -0.35 C
2340 26-02-2019 02:55:00 0.9 C 89 % -0.7 C
2341 26-02-2019 03:00:00 0.7 C 90 % -0.75 C
2342 26-02-2019 03:05:00 0.6 C 90 % -0.85 C
2343 26-02-2019 03:10:00 0.5 C 90 % -0.95 C
2344 26-02-2019 03:15:00 0.4 C 91 % -0.89 C
2345 26-02-2019 03:20:00 0.5 C 91 % -0.79 C
2346 26-02-2019 03:25:00 0.5 C 91 % -0.79 C
2347 26-02-2019 03:30:00 0.6 C 92 % -0.55 C
2348 26-02-2019 03:35:00 0.8 C 92 % -0.35 C
2349 26-02-2019 03:40:00 0.8 C 92 % -0.35 C
2350 26-02-2019 03:45:00 0.7 C 91 % -0.6 C
Sensor: Nr:Datum:Temp:Feuchte:Taupunkt:
Aussen-T/F 2351 26-02-2019 03:50:00 0.7 C 92 % -0.45 C
2352 26-02-2019 03:55:00 0.8 C 92 % -0.35 C
2353 26-02-2019 04:00:00 0.7 C 92 % -0.45 C
2354 26-02-2019 04:05:00 0.4 C 91 % -0.89 C
2355 26-02-2019 04:10:00 0.3 C 92 % -0.84 C
2356 26-02-2019 04:15:00 0.3 C 92 % -0.84 C
2357 26-02-2019 04:20:00 0.4 C 92 % -0.74 C
2358 26-02-2019 04:25:00 0.4 C 92 % -0.74 C
2359 26-02-2019 04:30:00 0.4 C 92 % -0.74 C
2360 26-02-2019 04:35:00 0.3 C 92 % -0.84 C
2361 26-02-2019 04:40:00 0.2 C 92 % -0.94 C
2362 26-02-2019 04:45:00 0.1 C 92 % -1.04 C
2363 26-02-2019 04:50:00 0.2 C 93 % -0.79 C
2364 26-02-2019 04:55:00 0.2 C 93 % -0.79 C
2365 26-02-2019 05:00:00 0.2 C 93 % -0.79 C
2366 26-02-2019 05:05:00 0.1 C 93 % -0.89 C
2367 26-02-2019 05:10:00 0.1 C 93 % -0.89 C
2368 26-02-2019 05:15:00 0.1 C 93 % -0.89 C
2369 26-02-2019 05:20:00 0 C 93 % -0.99 C
2370 26-02-2019 05:25:00 0.1 C 93 % -0.89 C
2371 26-02-2019 05:30:00 0.2 C 93 % -0.79 C
2372 26-02-2019 05:35:00 0.3 C 93 % -0.7 C
2373 26-02-2019 05:40:00 0.4 C 94 % -0.45 C
2374 26-02-2019 05:45:00 0.4 C 93 % -0.6 C
2375 26-02-2019 05:50:00 0.4 C 93 % -0.6 C
Sensor: Nr:Datum:Temp:Feuchte:Taupunkt:
Aussen-T/F 2376 26-02-2019 05:55:00 0.3 C 93 % -0.7 C
2377 26-02-2019 06:00:00 0.2 C 92 % -0.94 C
2378 26-02-2019 06:05:00 -0.1 C 92 % -1.24 C
2379 26-02-2019 06:10:00 -0.2 C 92 % -1.34 C
2380 26-02-2019 06:15:00 -0.3 C 92 % -1.44 C
2381 26-02-2019 06:20:00 -0.3 C 93 % -1.29 C
2382 26-02-2019 06:25:00 -0.4 C 93 % -1.39 C
2383 26-02-2019 06:30:00 -0.4 C 93 % -1.39 C
2384 26-02-2019 06:35:00 -0.4 C 93 % -1.39 C
2385 26-02-2019 06:40:00 -0.4 C 93 % -1.39 C
2386 26-02-2019 06:45:00 -0.6 C 93 % -1.59 C
2387 26-02-2019 06:50:00 -0.5 C 93 % -1.49 C
2388 26-02-2019 06:55:00 -0.4 C 94 % -1.25 C
2389 26-02-2019 07:00:00 -0.2 C 94 % -1.05 C
2390 26-02-2019 07:05:00 -0.2 C 94 % -1.05 C
2391 26-02-2019 07:10:00 -0.2 C 94 % -1.05 C
2392 26-02-2019 07:15:00 -0.3 C 93 % -1.29 C
2393 26-02-2019 07:20:00 -0.4 C 93 % -1.39 C
2394 26-02-2019 07:25:00 -0.6 C 93 % -1.59 C
2395 26-02-2019 07:30:00 -0.8 C 93 % -1.79 C
2396 26-02-2019 07:35:00 -0.8 C 93 % -1.79 C
2397 26-02-2019 07:40:00 -0.8 C 94 % -1.64 C
2398 26-02-2019 07:45:00 -0.6 C 94 % -1.44 C
2399 26-02-2019 07:50:00 -0.5 C 94 % -1.34 C
2400 26-02-2019 07:55:00 -0.4 C 94 % -1.25 C
Sensor: Nr:Datum:Temp:Feuchte:Taupunkt:
Aussen-T/F 2401 26-02-2019 08:00:00 -0.4 C 94 % -1.25 C
2402 26-02-2019 08:05:00 -0.3 C 94 % -1.15 C
2403 26-02-2019 08:10:00 -0.3 C 94 % -1.15 C
2404 26-02-2019 08:15:00 -0.3 C 94 % -1.15 C
2405 26-02-2019 08:20:00 -0.3 C 94 % -1.15 C
2406 26-02-2019 08:25:00 -0.3 C 94 % -1.15 C
2407 26-02-2019 08:30:00 -0.2 C 94 % -1.05 C
2408 26-02-2019 08:35:00 -0.1 C 95 % -0.8 C
2409 26-02-2019 08:40:00 0 C 95 % -0.7 C
2410 26-02-2019 08:45:00 0.2 C 95 % -0.5 C
2411 26-02-2019 08:50:00 0.3 C 95 % -0.4 C
2412 26-02-2019 08:55:00 0.4 C 95 % -0.31 C
2413 26-02-2019 09:00:00 0.4 C 94 % -0.45 C
2414 26-02-2019 09:05:00 0.4 C 94 % -0.45 C
2415 26-02-2019 09:10:00 0.5 C 94 % -0.35 C
2416 26-02-2019 09:15:00 0.6 C 95 % -0.11 C
2417 26-02-2019 09:20:00 0.7 C 95 % -0.01 C
2418 26-02-2019 09:25:00 0.8 C 95 % 0.09 C
2419 26-02-2019 09:30:00 0.9 C 95 % 0.19 C
2420 26-02-2019 09:35:00 0.9 C 95 % 0.19 C
2421 26-02-2019 09:40:00 0.9 C 95 % 0.19 C
2422 26-02-2019 09:45:00 1.1 C 95 % 0.39 C
2423 26-02-2019 09:50:00 1.2 C 95 % 0.49 C
2424 26-02-2019 09:55:00 1.3 C 95 % 0.59 C
2425 26-02-2019 10:00:00 1.6 C 95 % 0.89 C
Sensor: Nr:Datum:Temp:Feuchte:Taupunkt:
Aussen-T/F 2426 26-02-2019 10:05:00 1.7 C 95 % 0.99 C
2427 26-02-2019 10:10:00 1.8 C 95 % 1.09 C
2428 26-02-2019 10:15:00 1.9 C 95 % 1.19 C
2429 26-02-2019 10:20:00 2.1 C 95 % 1.38 C
2430 26-02-2019 10:25:00 2.3 C 95 % 1.58 C
2431 26-02-2019 10:30:00 2.5 C 95 % 1.78 C
2432 26-02-2019 10:35:00 2.9 C 95 % 2.18 C
2433 26-02-2019 10:40:00 3.2 C 94 % 2.33 C
2434 26-02-2019 10:45:00 3.5 C 94 % 2.63 C
2435 26-02-2019 10:50:00 3.8 C 93 % 2.77 C
2436 26-02-2019 10:55:00 4 C 92 % 2.82 C
2437 26-02-2019 11:00:00 4.3 C 91 % 2.96 C
2438 26-02-2019 11:05:00 4.5 C 90 % 3.01 C
2439 26-02-2019 11:10:00 4.8 C 90 % 3.3 C
2440 26-02-2019 11:15:00 5.1 C 90 % 3.6 C
2441 26-02-2019 11:20:00 5.4 C 90 % 3.89 C
2442 26-02-2019 11:25:00 5.7 C 89 % 4.03 C
2443 26-02-2019 11:30:00 5.9 C 87 % 3.91 C
2444 26-02-2019 11:35:00 6.2 C 85 % 3.87 C
2445 26-02-2019 11:40:00 6.4 C 84 % 3.9 C
2446 26-02-2019 11:45:00 6.7 C 82 % 3.85 C
2447 26-02-2019 11:50:00 6.9 C 81 % 3.87 C
2448 26-02-2019 11:55:00 7.1 C 81 % 4.07 C
2449 26-02-2019 12:00:00 7.3 C 81 % 4.26 C
2450 26-02-2019 12:05:00 7.5 C 80 % 4.28 C
Sensor: Nr:Datum:Temp:Feuchte:Taupunkt:
Aussen-T/F 2451 26-02-2019 12:10:00 7.8 C 76 % 3.84 C
2452 26-02-2019 12:15:00 8.3 C 75 % 4.14 C
2453 26-02-2019 12:20:00 8.8 C 73 % 4.24 C
2454 26-02-2019 12:25:00 9.3 C 73 % 4.72 C
2455 26-02-2019 12:30:00 9.8 C 71 % 4.8 C
2456 26-02-2019 12:35:00 10.3 C 69 % 4.87 C
2457 26-02-2019 12:40:00 10.8 C 69 % 5.35 C
2458 26-02-2019 12:45:00 11.2 C 65 % 4.87 C
2459 26-02-2019 12:50:00 11.4 C 68 % 5.71 C
2460 26-02-2019 12:55:00 11.6 C 69 % 6.11 C
2461 26-02-2019 13:00:00 11.7 C 68 % 6 C
2462 26-02-2019 13:05:00 11.9 C 68 % 6.19 C
2463 26-02-2019 13:10:00 12.3 C 70 % 6.99 C
2464 26-02-2019 13:15:00 12.7 C 69 % 7.17 C
2465 26-02-2019 13:20:00 13.2 C 67 % 7.21 C
2466 26-02-2019 13:25:00 13.7 C 66 % 7.47 C
2467 26-02-2019 13:30:00 14.1 C 66 % 7.85 C
2468 26-02-2019 13:35:00 14.5 C 65 % 8.01 C
2469 26-02-2019 13:40:00 14.9 C 64 % 8.16 C
2470 26-02-2019 13:45:00 15.4 C 61 % 7.93 C
2471 26-02-2019 13:50:00 15.8 C 60 % 8.06 C
2472 26-02-2019 13:55:00 16.1 C 59 % 8.09 C
2473 26-02-2019 14:00:00 16.4 C 58 % 8.12 C
2474 26-02-2019 14:05:00 16.6 C 55 % 7.53 C
2475 26-02-2019 14:10:00 16.7 C 55 % 7.62 C
Sensor: Nr:Datum:Temp:Feuchte:Taupunkt:
Aussen-T/F 2476 26-02-2019 14:15:00 16.8 C 54 % 7.45 C
2477 26-02-2019 14:20:00 16.7 C 54 % 7.36 C
2478 26-02-2019 14:25:00 16.4 C 54 % 7.08 C
2479 26-02-2019 14:30:00 16.2 C 54 % 6.89 C
2480 26-02-2019 14:35:00 15.9 C 54 % 6.61 C
2481 26-02-2019 14:40:00 15.7 C 56 % 6.96 C
2482 26-02-2019 14:45:00 15.6 C 56 % 6.86 C
2483 26-02-2019 14:50:00 15.5 C 57 % 7.03 C
2484 26-02-2019 14:55:00 15.4 C 57 % 6.93 C
2485 26-02-2019 15:00:00 15.3 C 55 % 6.32 C
2486 26-02-2019 15:05:00 15.4 C 57 % 6.93 C
2487 26-02-2019 15:10:00 15.5 C 56 % 6.77 C
2488 26-02-2019 15:15:00 15.5 C 56 % 6.77 C
2489 26-02-2019 15:20:00 15.5 C 55 % 6.51 C
2490 26-02-2019 15:25:00 15.5 C 55 % 6.51 C
2491 26-02-2019 15:30:00 15.4 C 55 % 6.42 C
2492 26-02-2019 15:35:00 15.4 C 54 % 6.15 C
2493 26-02-2019 15:40:00 15.6 C 55 % 6.6 C
2494 26-02-2019 15:45:00 15.6 C 55 % 6.6 C
2495 26-02-2019 15:50:00 15.6 C 55 % 6.6 C
2496 26-02-2019 15:55:00 15.6 C 55 % 6.6 C
2497 26-02-2019 16:00:00 15.6 C 54 % 6.34 C
2498 26-02-2019 16:05:00 15.7 C 54 % 6.43 C
2499 26-02-2019 16:10:00 15.7 C 54 % 6.43 C
2500 26-02-2019 16:15:00 15.7 C 54 % 6.43 C
Sensor: Nr:Datum:Temp:Feuchte:Taupunkt:
Aussen-T/F 2501 26-02-2019 16:20:00 15.7 C 55 % 6.69 C
2502 26-02-2019 16:25:00 15.6 C 54 % 6.34 C
2503 26-02-2019 16:30:00 15.5 C 55 % 6.51 C
2504 26-02-2019 16:35:00 15.4 C 56 % 6.68 C
2505 26-02-2019 16:40:00 15.2 C 57 % 6.75 C
2506 26-02-2019 16:45:00 15.1 C 57 % 6.65 C
2507 26-02-2019 16:50:00 15.1 C 58 % 6.91 C
2508 26-02-2019 16:55:00 15 C 58 % 6.81 C
2509 26-02-2019 17:00:00 14.9 C 58 % 6.72 C
2510 26-02-2019 17:05:00 14.9 C 58 % 6.72 C
2511 26-02-2019 17:10:00 14.9 C 58 % 6.72 C
2512 26-02-2019 17:15:00 14.8 C 59 % 6.87 C
2513 26-02-2019 17:20:00 14.8 C 59 % 6.87 C
2514 26-02-2019 17:25:00 14.9 C 59 % 6.97 C
2515 26-02-2019 17:30:00 14.9 C 58 % 6.72 C
2516 26-02-2019 17:35:00 14.8 C 58 % 6.63 C
2517 26-02-2019 17:40:00 14.8 C 58 % 6.63 C
2518 26-02-2019 17:45:00 14.7 C 59 % 6.78 C
2519 26-02-2019 17:50:00 14.5 C 59 % 6.59 C
2520 26-02-2019 17:55:00 14.2 C 59 % 6.31 C
2521 26-02-2019 18:00:00 13.9 C 60 % 6.27 C
2522 26-02-2019 18:05:00 13.6 C 61 % 6.23 C
2523 26-02-2019 18:10:00 13.3 C 61 % 5.95 C
2524 26-02-2019 18:15:00 13 C 62 % 5.9 C
2525 26-02-2019 18:20:00 12.8 C 63 % 5.94 C
Sensor: Nr:Datum:Temp:Feuchte:Taupunkt:
Aussen-T/F 2526 26-02-2019 18:25:00 12.6 C 64 % 5.98 C
2527 26-02-2019 18:30:00 12.3 C 64 % 5.69 C
2528 26-02-2019 18:35:00 12.2 C 64 % 5.6 C
2529 26-02-2019 18:40:00 12.1 C 65 % 5.73 C
2530 26-02-2019 18:45:00 11.9 C 66 % 5.76 C
2531 26-02-2019 18:50:00 11.7 C 66 % 5.57 C
2532 26-02-2019 18:55:00 11.4 C 67 % 5.5 C
2533 26-02-2019 19:00:00 11.3 C 68 % 5.62 C
2534 26-02-2019 19:05:00 11.1 C 68 % 5.43 C
2535 26-02-2019 19:10:00 10.8 C 69 % 5.35 C
2536 26-02-2019 19:15:00 10.7 C 70 % 5.46 C
2537 26-02-2019 19:20:00 10.6 C 71 % 5.57 C
2538 26-02-2019 19:25:00 10.4 C 71 % 5.38 C
2539 26-02-2019 19:30:00 10.4 C 72 % 5.58 C
2540 26-02-2019 19:35:00 10.3 C 72 % 5.48 C
2541 26-02-2019 19:40:00 10.1 C 72 % 5.29 C
2542 26-02-2019 19:45:00 9.7 C 73 % 5.1 C
2543 26-02-2019 19:50:00 9.4 C 75 % 5.2 C
2544 26-02-2019 19:55:00 9.3 C 75 % 5.1 C
2545 26-02-2019 20:00:00 9.2 C 74 % 4.81 C
2546 26-02-2019 20:05:00 8.8 C 74 % 4.43 C
2547 26-02-2019 20:10:00 8.6 C 75 % 4.43 C
2548 26-02-2019 20:15:00 8.5 C 76 % 4.52 C
2549 26-02-2019 20:20:00 8.4 C 77 % 4.61 C
2550 26-02-2019 20:25:00 8.1 C 77 % 4.32 C
Sensor: Nr:Datum:Temp:Feuchte:Taupunkt:
Aussen-T/F 2551 26-02-2019 20:30:00 7.9 C 77 % 4.12 C
2552 26-02-2019 20:35:00 7.9 C 77 % 4.12 C
2553 26-02-2019 20:40:00 7.9 C 77 % 4.12 C
2554 26-02-2019 20:45:00 7.8 C 77 % 4.03 C
2555 26-02-2019 20:50:00 7.7 C 77 % 3.93 C
2556 26-02-2019 20:55:00 7.4 C 78 % 3.82 C
2557 26-02-2019 21:00:00 7.3 C 79 % 3.91 C
2558 26-02-2019 21:05:00 7.2 C 79 % 3.81 C
2559 26-02-2019 21:10:00 7 C 79 % 3.61 C
2560 26-02-2019 21:15:00 6.9 C 80 % 3.7 C
2561 26-02-2019 21:20:00 6.7 C 81 % 3.68 C
2562 26-02-2019 21:25:00 6.8 C 83 % 4.12 C
2563 26-02-2019 21:30:00 6.8 C 82 % 3.95 C
2564 26-02-2019 21:35:00 6.8 C 81 % 3.77 C
2565 26-02-2019 21:40:00 6.7 C 81 % 3.68 C
2566 26-02-2019 21:45:00 6.6 C 82 % 3.75 C
2567 26-02-2019 21:50:00 6.4 C 82 % 3.56 C
2568 26-02-2019 21:55:00 6.4 C 82 % 3.56 C
2569 26-02-2019 22:00:00 6.3 C 82 % 3.46 C
2570 26-02-2019 22:05:00 6.2 C 83 % 3.53 C
2571 26-02-2019 22:10:00 6.2 C 83 % 3.53 C
2572 26-02-2019 22:15:00 6.2 C 82 % 3.36 C
2573 26-02-2019 22:20:00 5.9 C 82 % 3.07 C
2574 26-02-2019 22:25:00 5.7 C 83 % 3.04 C
2575 26-02-2019 22:30:00 5.6 C 84 % 3.12 C
Sensor: Nr:Datum:Temp:Feuchte:Taupunkt:
Aussen-T/F 2576 26-02-2019 22:35:00 5.4 C 84 % 2.92 C
2577 26-02-2019 22:40:00 5.2 C 84 % 2.72 C
2578 26-02-2019 22:45:00 4.9 C 85 % 2.6 C
2579 26-02-2019 22:50:00 4.9 C 86 % 2.76 C
2580 26-02-2019 22:55:00 4.9 C 87 % 2.92 C
2581 26-02-2019 23:00:00 4.8 C 85 % 2.5 C
2582 26-02-2019 23:05:00 4.7 C 86 % 2.56 C
2583 26-02-2019 23:10:00 4.7 C 87 % 2.73 C
2584 26-02-2019 23:15:00 4.8 C 88 % 2.99 C
2585 26-02-2019 23:20:00 4.8 C 87 % 2.82 C
2586 26-02-2019 23:25:00 4.8 C 87 % 2.82 C
2587 26-02-2019 23:30:00 4.6 C 86 % 2.47 C
2588 26-02-2019 23:35:00 4.4 C 86 % 2.27 C
2589 26-02-2019 23:40:00 4.3 C 87 % 2.33 C
2590 26-02-2019 23:45:00 4.3 C 88 % 2.49 C
2591 26-02-2019 23:50:00 4.3 C 89 % 2.65 C
2592 26-02-2019 23:55:00 4.3 C 88 % 2.49 C
2593 27-02-2019 00:00:00 4.1 C 88 % 2.3 C
2594 27-02-2019 00:05:00 4 C 88 % 2.2 C
2595 27-02-2019 00:10:00 3.8 C 89 % 2.16 C
2596 27-02-2019 00:15:00 3.6 C 88 % 1.8 C
2597 27-02-2019 00:20:00 3.6 C 89 % 1.96 C
2598 27-02-2019 00:25:00 3.6 C 90 % 2.12 C
2599 27-02-2019 00:30:00 3.6 C 90 % 2.12 C
2600 27-02-2019 00:35:00 3.5 C 90 % 2.02 C
Sensor: Nr:Datum:Temp:Feuchte:Taupunkt:
Aussen-T/F 2601 27-02-2019 00:40:00 3.3 C 89 % 1.67 C
2602 27-02-2019 00:45:00 3.1 C 89 % 1.47 C
2603 27-02-2019 00:50:00 3.2 C 91 % 1.88 C
2604 27-02-2019 00:55:00 3.3 C 91 % 1.98 C
2605 27-02-2019 01:00:00 3.2 C 90 % 1.72 C
2606 27-02-2019 01:05:00 3 C 90 % 1.52 C
2607 27-02-2019 01:10:00 2.9 C 90 % 1.43 C
2608 27-02-2019 01:15:00 2.8 C 91 % 1.48 C
2609 27-02-2019 01:20:00 2.8 C 91 % 1.48 C
2610 27-02-2019 01:25:00 2.9 C 92 % 1.73 C
2611 27-02-2019 01:30:00 3 C 92 % 1.83 C
2612 27-02-2019 01:35:00 2.9 C 91 % 1.58 C
2613 27-02-2019 01:40:00 2.8 C 91 % 1.48 C
2614 27-02-2019 01:45:00 2.7 C 92 % 1.53 C
2615 27-02-2019 01:50:00 2.7 C 92 % 1.53 C
2616 27-02-2019 01:55:00 2.5 C 91 % 1.18 C
2617 27-02-2019 02:00:00 2.3 C 91 % 0.99 C
2618 27-02-2019 02:05:00 2.3 C 91 % 0.99 C
2619 27-02-2019 02:10:00 2.2 C 92 % 1.04 C
2620 27-02-2019 02:15:00 2.2 C 92 % 1.04 C
2621 27-02-2019 02:20:00 2 C 92 % 0.84 C
2622 27-02-2019 02:25:00 2.1 C 93 % 1.09 C
2623 27-02-2019 02:30:00 2.3 C 93 % 1.29 C
2624 27-02-2019 02:35:00 2.6 C 94 % 1.73 C
2625 27-02-2019 02:40:00 2.6 C 94 % 1.73 C
Sensor: Nr:Datum:Temp:Feuchte:Taupunkt:
Aussen-T/F 2626 27-02-2019 02:45:00 2.4 C 92 % 1.24 C
2627 27-02-2019 02:50:00 2.1 C 92 % 0.94 C
2628 27-02-2019 02:55:00 1.9 C 92 % 0.74 C
2629 27-02-2019 03:00:00 1.9 C 93 % 0.89 C
2630 27-02-2019 03:05:00 1.9 C 93 % 0.89 C
2631 27-02-2019 03:10:00 1.9 C 93 % 0.89 C
2632 27-02-2019 03:15:00 1.7 C 92 % 0.54 C
2633 27-02-2019 03:20:00 1.6 C 93 % 0.59 C
2634 27-02-2019 03:25:00 1.5 C 93 % 0.49 C
2635 27-02-2019 03:30:00 1.3 C 93 % 0.3 C
2636 27-02-2019 03:35:00 1.2 C 93 % 0.2 C
2637 27-02-2019 03:40:00 1.3 C 94 % 0.44 C
2638 27-02-2019 03:45:00 1.3 C 93 % 0.3 C
2639 27-02-2019 03:50:00 1 C 93 % 0 C
2640 27-02-2019 03:55:00 0.9 C 93 % -0.1 C
2641 27-02-2019 04:00:00 1 C 94 % 0.15 C
2642 27-02-2019 04:05:00 0.9 C 93 % -0.1 C
2643 27-02-2019 04:10:00 0.9 C 94 % 0.05 C
2644 27-02-2019 04:15:00 1 C 94 % 0.15 C
2645 27-02-2019 04:20:00 0.9 C 94 % 0.05 C
2646 27-02-2019 04:25:00 0.8 C 93 % -0.2 C
2647 27-02-2019 04:30:00 0.7 C 94 % -0.15 C
2648 27-02-2019 04:35:00 0.7 C 94 % -0.15 C
2649 27-02-2019 04:40:00 0.7 C 94 % -0.15 C
2650 27-02-2019 04:45:00 0.6 C 94 % -0.25 C
Sensor: Nr:Datum:Temp:Feuchte:Taupunkt:
Aussen-T/F 2651 27-02-2019 04:50:00 0.6 C 94 % -0.25 C
2652 27-02-2019 04:55:00 0.6 C 94 % -0.25 C
2653 27-02-2019 05:00:00 0.7 C 94 % -0.15 C
2654 27-02-2019 05:05:00 0.7 C 94 % -0.15 C
2655 27-02-2019 05:10:00 0.6 C 94 % -0.25 C
2656 27-02-2019 05:15:00 0.6 C 95 % -0.11 C
2657 27-02-2019 05:20:00 0.6 C 95 % -0.11 C
2658 27-02-2019 05:25:00 0.6 C 95 % -0.11 C
2659 27-02-2019 05:30:00 0.5 C 94 % -0.35 C
2660 27-02-2019 05:35:00 0.4 C 94 % -0.45 C
2661 27-02-2019 05:40:00 0.4 C 94 % -0.45 C
2662 27-02-2019 05:45:00 0.4 C 95 % -0.31 C
2663 27-02-2019 05:50:00 0.3 C 95 % -0.4 C
2664 27-02-2019 05:55:00 0.2 C 94 % -0.65 C
2665 27-02-2019 06:00:00 0.2 C 94 % -0.65 C
2666 27-02-2019 06:05:00 0.2 C 95 % -0.5 C
2667 27-02-2019 06:10:00 0.2 C 95 % -0.5 C
2668 27-02-2019 06:15:00 0.1 C 95 % -0.6 C
2669 27-02-2019 06:20:00 0 C 95 % -0.7 C
2670 27-02-2019 06:25:00 0.1 C 95 % -0.6 C
2671 27-02-2019 06:30:00 0.2 C 95 % -0.5 C
2672 27-02-2019 06:35:00 0.3 C 95 % -0.4 C
2673 27-02-2019 06:40:00 0.3 C 95 % -0.4 C
2674 27-02-2019 06:45:00 0.1 C 95 % -0.6 C
2675 27-02-2019 06:50:00 -0.1 C 95 % -0.8 C
Sensor: Nr:Datum:Temp:Feuchte:Taupunkt:
Aussen-T/F 2676 27-02-2019 06:55:00 -0.1 C 95 % -0.8 C
2677 27-02-2019 07:00:00 -0.2 C 95 % -0.9 C
2678 27-02-2019 07:05:00 -0.2 C 95 % -0.9 C
2679 27-02-2019 07:10:00 -0.2 C 95 % -0.9 C
2680 27-02-2019 07:15:00 -0.2 C 95 % -0.9 C
2681 27-02-2019 07:20:00 -0.3 C 95 % -1 C
2682 27-02-2019 07:25:00 -0.4 C 95 % -1.1 C
2683 27-02-2019 07:30:00 -0.6 C 95 % -1.3 C
2684 27-02-2019 07:35:00 -0.6 C 95 % -1.3 C
2685 27-02-2019 07:40:00 -0.6 C 95 % -1.3 C
2686 27-02-2019 07:45:00 -0.4 C 95 % -1.1 C
2687 27-02-2019 07:50:00 -0.4 C 95 % -1.1 C
2688 27-02-2019 07:55:00 -0.4 C 95 % -1.1 C
2689 27-02-2019 08:00:00 -0.4 C 95 % -1.1 C
2690 27-02-2019 08:05:00 -0.4 C 95 % -1.1 C
2691 27-02-2019 08:10:00 -0.4 C 95 % -1.1 C
2692 27-02-2019 08:15:00 -0.4 C 95 % -1.1 C
2693 27-02-2019 08:20:00 -0.4 C 95 % -1.1 C
2694 27-02-2019 08:25:00 -0.4 C 95 % -1.1 C
2695 27-02-2019 08:30:00 -0.3 C 96 % -0.86 C
2696 27-02-2019 08:35:00 -0.2 C 96 % -0.76 C
2697 27-02-2019 08:40:00 -0.2 C 96 % -0.76 C
2698 27-02-2019 08:45:00 -0.1 C 96 % -0.66 C
2699 27-02-2019 08:50:00 0 C 96 % -0.56 C
2700 27-02-2019 08:55:00 0.1 C 96 % -0.46 C
Sensor: Nr:Datum:Temp:Feuchte:Taupunkt:
Aussen-T/F 2701 27-02-2019 09:00:00 0.1 C 96 % -0.46 C
2702 27-02-2019 09:05:00 0.2 C 96 % -0.36 C
2703 27-02-2019 09:10:00 0.2 C 96 % -0.36 C
2704 27-02-2019 09:15:00 0.2 C 96 % -0.36 C
2705 27-02-2019 09:20:00 0.2 C 96 % -0.36 C
2706 27-02-2019 09:25:00 0.3 C 96 % -0.26 C
2707 27-02-2019 09:30:00 0.3 C 96 % -0.26 C
2708 27-02-2019 09:35:00 0.4 C 96 % -0.16 C
2709 27-02-2019 09:40:00 0.6 C 96 % 0.04 C
2710 27-02-2019 09:45:00 0.7 C 96 % 0.14 C
2711 27-02-2019 09:50:00 0.8 C 96 % 0.24 C
2712 27-02-2019 09:55:00 1 C 96 % 0.44 C
2713 27-02-2019 10:00:00 1.2 C 96 % 0.63 C
2714 27-02-2019 10:05:00 1.3 C 96 % 0.73 C
2715 27-02-2019 10:10:00 1.4 C 96 % 0.83 C
2716 27-02-2019 10:15:00 1.6 C 97 % 1.18 C
2717 27-02-2019 10:20:00 1.7 C 96 % 1.13 C
2718 27-02-2019 10:25:00 2 C 97 % 1.58 C
2719 27-02-2019 10:30:00 2.4 C 97 % 1.97 C
2720 27-02-2019 10:35:00 2.8 C 97 % 2.37 C
2721 27-02-2019 10:40:00 3.2 C 97 % 2.77 C
2722 27-02-2019 10:45:00 3.4 C 97 % 2.97 C
2723 27-02-2019 10:50:00 3.7 C 97 % 3.27 C
2724 27-02-2019 10:55:00 4.1 C 97 % 3.67 C
2725 27-02-2019 11:00:00 4.3 C 97 % 3.87 C
Sensor: Nr:Datum:Temp:Feuchte:Taupunkt:
Aussen-T/F 2726 27-02-2019 11:05:00 4.5 C 97 % 4.07 C
2727 27-02-2019 11:10:00 4.7 C 97 % 4.27 C
2728 27-02-2019 11:15:00 5 C 97 % 4.56 C
2729 27-02-2019 11:20:00 5.2 C 97 % 4.76 C
2730 27-02-2019 11:25:00 5.4 C 97 % 4.96 C
2731 27-02-2019 11:30:00 5.7 C 96 % 5.11 C
2732 27-02-2019 11:35:00 5.8 C 95 % 5.06 C
2733 27-02-2019 11:40:00 6 C 94 % 5.11 C
2734 27-02-2019 11:45:00 6.2 C 93 % 5.15 C
2735 27-02-2019 11:50:00 6.5 C 91 % 5.14 C
2736 27-02-2019 11:55:00 6.7 C 90 % 5.18 C
2737 27-02-2019 12:00:00 7 C 89 % 5.31 C
2738 27-02-2019 12:05:00 7.4 C 90 % 5.87 C
2739 27-02-2019 12:10:00 7.8 C 88 % 5.94 C
2740 27-02-2019 12:15:00 8.4 C 89 % 6.7 C
2741 27-02-2019 12:20:00 9.1 C 87 % 7.05 C
2742 27-02-2019 12:25:00 9.6 C 85 % 7.21 C
2743 27-02-2019 12:30:00 10.2 C 83 % 7.45 C
2744 27-02-2019 12:35:00 10.8 C 81 % 7.67 C
2745 27-02-2019 12:40:00 11.3 C 80 % 7.98 C
2746 27-02-2019 12:45:00 11.7 C 74 % 7.23 C
2747 27-02-2019 12:50:00 11.8 C 74 % 7.32 C
2748 27-02-2019 12:55:00 12 C 73 % 7.32 C
2749 27-02-2019 13:00:00 12.4 C 73 % 7.7 C
2750 27-02-2019 13:05:00 12.7 C 73 % 7.99 C
Sensor: Nr:Datum:Temp:Feuchte:Taupunkt:
Aussen-T/F 2751 27-02-2019 13:10:00 13.1 C 72 % 8.17 C
2752 27-02-2019 13:15:00 13.5 C 72 % 8.56 C
2753 27-02-2019 13:20:00 14.1 C 68 % 8.29 C
2754 27-02-2019 13:25:00 14.6 C 67 % 8.55 C
2755 27-02-2019 13:30:00 15.1 C 65 % 8.58 C
2756 27-02-2019 13:35:00 15.4 C 63 % 8.4 C
2757 27-02-2019 13:40:00 15.8 C 62 % 8.54 C
2758 27-02-2019 13:45:00 16.2 C 59 % 8.19 C
2759 27-02-2019 13:50:00 16.4 C 58 % 8.12 C
2760 27-02-2019 13:55:00 17 C 56 % 8.17 C
2761 27-02-2019 14:00:00 17.6 C 54 % 8.19 C
2762 27-02-2019 14:05:00 17.8 C 53 % 8.1 C
2763 27-02-2019 14:10:00 17.9 C 53 % 8.19 C
2764 27-02-2019 14:15:00 17.9 C 52 % 7.91 C
2765 27-02-2019 14:20:00 17.8 C 52 % 7.82 C
2766 27-02-2019 14:25:00 17.5 C 52 % 7.54 C
2767 27-02-2019 14:30:00 17.1 C 51 % 6.89 C
2768 27-02-2019 14:35:00 16.8 C 51 % 6.62 C
2769 27-02-2019 14:40:00 16.6 C 52 % 6.71 C
2770 27-02-2019 14:45:00 16.5 C 50 % 6.05 C
2771 27-02-2019 14:50:00 16.4 C 53 % 6.81 C
2772 27-02-2019 14:55:00 16.4 C 53 % 6.81 C
2773 27-02-2019 15:00:00 16.3 C 53 % 6.71 C
2774 27-02-2019 15:05:00 16.3 C 51 % 6.16 C
2775 27-02-2019 15:10:00 16.2 C 51 % 6.06 C
Sensor: Nr:Datum:Temp:Feuchte:Taupunkt:
Aussen-T/F 2776 27-02-2019 15:15:00 16.2 C 52 % 6.34 C
2777 27-02-2019 15:20:00 16.1 C 51 % 5.97 C
2778 27-02-2019 15:25:00 16 C 51 % 5.88 C
2779 27-02-2019 15:30:00 15.9 C 51 % 5.79 C
2780 27-02-2019 15:35:00 15.9 C 52 % 6.07 C
2781 27-02-2019 15:40:00 16 C 52 % 6.16 C
2782 27-02-2019 15:45:00 16.1 C 51 % 5.97 C
2783 27-02-2019 15:50:00 16.1 C 51 % 5.97 C
2784 27-02-2019 15:55:00 16.2 C 51 % 6.06 C
2785 27-02-2019 16:00:00 16.3 C 51 % 6.16 C
2786 27-02-2019 16:05:00 16.3 C 50 % 5.87 C
2787 27-02-2019 16:10:00 16.4 C 50 % 5.96 C
2788 27-02-2019 16:15:00 16.5 C 50 % 6.05 C
2789 27-02-2019 16:20:00 16.5 C 51 % 6.34 C
2790 27-02-2019 16:25:00 16.4 C 49 % 5.67 C
2791 27-02-2019 16:30:00 16.3 C 50 % 5.87 C
2792 27-02-2019 16:35:00 16.2 C 50 % 5.78 C
2793 27-02-2019 16:40:00 16.2 C 51 % 6.06 C
2794 27-02-2019 16:45:00 16.1 C 51 % 5.97 C
2795 27-02-2019 16:50:00 16 C 52 % 6.16 C
2796 27-02-2019 16:55:00 15.8 C 52 % 5.97 C
2797 27-02-2019 17:00:00 15.8 C 52 % 5.97 C
2798 27-02-2019 17:05:00 15.8 C 52 % 5.97 C
2799 27-02-2019 17:10:00 15.8 C 53 % 6.25 C
2800 27-02-2019 17:15:00 15.7 C 52 % 5.88 C
Sensor: Nr:Datum:Temp:Feuchte:Taupunkt:
Aussen-T/F 2801 27-02-2019 17:20:00 15.7 C 52 % 5.88 C
2802 27-02-2019 17:25:00 15.7 C 51 % 5.6 C
2803 27-02-2019 17:30:00 15.8 C 51 % 5.69 C
2804 27-02-2019 17:35:00 15.8 C 50 % 5.41 C
2805 27-02-2019 17:40:00 15.8 C 50 % 5.41 C
2806 27-02-2019 17:45:00 15.8 C 50 % 5.41 C
2807 27-02-2019 17:50:00 15.6 C 50 % 5.23 C
2808 27-02-2019 17:55:00 15.3 C 49 % 4.66 C
2809 27-02-2019 18:00:00 15 C 51 % 4.96 C
2810 27-02-2019 18:05:00 14.6 C 52 % 4.87 C
2811 27-02-2019 18:10:00 14.3 C 54 % 5.13 C
2812 27-02-2019 18:15:00 13.9 C 52 % 4.22 C
2813 27-02-2019 18:20:00 13.8 C 55 % 4.93 C
2814 27-02-2019 18:25:00 13.6 C 54 % 4.48 C
2815 27-02-2019 18:30:00 13.5 C 55 % 4.65 C
2816 27-02-2019 18:35:00 13.3 C 56 % 4.72 C
2817 27-02-2019 18:40:00 13 C 56 % 4.44 C
2818 27-02-2019 18:45:00 12.8 C 57 % 4.5 C
2819 27-02-2019 18:50:00 12.6 C 58 % 4.57 C
2820 27-02-2019 18:55:00 12.3 C 58 % 4.28 C
2821 27-02-2019 19:00:00 12.2 C 59 % 4.43 C
2822 27-02-2019 19:05:00 11.9 C 59 % 4.15 C
2823 27-02-2019 19:10:00 11.7 C 60 % 4.2 C
2824 27-02-2019 19:15:00 11.5 C 61 % 4.25 C
2825 27-02-2019 19:20:00 11.3 C 62 % 4.29 C
Sensor: Nr:Datum:Temp:Feuchte:Taupunkt:
Aussen-T/F 2826 27-02-2019 19:25:00 11.1 C 64 % 4.56 C
2827 27-02-2019 19:30:00 10.8 C 65 % 4.49 C
2828 27-02-2019 19:35:00 10.5 C 66 % 4.43 C
2829 27-02-2019 19:40:00 10.2 C 67 % 4.36 C
2830 27-02-2019 19:45:00 10 C 67 % 4.16 C
2831 27-02-2019 19:50:00 9.8 C 68 % 4.18 C
2832 27-02-2019 19:55:00 9.7 C 69 % 4.3 C
2833 27-02-2019 20:00:00 9.5 C 70 % 4.31 C
2834 27-02-2019 20:05:00 9.4 C 69 % 4.01 C
2835 27-02-2019 20:10:00 9.3 C 70 % 4.12 C
2836 27-02-2019 20:15:00 9.1 C 69 % 3.72 C
2837 27-02-2019 20:20:00 9.1 C 70 % 3.93 C
2838 27-02-2019 20:25:00 8.8 C 70 % 3.64 C
2839 27-02-2019 20:30:00 8.7 C 70 % 3.54 C
2840 27-02-2019 20:35:00 8.6 C 70 % 3.45 C
2841 27-02-2019 20:40:00 8.3 C 71 % 3.36 C
2842 27-02-2019 20:45:00 8.1 C 72 % 3.37 C
2843 27-02-2019 20:50:00 7.8 C 72 % 3.08 C
2844 27-02-2019 20:55:00 7.7 C 72 % 2.98 C
2845 27-02-2019 21:00:00 7.4 C 73 % 2.89 C
2846 27-02-2019 21:05:00 7.3 C 74 % 2.98 C
2847 27-02-2019 21:10:00 7.3 C 73 % 2.79 C
2848 27-02-2019 21:15:00 7.2 C 74 % 2.89 C
2849 27-02-2019 21:20:00 7.1 C 76 % 3.16 C
2850 27-02-2019 21:25:00 6.9 C 76 % 2.97 C
Sensor: Nr:Datum:Temp:Feuchte:Taupunkt:
Aussen-T/F 2851 27-02-2019 21:30:00 6.8 C 76 % 2.87 C
2852 27-02-2019 21:35:00 6.5 C 77 % 2.77 C
2853 27-02-2019 21:40:00 6.4 C 78 % 2.85 C
2854 27-02-2019 21:45:00 6.4 C 77 % 2.67 C
2855 27-02-2019 21:50:00 6.3 C 77 % 2.57 C
2856 27-02-2019 21:55:00 6 C 78 % 2.46 C
2857 27-02-2019 22:00:00 5.8 C 80 % 2.62 C
2858 27-02-2019 22:05:00 5.8 C 81 % 2.8 C
2859 27-02-2019 22:10:00 5.9 C 80 % 2.72 C
2860 27-02-2019 22:15:00 5.8 C 79 % 2.45 C
2861 27-02-2019 22:20:00 5.7 C 80 % 2.53 C
2862 27-02-2019 22:25:00 5.6 C 80 % 2.43 C
2863 27-02-2019 22:30:00 5.5 C 81 % 2.51 C
2864 27-02-2019 22:35:00 5.4 C 81 % 2.41 C
2865 27-02-2019 22:40:00 5.3 C 81 % 2.31 C
2866 27-02-2019 22:45:00 5.3 C 81 % 2.31 C
2867 27-02-2019 22:50:00 5.3 C 81 % 2.31 C
2868 27-02-2019 22:55:00 5.2 C 81 % 2.21 C
2869 27-02-2019 23:00:00 5.2 C 81 % 2.21 C
2870 27-02-2019 23:05:00 5.2 C 81 % 2.21 C
2871 27-02-2019 23:10:00 5.1 C 82 % 2.29 C
2872 27-02-2019 23:15:00 5.1 C 81 % 2.12 C
2873 27-02-2019 23:20:00 5.1 C 82 % 2.29 C
2874 27-02-2019 23:25:00 4.9 C 82 % 2.09 C
2875 27-02-2019 23:30:00 4.7 C 82 % 1.9 C
Sensor: Nr:Datum:Temp:Feuchte:Taupunkt:
Aussen-T/F 2876 27-02-2019 23:35:00 4.6 C 83 % 1.97 C
2877 27-02-2019 23:40:00 4.5 C 84 % 2.04 C
2878 27-02-2019 23:45:00 4.5 C 85 % 2.2 C
2879 27-02-2019 23:50:00 4.5 C 84 % 2.04 C
2880 27-02-2019 23:55:00 4.6 C 84 % 2.14 C
2881 28-02-2019 00:00:00 4.5 C 84 % 2.04 C
2882 28-02-2019 00:05:00 4.6 C 85 % 2.3 C
2883 28-02-2019 00:10:00 4.7 C 85 % 2.4 C
2884 28-02-2019 00:15:00 4.8 C 85 % 2.5 C
2885 28-02-2019 00:20:00 5.1 C 85 % 2.79 C
2886 28-02-2019 00:25:00 5.4 C 84 % 2.92 C
2887 28-02-2019 00:30:00 5.6 C 83 % 2.95 C
2888 28-02-2019 00:35:00 5.7 C 82 % 2.87 C
2889 28-02-2019 00:40:00 5.8 C 82 % 2.97 C
2890 28-02-2019 00:45:00 5.9 C 81 % 2.9 C
2891 28-02-2019 00:50:00 6 C 80 % 2.82 C
2892 28-02-2019 00:55:00 6.1 C 80 % 2.92 C
2893 28-02-2019 01:00:00 6.1 C 80 % 2.92 C
2894 28-02-2019 01:05:00 5.9 C 79 % 2.54 C
2895 28-02-2019 01:10:00 5.8 C 79 % 2.45 C
2896 28-02-2019 01:15:00 5.4 C 79 % 2.06 C
2897 28-02-2019 01:20:00 5.2 C 81 % 2.21 C
2898 28-02-2019 01:25:00 5 C 81 % 2.02 C
2899 28-02-2019 01:30:00 4.7 C 82 % 1.9 C
2900 28-02-2019 01:35:00 4.5 C 83 % 1.87 C
Sensor: Nr:Datum:Temp:Feuchte:Taupunkt:
Aussen-T/F 2901 28-02-2019 01:40:00 4.3 C 83 % 1.67 C
2902 28-02-2019 01:45:00 4.1 C 84 % 1.65 C
2903 28-02-2019 01:50:00 4.1 C 85 % 1.81 C
2904 28-02-2019 01:55:00 4.1 C 86 % 1.97 C
2905 28-02-2019 02:00:00 4.1 C 86 % 1.97 C
2906 28-02-2019 02:05:00 4.1 C 86 % 1.97 C
2907 28-02-2019 02:10:00 4.2 C 86 % 2.07 C
2908 28-02-2019 02:15:00 4.1 C 85 % 1.81 C
2909 28-02-2019 02:20:00 3.8 C 85 % 1.52 C
2910 28-02-2019 02:25:00 3.6 C 86 % 1.48 C
2911 28-02-2019 02:30:00 3.4 C 86 % 1.29 C
2912 28-02-2019 02:35:00 3.3 C 87 % 1.35 C
2913 28-02-2019 02:40:00 3.3 C 88 % 1.51 C
2914 28-02-2019 02:45:00 3.4 C 89 % 1.76 C
2915 28-02-2019 02:50:00 3.4 C 89 % 1.76 C
2916 28-02-2019 02:55:00 3.4 C 88 % 1.61 C
2917 28-02-2019 03:00:00 3.3 C 88 % 1.51 C
2918 28-02-2019 03:05:00 3.1 C 87 % 1.15 C
2919 28-02-2019 03:10:00 2.9 C 88 % 1.11 C
2920 28-02-2019 03:15:00 2.9 C 89 % 1.27 C
2921 28-02-2019 03:20:00 2.8 C 89 % 1.17 C
2922 28-02-2019 03:25:00 2.8 C 90 % 1.33 C
2923 28-02-2019 03:30:00 2.9 C 90 % 1.43 C
2924 28-02-2019 03:35:00 3 C 90 % 1.52 C
2925 28-02-2019 03:40:00 3.1 C 90 % 1.62 C
Sensor: Nr:Datum:Temp:Feuchte:Taupunkt:
Aussen-T/F 2926 28-02-2019 03:45:00 3 C 89 % 1.37 C
2927 28-02-2019 03:50:00 2.8 C 89 % 1.17 C
2928 28-02-2019 03:55:00 2.7 C 89 % 1.07 C
2929 28-02-2019 04:00:00 2.6 C 89 % 0.97 C
2930 28-02-2019 04:05:00 2.4 C 89 % 0.78 C
2931 28-02-2019 04:10:00 2.2 C 88 % 0.42 C
2932 28-02-2019 04:15:00 2 C 89 % 0.38 C
2933 28-02-2019 04:20:00 1.9 C 90 % 0.44 C
2934 28-02-2019 04:25:00 2.1 C 91 % 0.79 C
2935 28-02-2019 04:30:00 2.3 C 92 % 1.14 C
2936 28-02-2019 04:35:00 2.3 C 91 % 0.99 C
2937 28-02-2019 04:40:00 2.3 C 91 % 0.99 C
2938 28-02-2019 04:45:00 2.3 C 91 % 0.99 C
2939 28-02-2019 04:50:00 2.4 C 92 % 1.24 C
2940 28-02-2019 04:55:00 2.5 C 91 % 1.18 C
2941 28-02-2019 05:00:00 2.6 C 91 % 1.28 C
2942 28-02-2019 05:05:00 2.5 C 91 % 1.18 C
2943 28-02-2019 05:10:00 2.5 C 91 % 1.18 C
2944 28-02-2019 05:15:00 2.4 C 90 % 0.93 C
2945 28-02-2019 05:20:00 2.3 C 91 % 0.99 C
2946 28-02-2019 05:25:00 2.3 C 91 % 0.99 C
2947 28-02-2019 05:30:00 2.3 C 91 % 0.99 C
2948 28-02-2019 05:35:00 2.3 C 91 % 0.99 C
2949 28-02-2019 05:40:00 2.3 C 91 % 0.99 C
2950 28-02-2019 05:45:00 2.3 C 91 % 0.99 C
Sensor: Nr:Datum:Temp:Feuchte:Taupunkt:
Aussen-T/F 2951 28-02-2019 05:50:00 2.2 C 91 % 0.89 C
2952 28-02-2019 05:55:00 2.3 C 92 % 1.14 C
2953 28-02-2019 06:00:00 2.5 C 92 % 1.34 C
2954 28-02-2019 06:05:00 2.7 C 92 % 1.53 C
2955 28-02-2019 06:10:00 2.7 C 92 % 1.53 C
2956 28-02-2019 06:15:00 2.7 C 91 % 1.38 C
2957 28-02-2019 06:20:00 2.6 C 91 % 1.28 C
2958 28-02-2019 06:25:00 2.7 C 91 % 1.38 C
2959 28-02-2019 06:30:00 2.9 C 92 % 1.73 C
2960 28-02-2019 06:35:00 3.4 C 92 % 2.23 C
2961 28-02-2019 06:40:00 3.8 C 90 % 2.31 C
2962 28-02-2019 06:45:00 4.2 C 88 % 2.39 C
2963 28-02-2019 06:50:00 4.2 C 87 % 2.23 C
2964 28-02-2019 06:55:00 4.2 C 87 % 2.23 C
2965 28-02-2019 07:00:00 4.2 C 87 % 2.23 C
2966 28-02-2019 07:05:00 4.2 C 86 % 2.07 C
2967 28-02-2019 07:10:00 4.1 C 86 % 1.97 C
2968 28-02-2019 07:15:00 3.9 C 86 % 1.78 C
2969 28-02-2019 07:20:00 3.9 C 87 % 1.94 C
2970 28-02-2019 07:25:00 3.8 C 87 % 1.84 C
2971 28-02-2019 07:30:00 3.8 C 87 % 1.84 C
2972 28-02-2019 07:35:00 3.7 C 87 % 1.74 C
2973 28-02-2019 07:40:00 3.6 C 88 % 1.8 C
2974 28-02-2019 07:45:00 3.4 C 87 % 1.45 C
2975 28-02-2019 07:50:00 3.3 C 87 % 1.35 C
Sensor: Nr:Datum:Temp:Feuchte:Taupunkt:
Aussen-T/F 2976 28-02-2019 07:55:00 3.1 C 87 % 1.15 C
2977 28-02-2019 08:00:00 2.9 C 88 % 1.11 C
2978 28-02-2019 08:05:00 2.7 C 88 % 0.92 C
2979 28-02-2019 08:10:00 2.7 C 88 % 0.92 C
2980 28-02-2019 08:15:00 2.6 C 89 % 0.97 C
2981 28-02-2019 08:20:00 2.7 C 90 % 1.23 C
2982 28-02-2019 08:25:00 2.8 C 90 % 1.33 C
2983 28-02-2019 08:30:00 2.9 C 91 % 1.58 C
2984 28-02-2019 08:35:00 3.1 C 91 % 1.78 C
2985 28-02-2019 08:40:00 3.3 C 91 % 1.98 C
2986 28-02-2019 08:45:00 3.6 C 92 % 2.42 C
2987 28-02-2019 08:50:00 3.7 C 91 % 2.37 C
2988 28-02-2019 08:55:00 3.9 C 91 % 2.57 C
2989 28-02-2019 09:00:00 4.1 C 91 % 2.77 C
2990 28-02-2019 09:05:00 4.2 C 90 % 2.71 C
2991 28-02-2019 09:10:00 4.3 C 90 % 2.81 C
2992 28-02-2019 09:15:00 4.4 C 89 % 2.75 C
2993 28-02-2019 09:20:00 4.5 C 89 % 2.85 C
2994 28-02-2019 09:25:00 4.6 C 89 % 2.95 C
2995 28-02-2019 09:30:00 4.7 C 89 % 3.05 C
2996 28-02-2019 09:35:00 4.8 C 88 % 2.99 C
2997 28-02-2019 09:40:00 4.9 C 88 % 3.08 C
2998 28-02-2019 09:45:00 5.1 C 88 % 3.28 C
2999 28-02-2019 09:50:00 5.2 C 88 % 3.38 C
3000 28-02-2019 09:55:00 5.4 C 89 % 3.74 C
Sensor: Nr:Datum:Temp:Feuchte:Taupunkt:
Aussen-T/F 3001 28-02-2019 10:00:00 5.6 C 89 % 3.93 C
3002 28-02-2019 10:05:00 5.8 C 89 % 4.13 C
3003 28-02-2019 10:10:00 6.3 C 88 % 4.46 C
3004 28-02-2019 10:15:00 6.7 C 88 % 4.86 C
3005 28-02-2019 10:20:00 7.1 C 86 % 4.92 C
3006 28-02-2019 10:25:00 7.5 C 85 % 5.15 C
3007 28-02-2019 10:30:00 7.9 C 84 % 5.37 C
3008 28-02-2019 10:35:00 8.4 C 83 % 5.69 C
3009 28-02-2019 10:40:00 8.7 C 82 % 5.8 C
3010 28-02-2019 10:45:00 9 C 81 % 5.92 C
3011 28-02-2019 10:50:00 9.3 C 80 % 6.03 C
3012 28-02-2019 10:55:00 9.6 C 79 % 6.14 C
3013 28-02-2019 11:00:00 9.9 C 78 % 6.25 C
3014 28-02-2019 11:05:00 10.2 C 77 % 6.35 C
3015 28-02-2019 11:10:00 10.6 C 76 % 6.55 C
3016 28-02-2019 11:15:00 10.9 C 75 % 6.65 C
3017 28-02-2019 11:20:00 11.3 C 73 % 6.64 C
3018 28-02-2019 11:25:00 11.7 C 72 % 6.83 C
3019 28-02-2019 11:30:00 11.9 C 71 % 6.82 C
3020 28-02-2019 11:35:00 12.2 C 70 % 6.9 C
3021 28-02-2019 11:40:00 12.4 C 69 % 6.88 C
3022 28-02-2019 11:45:00 12.5 C 69 % 6.97 C
3023 28-02-2019 11:50:00 12.6 C 69 % 7.07 C
3024 28-02-2019 11:55:00 12.6 C 69 % 7.07 C
3025 28-02-2019 12:00:00 12.7 C 68 % 6.95 C
Sensor: Nr:Datum:Temp:Feuchte:Taupunkt:
Aussen-T/F 3026 28-02-2019 12:05:00 12.8 C 69 % 7.26 C
3027 28-02-2019 12:10:00 12.8 C 68 % 7.05 C
3028 28-02-2019 12:15:00 12.9 C 68 % 7.14 C
3029 28-02-2019 12:20:00 13 C 68 % 7.24 C
3030 28-02-2019 12:25:00 13.1 C 67 % 7.12 C
3031 28-02-2019 12:30:00 13.2 C 67 % 7.21 C
3032 28-02-2019 12:35:00 13.4 C 68 % 7.62 C
3033 28-02-2019 12:40:00 13.7 C 66 % 7.47 C
3034 28-02-2019 12:45:00 13.8 C 66 % 7.57 C
3035 28-02-2019 12:50:00 13.9 C 66 % 7.66 C
3036 28-02-2019 12:55:00 13.9 C 66 % 7.66 C
3037 28-02-2019 13:00:00 14.1 C 66 % 7.85 C
3038 28-02-2019 13:05:00 14.2 C 65 % 7.72 C
3039 28-02-2019 13:10:00 14.3 C 66 % 8.04 C
3040 28-02-2019 13:15:00 14.5 C 64 % 7.78 C
3041 28-02-2019 13:20:00 14.7 C 65 % 8.2 C
3042 28-02-2019 13:25:00 14.9 C 63 % 7.93 C
3043 28-02-2019 13:30:00 15.1 C 64 % 8.35 C
3044 28-02-2019 13:35:00 15.2 C 63 % 8.21 C
3045 28-02-2019 13:40:00 15.4 C 62 % 8.16 C
3046 28-02-2019 13:45:00 15.6 C 62 % 8.35 C
3047 28-02-2019 13:50:00 15.7 C 61 % 8.21 C
3048 28-02-2019 13:55:00 15.8 C 61 % 8.3 C
3049 28-02-2019 14:00:00 16 C 62 % 8.73 C
3050 28-02-2019 14:05:00 16.2 C 61 % 8.68 C
Sensor: Nr:Datum:Temp:Feuchte:Taupunkt:
Aussen-T/F 3051 28-02-2019 14:10:00 16.3 C 61 % 8.77 C
3052 28-02-2019 14:15:00 16.4 C 61 % 8.87 C
3053 28-02-2019 14:20:00 16.4 C 61 % 8.87 C
3054 28-02-2019 14:25:00 16.5 C 61 % 8.96 C
3055 28-02-2019 14:30:00 16.6 C 61 % 9.06 C
3056 28-02-2019 14:35:00 16.7 C 61 % 9.15 C
3057 28-02-2019 14:40:00 16.8 C 61 % 9.24 C
3058 28-02-2019 14:45:00 17.1 C 60 % 9.28 C
3059 28-02-2019 14:50:00 17.2 C 60 % 9.37 C
3060 28-02-2019 14:55:00 17.2 C 60 % 9.37 C
3061 28-02-2019 15:00:00 17.2 C 60 % 9.37 C
3062 28-02-2019 15:05:00 17.1 C 60 % 9.28 C
3063 28-02-2019 15:10:00 17 C 62 % 9.67 C
3064 28-02-2019 15:15:00 17 C 61 % 9.43 C
3065 28-02-2019 15:20:00 16.9 C 61 % 9.34 C
3066 28-02-2019 15:25:00 16.8 C 62 % 9.49 C
3067 28-02-2019 15:30:00 16.8 C 62 % 9.49 C
3068 28-02-2019 15:35:00 16.7 C 62 % 9.39 C
3069 28-02-2019 15:40:00 16.7 C 60 % 8.9 C
3070 28-02-2019 15:45:00 16.5 C 60 % 8.72 C
3071 28-02-2019 15:50:00 16.3 C 61 % 8.77 C
3072 28-02-2019 15:55:00 16.2 C 61 % 8.68 C
3073 28-02-2019 16:00:00 16.2 C 62 % 8.92 C
3074 28-02-2019 16:05:00 16.2 C 64 % 9.39 C
3075 28-02-2019 16:10:00 16.1 C 65 % 9.53 C
Sensor: Nr:Datum:Temp:Feuchte:Taupunkt:
Aussen-T/F 3076 28-02-2019 16:15:00 16 C 66 % 9.66 C
3077 28-02-2019 16:20:00 15.9 C 66 % 9.56 C
3078 28-02-2019 16:25:00 15.7 C 66 % 9.37 C
3079 28-02-2019 16:30:00 15.5 C 67 % 9.41 C
3080 28-02-2019 16:35:00 15.3 C 63 % 8.31 C
3081 28-02-2019 16:40:00 14.7 C 60 % 7.03 C
3082 28-02-2019 16:45:00 14 C 61 % 6.61 C
3083 28-02-2019 16:50:00 13.6 C 63 % 6.7 C
3084 28-02-2019 16:55:00 13.3 C 64 % 6.64 C
3085 28-02-2019 17:00:00 13.1 C 64 % 6.45 C
3086 28-02-2019 17:05:00 13 C 65 % 6.58 C
3087 28-02-2019 17:10:00 12.9 C 66 % 6.71 C
3088 28-02-2019 17:15:00 12.9 C 67 % 6.93 C
3089 28-02-2019 17:20:00 12.8 C 67 % 6.83 C
3090 28-02-2019 17:25:00 12.8 C 68 % 7.05 C
3091 28-02-2019 17:30:00 12.7 C 69 % 7.17 C
3092 28-02-2019 17:35:00 12.6 C 69 % 7.07 C
3093 28-02-2019 17:40:00 12.6 C 69 % 7.07 C
3094 28-02-2019 17:45:00 12.5 C 69 % 6.97 C
3095 28-02-2019 17:50:00 12.5 C 70 % 7.18 C
3096 28-02-2019 17:55:00 12.4 C 70 % 7.09 C
3097 28-02-2019 18:00:00 12.4 C 70 % 7.09 C
3098 28-02-2019 18:05:00 12.4 C 70 % 7.09 C
3099 28-02-2019 18:10:00 12.3 C 71 % 7.2 C
3100 28-02-2019 18:15:00 12.3 C 71 % 7.2 C
Sensor: Nr:Datum:Temp:Feuchte:Taupunkt:
Aussen-T/F 3101 28-02-2019 18:20:00 12.2 C 71 % 7.1 C
3102 28-02-2019 18:25:00 12.2 C 71 % 7.1 C
3103 28-02-2019 18:30:00 12.1 C 71 % 7.01 C
3104 28-02-2019 18:35:00 12.1 C 72 % 7.21 C
3105 28-02-2019 18:40:00 12 C 72 % 7.12 C
3106 28-02-2019 18:45:00 11.9 C 73 % 7.22 C
3107 28-02-2019 18:50:00 11.9 C 73 % 7.22 C
3108 28-02-2019 18:55:00 11.8 C 73 % 7.12 C
3109 28-02-2019 19:00:00 11.8 C 74 % 7.32 C
3110 28-02-2019 19:05:00 11.7 C 74 % 7.23 C
3111 28-02-2019 19:10:00 11.6 C 74 % 7.13 C
3112 28-02-2019 19:15:00 11.4 C 75 % 7.13 C
3113 28-02-2019 19:20:00 11.3 C 75 % 7.04 C
3114 28-02-2019 19:25:00 11.2 C 75 % 6.94 C
3115 28-02-2019 19:30:00 11.1 C 76 % 7.04 C
3116 28-02-2019 19:35:00 11.1 C 76 % 7.04 C
3117 28-02-2019 19:40:00 11 C 77 % 7.13 C
3118 28-02-2019 19:45:00 11 C 77 % 7.13 C
3119 28-02-2019 19:50:00 11 C 77 % 7.13 C
3120 28-02-2019 19:55:00 11 C 78 % 7.32 C
3121 28-02-2019 20:00:00 11 C 78 % 7.32 C
3122 28-02-2019 20:05:00 11.1 C 78 % 7.41 C
3123 28-02-2019 20:10:00 11.1 C 78 % 7.41 C
3124 28-02-2019 20:15:00 11.1 C 78 % 7.41 C
3125 28-02-2019 20:20:00 11.1 C 78 % 7.41 C
Sensor: Nr:Datum:Temp:Feuchte:Taupunkt:
Aussen-T/F 3126 28-02-2019 20:25:00 11.1 C 79 % 7.6 C
3127 28-02-2019 20:30:00 11.1 C 79 % 7.6 C
3128 28-02-2019 20:35:00 11.1 C 79 % 7.6 C
3129 28-02-2019 20:40:00 11.1 C 79 % 7.6 C
3130 28-02-2019 20:45:00 11.1 C 79 % 7.6 C
3131 28-02-2019 20:50:00 11.1 C 79 % 7.6 C
3132 28-02-2019 20:55:00 11.1 C 79 % 7.6 C
3133 28-02-2019 21:00:00 11.1 C 80 % 7.79 C
3134 28-02-2019 21:05:00 11.1 C 80 % 7.79 C
3135 28-02-2019 21:10:00 11.1 C 81 % 7.97 C
3136 28-02-2019 21:15:00 11 C 81 % 7.87 C
3137 28-02-2019 21:20:00 10.9 C 81 % 7.77 C
3138 28-02-2019 21:25:00 10.9 C 81 % 7.77 C
3139 28-02-2019 21:30:00 10.9 C 81 % 7.77 C
3140 28-02-2019 21:35:00 10.9 C 81 % 7.77 C
3141 28-02-2019 21:40:00 10.9 C 81 % 7.77 C
3142 28-02-2019 21:45:00 10.9 C 81 % 7.77 C
3143 28-02-2019 21:50:00 11 C 81 % 7.87 C
3144 28-02-2019 21:55:00 11 C 80 % 7.69 C
3145 28-02-2019 22:00:00 10.9 C 80 % 7.59 C
3146 28-02-2019 22:05:00 10.9 C 81 % 7.77 C
3147 28-02-2019 22:10:00 10.9 C 81 % 7.77 C
3148 28-02-2019 22:15:00 10.9 C 81 % 7.77 C
3149 28-02-2019 22:20:00 10.9 C 82 % 7.95 C
3150 28-02-2019 22:25:00 10.9 C 82 % 7.95 C
Sensor: Nr:Datum:Temp:Feuchte:Taupunkt:
Aussen-T/F 3151 28-02-2019 22:30:00 10.8 C 82 % 7.85 C
3152 28-02-2019 22:35:00 10.8 C 82 % 7.85 C
3153 28-02-2019 22:40:00 10.8 C 82 % 7.85 C
3154 28-02-2019 22:45:00 10.8 C 82 % 7.85 C
3155 28-02-2019 22:50:00 10.8 C 83 % 8.03 C
3156 28-02-2019 22:55:00 10.7 C 83 % 7.93 C
3157 28-02-2019 23:00:00 10.7 C 83 % 7.93 C
3158 28-02-2019 23:05:00 10.7 C 83 % 7.93 C
3159 28-02-2019 23:10:00 10.7 C 84 % 8.11 C
3160 28-02-2019 23:15:00 10.6 C 85 % 8.19 C
3161 28-02-2019 23:20:00 10.6 C 85 % 8.19 C
3162 28-02-2019 23:25:00 10.4 C 86 % 8.16 C
3163 28-02-2019 23:30:00 10.3 C 87 % 8.23 C
3164 28-02-2019 23:35:00 10.2 C 88 % 8.3 C
3165 28-02-2019 23:40:00 9.9 C 89 % 8.17 C
3166 28-02-2019 23:45:00 9.8 C 89 % 8.08 C
3167 28-02-2019 23:50:00 9.7 C 90 % 8.14 C
3168 28-02-2019 23:55:00 9.6 C 90 % 8.04 C
3169 01-03-2019 00:00:00 9.5 C 91 % 8.11 C
3170 01-03-2019 00:05:00 9.4 C 91 % 8.01 C
3171 01-03-2019 00:10:00 9.3 C 92 % 8.07 C
3172 01-03-2019 00:15:00 9.3 C 92 % 8.07 C
3173 01-03-2019 00:20:00 9.2 C 92 % 7.97 C
3174 01-03-2019 00:25:00 9.1 C 92 % 7.87 C
3175 01-03-2019 00:30:00 9.1 C 92 % 7.87 C
Sensor: Nr:Datum:Temp:Feuchte:Taupunkt:
Aussen-T/F 3176 01-03-2019 00:35:00 9 C 92 % 7.77 C
3177 01-03-2019 00:40:00 8.9 C 92 % 7.67 C
3178 01-03-2019 00:45:00 8.8 C 92 % 7.57 C
3179 01-03-2019 00:50:00 8.7 C 92 % 7.47 C
3180 01-03-2019 00:55:00 8.6 C 93 % 7.53 C
3181 01-03-2019 01:00:00 8.6 C 93 % 7.53 C
3182 01-03-2019 01:05:00 8.7 C 93 % 7.63 C
3183 01-03-2019 01:10:00 8.8 C 94 % 7.89 C
3184 01-03-2019 01:15:00 8.8 C 94 % 7.89 C
3185 01-03-2019 01:20:00 8.8 C 94 % 7.89 C
3186 01-03-2019 01:25:00 8.7 C 94 % 7.79 C
3187 01-03-2019 01:30:00 8.7 C 94 % 7.79 C
3188 01-03-2019 01:35:00 8.7 C 94 % 7.79 C
3189 01-03-2019 01:40:00 8.6 C 93 % 7.53 C
3190 01-03-2019 01:45:00 8.6 C 94 % 7.69 C
3191 01-03-2019 01:50:00 8.6 C 94 % 7.69 C
3192 01-03-2019 01:55:00 8.6 C 94 % 7.69 C
3193 01-03-2019 02:00:00 8.6 C 94 % 7.69 C
3194 01-03-2019 02:05:00 8.6 C 94 % 7.69 C
3195 01-03-2019 02:10:00 8.7 C 94 % 7.79 C
3196 01-03-2019 02:15:00 8.7 C 94 % 7.79 C
3197 01-03-2019 02:20:00 8.7 C 93 % 7.63 C
3198 01-03-2019 02:25:00 8.7 C 93 % 7.63 C
3199 01-03-2019 02:30:00 8.8 C 93 % 7.73 C
3200 01-03-2019 02:35:00 8.7 C 93 % 7.63 C
Sensor: Nr:Datum:Temp:Feuchte:Taupunkt:
Aussen-T/F 3201 01-03-2019 02:40:00 8.7 C 93 % 7.63 C
3202 01-03-2019 02:45:00 8.7 C 93 % 7.63 C
3203 01-03-2019 02:50:00 8.7 C 93 % 7.63 C
3204 01-03-2019 02:55:00 8.7 C 93 % 7.63 C
3205 01-03-2019 03:00:00 8.7 C 92 % 7.47 C
3206 01-03-2019 03:05:00 8.8 C 92 % 7.57 C
3207 01-03-2019 03:10:00 8.7 C 92 % 7.47 C
3208 01-03-2019 03:15:00 8.7 C 92 % 7.47 C
3209 01-03-2019 03:20:00 8.8 C 92 % 7.57 C
3210 01-03-2019 03:25:00 8.8 C 92 % 7.57 C
3211 01-03-2019 03:30:00 8.8 C 91 % 7.41 C
3212 01-03-2019 03:35:00 8.9 C 91 % 7.51 C
3213 01-03-2019 03:40:00 8.9 C 91 % 7.51 C
3214 01-03-2019 03:45:00 8.9 C 91 % 7.51 C
3215 01-03-2019 03:50:00 8.8 C 91 % 7.41 C
3216 01-03-2019 03:55:00 8.8 C 91 % 7.41 C
3217 01-03-2019 04:00:00 8.8 C 91 % 7.41 C
3218 01-03-2019 04:05:00 8.8 C 91 % 7.41 C
3219 01-03-2019 04:10:00 8.8 C 91 % 7.41 C
3220 01-03-2019 04:15:00 8.8 C 91 % 7.41 C
3221 01-03-2019 04:20:00 8.8 C 91 % 7.41 C
3222 01-03-2019 04:25:00 8.8 C 91 % 7.41 C
3223 01-03-2019 04:30:00 8.8 C 91 % 7.41 C
3224 01-03-2019 04:35:00 8.7 C 91 % 7.32 C
3225 01-03-2019 04:40:00 8.7 C 91 % 7.32 C
Sensor: Nr:Datum:Temp:Feuchte:Taupunkt:
Aussen-T/F 3226 01-03-2019 04:45:00 8.7 C 91 % 7.32 C
3227 01-03-2019 04:50:00 8.7 C 91 % 7.32 C
3228 01-03-2019 04:55:00 8.7 C 91 % 7.32 C
3229 01-03-2019 05:00:00 8.7 C 91 % 7.32 C
3230 01-03-2019 05:05:00 8.7 C 91 % 7.32 C
3231 01-03-2019 05:10:00 8.7 C 91 % 7.32 C
3232 01-03-2019 05:15:00 8.7 C 91 % 7.32 C
3233 01-03-2019 05:20:00 8.7 C 91 % 7.32 C
3234 01-03-2019 05:25:00 8.7 C 92 % 7.47 C
3235 01-03-2019 05:30:00 8.7 C 92 % 7.47 C
3236 01-03-2019 05:35:00 8.6 C 92 % 7.38 C
3237 01-03-2019 05:40:00 8.6 C 92 % 7.38 C
3238 01-03-2019 05:45:00 8.5 C 92 % 7.28 C
3239 01-03-2019 05:50:00 8.5 C 93 % 7.43 C
3240 01-03-2019 05:55:00 8.5 C 93 % 7.43 C
3241 01-03-2019 06:00:00 8.4 C 93 % 7.34 C
3242 01-03-2019 06:05:00 8.4 C 93 % 7.34 C
3243 01-03-2019 06:10:00 8.4 C 93 % 7.34 C
3244 01-03-2019 06:15:00 8.3 C 94 % 7.39 C
3245 01-03-2019 06:20:00 8.3 C 93 % 7.24 C
3246 01-03-2019 06:25:00 8.2 C 93 % 7.14 C
3247 01-03-2019 06:30:00 8.2 C 94 % 7.29 C
3248 01-03-2019 06:35:00 8.1 C 94 % 7.19 C
3249 01-03-2019 06:40:00 8.1 C 94 % 7.19 C
3250 01-03-2019 06:45:00 8.1 C 94 % 7.19 C
Sensor: Nr:Datum:Temp:Feuchte:Taupunkt:
Aussen-T/F 3251 01-03-2019 06:50:00 8 C 94 % 7.09 C
3252 01-03-2019 06:55:00 8 C 94 % 7.09 C
3253 01-03-2019 07:00:00 8 C 94 % 7.09 C
3254 01-03-2019 07:05:00 8.1 C 95 % 7.35 C
3255 01-03-2019 07:10:00 8.1 C 95 % 7.35 C
3256 01-03-2019 07:15:00 8.2 C 95 % 7.45 C
3257 01-03-2019 07:20:00 8.2 C 95 % 7.45 C
3258 01-03-2019 07:25:00 8.2 C 95 % 7.45 C
3259 01-03-2019 07:30:00 8.3 C 95 % 7.55 C
3260 01-03-2019 07:35:00 8.3 C 95 % 7.55 C
3261 01-03-2019 07:40:00 8.3 C 95 % 7.55 C
3262 01-03-2019 07:45:00 8.3 C 95 % 7.55 C
3263 01-03-2019 07:50:00 8.3 C 95 % 7.55 C
3264 01-03-2019 07:55:00 8.3 C 95 % 7.55 C
3265 01-03-2019 08:00:00 8.3 C 95 % 7.55 C
3266 01-03-2019 08:05:00 8.3 C 95 % 7.55 C
3267 01-03-2019 08:10:00 8.4 C 95 % 7.65 C
3268 01-03-2019 08:15:00 8.4 C 95 % 7.65 C
3269 01-03-2019 08:20:00 8.5 C 95 % 7.75 C
3270 01-03-2019 08:25:00 8.6 C 95 % 7.85 C
3271 01-03-2019 08:30:00 8.6 C 95 % 7.85 C
3272 01-03-2019 08:35:00 8.6 C 95 % 7.85 C
3273 01-03-2019 08:40:00 8.6 C 95 % 7.85 C
3274 01-03-2019 08:45:00 8.7 C 95 % 7.94 C
3275 01-03-2019 08:50:00 8.7 C 95 % 7.94 C
Sensor: Nr:Datum:Temp:Feuchte:Taupunkt:
Aussen-T/F 3276 01-03-2019 08:55:00 8.7 C 95 % 7.94 C
3277 01-03-2019 09:00:00 8.7 C 95 % 7.94 C
3278 01-03-2019 09:05:00 8.7 C 95 % 7.94 C
3279 01-03-2019 09:10:00 8.7 C 95 % 7.94 C
3280 01-03-2019 09:15:00 8.7 C 95 % 7.94 C
3281 01-03-2019 09:20:00 8.7 C 95 % 7.94 C
3282 01-03-2019 09:25:00 8.7 C 95 % 7.94 C
3283 01-03-2019 09:30:00 8.7 C 95 % 7.94 C
3284 01-03-2019 09:35:00 8.7 C 95 % 7.94 C
3285 01-03-2019 09:40:00 8.7 C 95 % 7.94 C
3286 01-03-2019 09:45:00 8.7 C 95 % 7.94 C
3287 01-03-2019 09:50:00 8.6 C 95 % 7.85 C
3288 01-03-2019 09:55:00 8.6 C 95 % 7.85 C
3289 01-03-2019 10:00:00 8.6 C 95 % 7.85 C
3290 01-03-2019 10:05:00 8.6 C 96 % 8 C
3291 01-03-2019 10:10:00 8.6 C 96 % 8 C
3292 01-03-2019 10:15:00 8.6 C 96 % 8 C
3293 01-03-2019 10:20:00 8.6 C 96 % 8 C
3294 01-03-2019 10:25:00 8.6 C 96 % 8 C
3295 01-03-2019 10:30:00 8.6 C 96 % 8 C
3296 01-03-2019 10:35:00 8.7 C 96 % 8.1 C
3297 01-03-2019 10:40:00 8.7 C 96 % 8.1 C
3298 01-03-2019 10:45:00 8.8 C 96 % 8.2 C
3299 01-03-2019 10:50:00 8.8 C 96 % 8.2 C
3300 01-03-2019 10:55:00 8.8 C 96 % 8.2 C
Sensor: Nr:Datum:Temp:Feuchte:Taupunkt:
Aussen-T/F 3301 01-03-2019 11:00:00 8.8 C 96 % 8.2 C
3302 01-03-2019 11:05:00 8.7 C 95 % 7.94 C
3303 01-03-2019 11:10:00 8.7 C 95 % 7.94 C
3304 01-03-2019 11:15:00 8.7 C 95 % 7.94 C
3305 01-03-2019 11:20:00 8.7 C 95 % 7.94 C
3306 01-03-2019 11:25:00 8.7 C 95 % 7.94 C
3307 01-03-2019 11:30:00 8.6 C 95 % 7.85 C
3308 01-03-2019 11:35:00 8.7 C 95 % 7.94 C
3309 01-03-2019 11:40:00 8.7 C 95 % 7.94 C
3310 01-03-2019 11:45:00 8.8 C 95 % 8.04 C
3311 01-03-2019 11:50:00 8.9 C 95 % 8.14 C
3312 01-03-2019 11:55:00 9.1 C 95 % 8.34 C
3313 01-03-2019 12:00:00 9.1 C 94 % 8.19 C
3314 01-03-2019 12:05:00 9.1 C 94 % 8.19 C
3315 01-03-2019 12:10:00 9.1 C 93 % 8.03 C
3316 01-03-2019 12:15:00 9.1 C 92 % 7.87 C
3317 01-03-2019 12:20:00 9.1 C 92 % 7.87 C
3318 01-03-2019 12:25:00 9.1 C 91 % 7.71 C
3319 01-03-2019 12:30:00 9 C 91 % 7.61 C
3320 01-03-2019 12:35:00 9.1 C 90 % 7.55 C
3321 01-03-2019 12:40:00 9 C 90 % 7.45 C
3322 01-03-2019 12:45:00 8.9 C 90 % 7.35 C
3323 01-03-2019 12:50:00 8.8 C 90 % 7.25 C
3324 01-03-2019 12:55:00 8.8 C 90 % 7.25 C
3325 01-03-2019 13:00:00 8.7 C 91 % 7.32 C
Sensor: Nr:Datum:Temp:Feuchte:Taupunkt:
Aussen-T/F 3326 01-03-2019 13:05:00 8.7 C 91 % 7.32 C
3327 01-03-2019 13:10:00 8.7 C 91 % 7.32 C
3328 01-03-2019 13:15:00 8.6 C 91 % 7.22 C
3329 01-03-2019 13:20:00 8.5 C 91 % 7.12 C
3330 01-03-2019 13:25:00 8.4 C 91 % 7.02 C
3331 01-03-2019 13:30:00 8.4 C 92 % 7.18 C
3332 01-03-2019 13:35:00 8.4 C 92 % 7.18 C
3333 01-03-2019 13:40:00 8.3 C 92 % 7.08 C
3334 01-03-2019 13:45:00 8.4 C 92 % 7.18 C
3335 01-03-2019 13:50:00 8.4 C 92 % 7.18 C
3336 01-03-2019 13:55:00 8.4 C 92 % 7.18 C
3337 01-03-2019 14:00:00 8.4 C 92 % 7.18 C
3338 01-03-2019 14:05:00 8.4 C 92 % 7.18 C
3339 01-03-2019 14:10:00 8.4 C 92 % 7.18 C
3340 01-03-2019 14:15:00 8.3 C 91 % 6.92 C
3341 01-03-2019 14:20:00 8.4 C 91 % 7.02 C
3342 01-03-2019 14:25:00 8.4 C 91 % 7.02 C
3343 01-03-2019 14:30:00 8.3 C 90 % 6.76 C
3344 01-03-2019 14:35:00 8.4 C 90 % 6.86 C
3345 01-03-2019 14:40:00 8.4 C 89 % 6.7 C
3346 01-03-2019 14:45:00 8.4 C 89 % 6.7 C
3347 01-03-2019 14:50:00 8.4 C 89 % 6.7 C
3348 01-03-2019 14:55:00 8.4 C 89 % 6.7 C
3349 01-03-2019 15:00:00 8.4 C 89 % 6.7 C
3350 01-03-2019 15:05:00 8.4 C 89 % 6.7 C
Sensor: Nr:Datum:Temp:Feuchte:Taupunkt:
Aussen-T/F 3351 01-03-2019 15:10:00 8.4 C 90 % 6.86 C
3352 01-03-2019 15:15:00 8.3 C 89 % 6.6 C
3353 01-03-2019 15:20:00 8.3 C 89 % 6.6 C
3354 01-03-2019 15:25:00 8.3 C 90 % 6.76 C
3355 01-03-2019 15:30:00 8.3 C 90 % 6.76 C
3356 01-03-2019 15:35:00 8.3 C 90 % 6.76 C
3357 01-03-2019 15:40:00 8.3 C 90 % 6.76 C
3358 01-03-2019 15:45:00 8.3 C 90 % 6.76 C
3359 01-03-2019 15:50:00 8.3 C 90 % 6.76 C
3360 01-03-2019 15:55:00 8.3 C 90 % 6.76 C
3361 01-03-2019 16:00:00 8.3 C 90 % 6.76 C
3362 01-03-2019 16:05:00 8.4 C 90 % 6.86 C
3363 01-03-2019 16:10:00 8.4 C 90 % 6.86 C
3364 01-03-2019 16:15:00 8.4 C 90 % 6.86 C
3365 01-03-2019 16:20:00 8.4 C 90 % 6.86 C
3366 01-03-2019 16:25:00 8.3 C 91 % 6.92 C
3367 01-03-2019 16:30:00 8.3 C 91 % 6.92 C
3368 01-03-2019 16:35:00 8.3 C 90 % 6.76 C
3369 01-03-2019 16:40:00 8.3 C 91 % 6.92 C
3370 01-03-2019 16:45:00 8.3 C 91 % 6.92 C
3371 01-03-2019 16:50:00 8.4 C 91 % 7.02 C
3372 01-03-2019 16:55:00 8.3 C 91 % 6.92 C
3373 01-03-2019 17:00:00 8.3 C 91 % 6.92 C
3374 01-03-2019 17:05:00 8.3 C 91 % 6.92 C
3375 01-03-2019 17:10:00 8.3 C 91 % 6.92 C
Sensor: Nr:Datum:Temp:Feuchte:Taupunkt:
Aussen-T/F 3376 01-03-2019 17:15:00 8.3 C 91 % 6.92 C
3377 01-03-2019 17:20:00 8.3 C 91 % 6.92 C
3378 01-03-2019 17:25:00 8.3 C 91 % 6.92 C
3379 01-03-2019 17:30:00 8.2 C 91 % 6.82 C
3380 01-03-2019 17:35:00 8.2 C 91 % 6.82 C
3381 01-03-2019 17:40:00 8.3 C 91 % 6.92 C
3382 01-03-2019 17:45:00 8.3 C 91 % 6.92 C
3383 01-03-2019 17:50:00 8.3 C 91 % 6.92 C
3384 01-03-2019 17:55:00 8.3 C 91 % 6.92 C
3385 01-03-2019 18:00:00 8.2 C 90 % 6.66 C
3386 01-03-2019 18:05:00 8 C 90 % 6.46 C
3387 01-03-2019 18:10:00 7.8 C 90 % 6.27 C
3388 01-03-2019 18:15:00 7.8 C 90 % 6.27 C
3389 01-03-2019 18:20:00 7.7 C 89 % 6 C
3390 01-03-2019 18:25:00 7.6 C 89 % 5.91 C
3391 01-03-2019 18:30:00 7.6 C 89 % 5.91 C
3392 01-03-2019 18:35:00 7.5 C 89 % 5.81 C
3393 01-03-2019 18:40:00 7.4 C 89 % 5.71 C
3394 01-03-2019 18:45:00 7.3 C 89 % 5.61 C
3395 01-03-2019 18:50:00 7.3 C 89 % 5.61 C
3396 01-03-2019 18:55:00 7.2 C 90 % 5.67 C
3397 01-03-2019 19:00:00 7.2 C 90 % 5.67 C
3398 01-03-2019 19:05:00 7.1 C 90 % 5.57 C
3399 01-03-2019 19:10:00 7.1 C 89 % 5.41 C
3400 01-03-2019 19:15:00 7 C 90 % 5.48 C
Sensor: Nr:Datum:Temp:Feuchte:Taupunkt:
Aussen-T/F 3401 01-03-2019 19:20:00 6.9 C 90 % 5.38 C
3402 01-03-2019 19:25:00 6.9 C 90 % 5.38 C
3403 01-03-2019 19:30:00 6.8 C 90 % 5.28 C
3404 01-03-2019 19:35:00 6.8 C 90 % 5.28 C
3405 01-03-2019 19:40:00 6.8 C 90 % 5.28 C
3406 01-03-2019 19:45:00 6.8 C 90 % 5.28 C
3407 01-03-2019 19:50:00 6.7 C 90 % 5.18 C
3408 01-03-2019 19:55:00 6.7 C 90 % 5.18 C
3409 01-03-2019 20:00:00 6.7 C 91 % 5.34 C
3410 01-03-2019 20:05:00 6.7 C 91 % 5.34 C
3411 01-03-2019 20:10:00 6.7 C 91 % 5.34 C
3412 01-03-2019 20:15:00 6.7 C 91 % 5.34 C
3413 01-03-2019 20:20:00 6.6 C 91 % 5.24 C
3414 01-03-2019 20:25:00 6.6 C 91 % 5.24 C
3415 01-03-2019 20:30:00 6.6 C 91 % 5.24 C
3416 01-03-2019 20:35:00 6.6 C 91 % 5.24 C
3417 01-03-2019 20:40:00 6.6 C 91 % 5.24 C
3418 01-03-2019 20:45:00 6.6 C 91 % 5.24 C
3419 01-03-2019 20:50:00 6.6 C 91 % 5.24 C
3420 01-03-2019 20:55:00 6.5 C 91 % 5.14 C
3421 01-03-2019 21:00:00 6.5 C 91 % 5.14 C
3422 01-03-2019 21:05:00 6.5 C 91 % 5.14 C
3423 01-03-2019 21:10:00 6.4 C 91 % 5.04 C
3424 01-03-2019 21:15:00 6.4 C 91 % 5.04 C
3425 01-03-2019 21:20:00 6.4 C 91 % 5.04 C
Sensor: Nr:Datum:Temp:Feuchte:Taupunkt:
Aussen-T/F 3426 01-03-2019 21:25:00 6.4 C 91 % 5.04 C
3427 01-03-2019 21:30:00 6.5 C 90 % 4.98 C
3428 01-03-2019 21:35:00 6.5 C 91 % 5.14 C
3429 01-03-2019 21:40:00 6.5 C 91 % 5.14 C
3430 01-03-2019 21:45:00 6.5 C 90 % 4.98 C
3431 01-03-2019 21:50:00 6.4 C 90 % 4.88 C
3432 01-03-2019 21:55:00 6.4 C 90 % 4.88 C
3433 01-03-2019 22:00:00 6.4 C 90 % 4.88 C
3434 01-03-2019 22:05:00 6.4 C 91 % 5.04 C
3435 01-03-2019 22:10:00 6.3 C 91 % 4.94 C
3436 01-03-2019 22:15:00 6.3 C 91 % 4.94 C
3437 01-03-2019 22:20:00 6.3 C 91 % 4.94 C
3438 01-03-2019 22:25:00 6.3 C 91 % 4.94 C
3439 01-03-2019 22:30:00 6.3 C 91 % 4.94 C
3440 01-03-2019 22:35:00 6.3 C 90 % 4.78 C
3441 01-03-2019 22:40:00 6.4 C 90 % 4.88 C
3442 01-03-2019 22:45:00 6.4 C 89 % 4.72 C
3443 01-03-2019 22:50:00 6.5 C 89 % 4.82 C
3444 01-03-2019 22:55:00 6.6 C 88 % 4.76 C
3445 01-03-2019 23:00:00 6.6 C 88 % 4.76 C
3446 01-03-2019 23:05:00 6.7 C 88 % 4.86 C
3447 01-03-2019 23:10:00 6.7 C 88 % 4.86 C
3448 01-03-2019 23:15:00 6.6 C 88 % 4.76 C
3449 01-03-2019 23:20:00 6.6 C 88 % 4.76 C
3450 01-03-2019 23:25:00 6.6 C 88 % 4.76 C
Sensor: Nr:Datum:Temp:Feuchte:Taupunkt:
Aussen-T/F 3451 01-03-2019 23:30:00 6.6 C 88 % 4.76 C
3452 01-03-2019 23:35:00 6.5 C 89 % 4.82 C
3453 01-03-2019 23:40:00 6.4 C 89 % 4.72 C
3454 01-03-2019 23:45:00 6.4 C 89 % 4.72 C
3455 01-03-2019 23:50:00 6.4 C 90 % 4.88 C
3456 01-03-2019 23:55:00 6.3 C 90 % 4.78 C
3457 02-03-2019 00:00:00 6.3 C 90 % 4.78 C
3458 02-03-2019 00:05:00 6.3 C 89 % 4.62 C
3459 02-03-2019 00:10:00 6.2 C 90 % 4.69 C
3460 02-03-2019 00:15:00 6.2 C 90 % 4.69 C
3461 02-03-2019 00:20:00 6.2 C 90 % 4.69 C
3462 02-03-2019 00:25:00 6.2 C 90 % 4.69 C
3463 02-03-2019 00:30:00 6.2 C 90 % 4.69 C
3464 02-03-2019 00:35:00 6.2 C 89 % 4.53 C
3465 02-03-2019 00:40:00 6.2 C 88 % 4.36 C
3466 02-03-2019 00:45:00 6.1 C 88 % 4.27 C
3467 02-03-2019 00:50:00 6.1 C 88 % 4.27 C
3468 02-03-2019 00:55:00 6.1 C 88 % 4.27 C
3469 02-03-2019 01:00:00 6.1 C 88 % 4.27 C
3470 02-03-2019 01:05:00 6 C 88 % 4.17 C
3471 02-03-2019 01:10:00 5.9 C 88 % 4.07 C
3472 02-03-2019 01:15:00 5.9 C 89 % 4.23 C
3473 02-03-2019 01:20:00 5.9 C 89 % 4.23 C
3474 02-03-2019 01:25:00 5.8 C 89 % 4.13 C
3475 02-03-2019 01:30:00 5.8 C 89 % 4.13 C
Sensor: Nr:Datum:Temp:Feuchte:Taupunkt:
Aussen-T/F 3476 02-03-2019 01:35:00 5.8 C 89 % 4.13 C
3477 02-03-2019 01:40:00 5.8 C 90 % 4.29 C
3478 02-03-2019 01:45:00 5.8 C 90 % 4.29 C
3479 02-03-2019 01:50:00 5.7 C 90 % 4.19 C
3480 02-03-2019 01:55:00 5.7 C 90 % 4.19 C
3481 02-03-2019 02:00:00 5.7 C 90 % 4.19 C
3482 02-03-2019 02:05:00 5.7 C 90 % 4.19 C
3483 02-03-2019 02:10:00 5.7 C 91 % 4.35 C
3484 02-03-2019 02:15:00 5.7 C 91 % 4.35 C
3485 02-03-2019 02:20:00 5.7 C 91 % 4.35 C
3486 02-03-2019 02:25:00 5.6 C 90 % 4.09 C
3487 02-03-2019 02:30:00 5.6 C 91 % 4.25 C
3488 02-03-2019 02:35:00 5.6 C 91 % 4.25 C
3489 02-03-2019 02:40:00 5.6 C 91 % 4.25 C
3490 02-03-2019 02:45:00 5.6 C 91 % 4.25 C
3491 02-03-2019 02:50:00 5.6 C 91 % 4.25 C
3492 02-03-2019 02:55:00 5.6 C 91 % 4.25 C
3493 02-03-2019 03:00:00 5.6 C 91 % 4.25 C
3494 02-03-2019 03:05:00 5.6 C 91 % 4.25 C
3495 02-03-2019 03:10:00 5.6 C 91 % 4.25 C
3496 02-03-2019 03:15:00 5.6 C 91 % 4.25 C
3497 02-03-2019 03:20:00 5.6 C 91 % 4.25 C
3498 02-03-2019 03:25:00 5.6 C 91 % 4.25 C
3499 02-03-2019 03:30:00 5.7 C 91 % 4.35 C
3500 02-03-2019 03:35:00 5.7 C 91 % 4.35 C
Sensor: Nr:Datum:Temp:Feuchte:Taupunkt:
Aussen-T/F 3501 02-03-2019 03:40:00 5.7 C 90 % 4.19 C
3502 02-03-2019 03:45:00 5.7 C 90 % 4.19 C
3503 02-03-2019 03:50:00 5.7 C 90 % 4.19 C
3504 02-03-2019 03:55:00 5.7 C 90 % 4.19 C
3505 02-03-2019 04:00:00 5.7 C 90 % 4.19 C
3506 02-03-2019 04:05:00 5.7 C 91 % 4.35 C
3507 02-03-2019 04:10:00 5.7 C 91 % 4.35 C
3508 02-03-2019 04:15:00 5.6 C 90 % 4.09 C
3509 02-03-2019 04:20:00 5.6 C 91 % 4.25 C
3510 02-03-2019 04:25:00 5.6 C 91 % 4.25 C
3511 02-03-2019 04:30:00 5.7 C 91 % 4.35 C
3512 02-03-2019 04:35:00 5.7 C 91 % 4.35 C
3513 02-03-2019 04:40:00 5.7 C 91 % 4.35 C
3514 02-03-2019 04:45:00 5.8 C 92 % 4.6 C
3515 02-03-2019 04:50:00 5.8 C 91 % 4.45 C
3516 02-03-2019 04:55:00 5.8 C 91 % 4.45 C
3517 02-03-2019 05:00:00 5.8 C 91 % 4.45 C
3518 02-03-2019 05:05:00 5.9 C 91 % 4.55 C
3519 02-03-2019 05:10:00 5.9 C 91 % 4.55 C
3520 02-03-2019 05:15:00 5.9 C 91 % 4.55 C
3521 02-03-2019 05:20:00 6 C 91 % 4.65 C
3522 02-03-2019 05:25:00 6.1 C 91 % 4.74 C
3523 02-03-2019 05:30:00 6.2 C 91 % 4.84 C
3524 02-03-2019 05:35:00 6.3 C 91 % 4.94 C
3525 02-03-2019 05:40:00 6.3 C 91 % 4.94 C
Sensor: Nr:Datum:Temp:Feuchte:Taupunkt:
Aussen-T/F 3526 02-03-2019 05:45:00 6.3 C 91 % 4.94 C
3527 02-03-2019 05:50:00 6.3 C 91 % 4.94 C
3528 02-03-2019 05:55:00 6.3 C 91 % 4.94 C
3529 02-03-2019 06:00:00 6.3 C 91 % 4.94 C
3530 02-03-2019 06:05:00 6.3 C 91 % 4.94 C
3531 02-03-2019 06:10:00 6.3 C 91 % 4.94 C
3532 02-03-2019 06:15:00 6.3 C 91 % 4.94 C
3533 02-03-2019 06:20:00 6.3 C 91 % 4.94 C
3534 02-03-2019 06:25:00 6.3 C 91 % 4.94 C
3535 02-03-2019 06:30:00 6.3 C 91 % 4.94 C
3536 02-03-2019 06:35:00 6.3 C 91 % 4.94 C
3537 02-03-2019 06:40:00 6.3 C 91 % 4.94 C
3538 02-03-2019 06:45:00 6.3 C 91 % 4.94 C
3539 02-03-2019 06:50:00 6.3 C 91 % 4.94 C
3540 02-03-2019 06:55:00 6.4 C 91 % 5.04 C
3541 02-03-2019 07:00:00 6.4 C 91 % 5.04 C
3542 02-03-2019 07:05:00 6.6 C 91 % 5.24 C
3543 02-03-2019 07:10:00 6.6 C 91 % 5.24 C
3544 02-03-2019 07:15:00 6.6 C 91 % 5.24 C
3545 02-03-2019 07:20:00 6.7 C 91 % 5.34 C
3546 02-03-2019 07:25:00 6.7 C 91 % 5.34 C
3547 02-03-2019 07:30:00 6.7 C 91 % 5.34 C
3548 02-03-2019 07:35:00 6.7 C 91 % 5.34 C
3549 02-03-2019 07:40:00 6.7 C 91 % 5.34 C
3550 02-03-2019 07:45:00 6.7 C 91 % 5.34 C
Sensor: Nr:Datum:Temp:Feuchte:Taupunkt:
Aussen-T/F 3551 02-03-2019 07:50:00 6.7 C 91 % 5.34 C
3552 02-03-2019 07:55:00 6.7 C 91 % 5.34 C
3553 02-03-2019 08:00:00 6.8 C 91 % 5.44 C
3554 02-03-2019 08:05:00 6.8 C 91 % 5.44 C
3555 02-03-2019 08:10:00 6.8 C 91 % 5.44 C
3556 02-03-2019 08:15:00 6.9 C 90 % 5.38 C
3557 02-03-2019 08:20:00 6.9 C 91 % 5.54 C
3558 02-03-2019 08:25:00 7 C 91 % 5.63 C
3559 02-03-2019 08:30:00 7.1 C 90 % 5.57 C
3560 02-03-2019 08:35:00 7.1 C 90 % 5.57 C
3561 02-03-2019 08:40:00 7.1 C 90 % 5.57 C
3562 02-03-2019 08:45:00 7.2 C 90 % 5.67 C
3563 02-03-2019 08:50:00 7.2 C 90 % 5.67 C
3564 02-03-2019 08:55:00 7.3 C 90 % 5.77 C
3565 02-03-2019 09:00:00 7.3 C 90 % 5.77 C
3566 02-03-2019 09:05:00 7.4 C 90 % 5.87 C
3567 02-03-2019 09:10:00 7.5 C 90 % 5.97 C
3568 02-03-2019 09:15:00 7.6 C 89 % 5.91 C
3569 02-03-2019 09:20:00 7.6 C 89 % 5.91 C
3570 02-03-2019 09:25:00 7.7 C 89 % 6 C
3571 02-03-2019 09:30:00 7.7 C 89 % 6 C
3572 02-03-2019 09:35:00 7.8 C 89 % 6.1 C
3573 02-03-2019 09:40:00 7.8 C 88 % 5.94 C
3574 02-03-2019 09:45:00 7.8 C 88 % 5.94 C
3575 02-03-2019 09:50:00 7.9 C 88 % 6.04 C
Sensor: Nr:Datum:Temp:Feuchte:Taupunkt:
Aussen-T/F 3576 02-03-2019 09:55:00 7.9 C 88 % 6.04 C
3577 02-03-2019 10:00:00 7.9 C 88 % 6.04 C
3578 02-03-2019 10:05:00 7.9 C 88 % 6.04 C
3579 02-03-2019 10:10:00 7.9 C 88 % 6.04 C
3580 02-03-2019 10:15:00 7.9 C 88 % 6.04 C
3581 02-03-2019 10:20:00 7.9 C 88 % 6.04 C
3582 02-03-2019 10:25:00 8 C 88 % 6.14 C
3583 02-03-2019 10:30:00 8.1 C 88 % 6.24 C
3584 02-03-2019 10:35:00 8.1 C 87 % 6.07 C
3585 02-03-2019 10:40:00 8.1 C 88 % 6.24 C
3586 02-03-2019 10:45:00 8.2 C 88 % 6.33 C
3587 02-03-2019 10:50:00 8.3 C 87 % 6.27 C
3588 02-03-2019 10:55:00 8.3 C 87 % 6.27 C
3589 02-03-2019 11:00:00 8.4 C 87 % 6.37 C
3590 02-03-2019 11:05:00 8.6 C 87 % 6.56 C
3591 02-03-2019 11:10:00 8.7 C 86 % 6.49 C
3592 02-03-2019 11:15:00 8.7 C 86 % 6.49 C
3593 02-03-2019 11:20:00 8.8 C 86 % 6.59 C
3594 02-03-2019 11:25:00 8.9 C 86 % 6.69 C
3595 02-03-2019 11:30:00 9.1 C 86 % 6.89 C
3596 02-03-2019 11:35:00 9.2 C 85 % 6.81 C
3597 02-03-2019 11:40:00 9.3 C 84 % 6.74 C
3598 02-03-2019 11:45:00 9.3 C 85 % 6.91 C
3599 02-03-2019 11:50:00 9.4 C 84 % 6.84 C
3600 02-03-2019 11:55:00 9.5 C 83 % 6.76 C
Sensor: Nr:Datum:Temp:Feuchte:Taupunkt:
Aussen-T/F 3601 02-03-2019 12:00:00 9.6 C 84 % 7.03 C
3602 02-03-2019 12:05:00 9.7 C 84 % 7.13 C
3603 02-03-2019 12:10:00 9.8 C 84 % 7.23 C
3604 02-03-2019 12:15:00 10 C 83 % 7.25 C
3605 02-03-2019 12:20:00 10.1 C 83 % 7.35 C
3606 02-03-2019 12:25:00 10.1 C 83 % 7.35 C
3607 02-03-2019 12:30:00 10.1 C 82 % 7.17 C
3608 02-03-2019 12:35:00 10.1 C 82 % 7.17 C
3609 02-03-2019 12:40:00 10 C 82 % 7.07 C
3610 02-03-2019 12:45:00 9.9 C 82 % 6.98 C
3611 02-03-2019 12:50:00 9.9 C 83 % 7.15 C
3612 02-03-2019 12:55:00 10 C 82 % 7.07 C
3613 02-03-2019 13:00:00 10 C 82 % 7.07 C
3614 02-03-2019 13:05:00 10.2 C 83 % 7.45 C
3615 02-03-2019 13:10:00 10.4 C 82 % 7.46 C
3616 02-03-2019 13:15:00 10.6 C 81 % 7.48 C
3617 02-03-2019 13:20:00 10.7 C 80 % 7.4 C
3618 02-03-2019 13:25:00 10.7 C 79 % 7.21 C
3619 02-03-2019 13:30:00 10.7 C 79 % 7.21 C
3620 02-03-2019 13:35:00 10.7 C 79 % 7.21 C
3621 02-03-2019 13:40:00 10.7 C 79 % 7.21 C
3622 02-03-2019 13:45:00 10.8 C 79 % 7.31 C
3623 02-03-2019 13:50:00 11 C 78 % 7.32 C
3624 02-03-2019 13:55:00 11.1 C 78 % 7.41 C
3625 02-03-2019 14:00:00 11.1 C 77 % 7.23 C
Sensor: Nr:Datum:Temp:Feuchte:Taupunkt:
Aussen-T/F 3626 02-03-2019 14:05:00 11.2 C 77 % 7.32 C
3627 02-03-2019 14:10:00 11.2 C 77 % 7.32 C
3628 02-03-2019 14:15:00 11.3 C 76 % 7.23 C
3629 02-03-2019 14:20:00 11.4 C 75 % 7.13 C
3630 02-03-2019 14:25:00 11.4 C 75 % 7.13 C
3631 02-03-2019 14:30:00 11.4 C 75 % 7.13 C
3632 02-03-2019 14:35:00 11.5 C 76 % 7.42 C
3633 02-03-2019 14:40:00 11.6 C 75 % 7.33 C
3634 02-03-2019 14:45:00 11.6 C 75 % 7.33 C
3635 02-03-2019 14:50:00 11.6 C 75 % 7.33 C
3636 02-03-2019 14:55:00 11.6 C 74 % 7.13 C
3637 02-03-2019 15:00:00 11.7 C 74 % 7.23 C
3638 02-03-2019 15:05:00 11.7 C 74 % 7.23 C
3639 02-03-2019 15:10:00 11.8 C 73 % 7.12 C
3640 02-03-2019 15:15:00 11.8 C 73 % 7.12 C
3641 02-03-2019 15:20:00 11.8 C 72 % 6.92 C
3642 02-03-2019 15:25:00 11.9 C 72 % 7.02 C
3643 02-03-2019 15:30:00 11.9 C 72 % 7.02 C
3644 02-03-2019 15:35:00 12 C 72 % 7.12 C
3645 02-03-2019 15:40:00 12 C 71 % 6.91 C
3646 02-03-2019 15:45:00 12.1 C 72 % 7.21 C
3647 02-03-2019 15:50:00 12.2 C 72 % 7.31 C
3648 02-03-2019 15:55:00 12.2 C 71 % 7.1 C
3649 02-03-2019 16:00:00 12.3 C 70 % 6.99 C
3650 02-03-2019 16:05:00 12.3 C 70 % 6.99 C
Sensor: Nr:Datum:Temp:Feuchte:Taupunkt:
Aussen-T/F 3651 02-03-2019 16:10:00 12.3 C 70 % 6.99 C
3652 02-03-2019 16:15:00 12.5 C 70 % 7.18 C
3653 02-03-2019 16:20:00 12.6 C 70 % 7.28 C
3654 02-03-2019 16:25:00 12.6 C 70 % 7.28 C
3655 02-03-2019 16:30:00 12.6 C 70 % 7.28 C
3656 02-03-2019 16:35:00 12.4 C 70 % 7.09 C
3657 02-03-2019 16:40:00 12.3 C 71 % 7.2 C
3658 02-03-2019 16:45:00 12.2 C 71 % 7.1 C
3659 02-03-2019 16:50:00 12.1 C 71 % 7.01 C
3660 02-03-2019 16:55:00 12 C 72 % 7.12 C
3661 02-03-2019 17:00:00 11.9 C 73 % 7.22 C
3662 02-03-2019 17:05:00 11.8 C 73 % 7.12 C
3663 02-03-2019 17:10:00 11.7 C 74 % 7.23 C
3664 02-03-2019 17:15:00 11.5 C 74 % 7.03 C
3665 02-03-2019 17:20:00 11.4 C 75 % 7.13 C
3666 02-03-2019 17:25:00 11.3 C 75 % 7.04 C
3667 02-03-2019 17:30:00 11.3 C 76 % 7.23 C
3668 02-03-2019 17:35:00 11.2 C 76 % 7.13 C
3669 02-03-2019 17:40:00 11.2 C 77 % 7.32 C
3670 02-03-2019 17:45:00 11.1 C 77 % 7.23 C
3671 02-03-2019 17:50:00 11 C 78 % 7.32 C
3672 02-03-2019 17:55:00 10.9 C 78 % 7.22 C
3673 02-03-2019 18:00:00 10.8 C 78 % 7.12 C
3674 02-03-2019 18:05:00 10.8 C 79 % 7.31 C
3675 02-03-2019 18:10:00 10.7 C 79 % 7.21 C
Sensor: Nr:Datum:Temp:Feuchte:Taupunkt:
Aussen-T/F 3676 02-03-2019 18:15:00 10.7 C 80 % 7.4 C
3677 02-03-2019 18:20:00 10.6 C 80 % 7.3 C
3678 02-03-2019 18:25:00 10.6 C 80 % 7.3 C
3679 02-03-2019 18:30:00 10.5 C 81 % 7.38 C
3680 02-03-2019 18:35:00 10.5 C 81 % 7.38 C
3681 02-03-2019 18:40:00 10.4 C 82 % 7.46 C
3682 02-03-2019 18:45:00 10.4 C 82 % 7.46 C
3683 02-03-2019 18:50:00 10.3 C 82 % 7.37 C
3684 02-03-2019 18:55:00 10.3 C 83 % 7.54 C
3685 02-03-2019 19:00:00 10.2 C 84 % 7.62 C
3686 02-03-2019 19:05:00 10.1 C 85 % 7.7 C
3687 02-03-2019 19:10:00 10.1 C 85 % 7.7 C
3688 02-03-2019 19:15:00 10 C 86 % 7.77 C
3689 02-03-2019 19:20:00 9.9 C 86 % 7.67 C
3690 02-03-2019 19:25:00 9.8 C 86 % 7.57 C
3691 02-03-2019 19:30:00 9.8 C 86 % 7.57 C
3692 02-03-2019 19:35:00 9.7 C 86 % 7.47 C
3693 02-03-2019 19:40:00 9.7 C 87 % 7.64 C
3694 02-03-2019 19:45:00 9.6 C 87 % 7.55 C
3695 02-03-2019 19:50:00 9.6 C 87 % 7.55 C
3696 02-03-2019 19:55:00 9.6 C 87 % 7.55 C
3697 02-03-2019 20:00:00 9.4 C 87 % 7.35 C
3698 02-03-2019 20:05:00 9.5 C 87 % 7.45 C
3699 02-03-2019 20:10:00 9.5 C 87 % 7.45 C
3700 02-03-2019 20:15:00 9.5 C 87 % 7.45 C
Sensor: Nr:Datum:Temp:Feuchte:Taupunkt:
Aussen-T/F 3701 02-03-2019 20:20:00 9.5 C 87 % 7.45 C
3702 02-03-2019 20:25:00 9.6 C 87 % 7.55 C
3703 02-03-2019 20:30:00 9.6 C 87 % 7.55 C
3704 02-03-2019 20:35:00 9.5 C 87 % 7.45 C
3705 02-03-2019 20:40:00 9.6 C 88 % 7.71 C
3706 02-03-2019 20:45:00 9.6 C 88 % 7.71 C
3707 02-03-2019 20:50:00 9.6 C 87 % 7.55 C
3708 02-03-2019 20:55:00 9.5 C 88 % 7.61 C
3709 02-03-2019 21:00:00 9.5 C 88 % 7.61 C
3710 02-03-2019 21:05:00 9.4 C 88 % 7.52 C
3711 02-03-2019 21:10:00 9.4 C 88 % 7.52 C
3712 02-03-2019 21:15:00 9.6 C 89 % 7.88 C
3713 02-03-2019 21:20:00 9.7 C 88 % 7.81 C
3714 02-03-2019 21:25:00 9.8 C 88 % 7.91 C
3715 02-03-2019 21:30:00 9.9 C 87 % 7.84 C
3716 02-03-2019 21:35:00 10.1 C 87 % 8.04 C
3717 02-03-2019 21:40:00 10.1 C 87 % 8.04 C
3718 02-03-2019 21:45:00 10.1 C 87 % 8.04 C
3719 02-03-2019 21:50:00 10.2 C 86 % 7.97 C
3720 02-03-2019 21:55:00 10.2 C 86 % 7.97 C
3721 02-03-2019 22:00:00 10.2 C 86 % 7.97 C
3722 02-03-2019 22:05:00 10.2 C 86 % 7.97 C
3723 02-03-2019 22:10:00 10.2 C 86 % 7.97 C
3724 02-03-2019 22:15:00 10.2 C 85 % 7.79 C
3725 02-03-2019 22:20:00 10.2 C 85 % 7.79 C
Sensor: Nr:Datum:Temp:Feuchte:Taupunkt:
Aussen-T/F 3726 02-03-2019 22:25:00 10.2 C 85 % 7.79 C
3727 02-03-2019 22:30:00 10.3 C 85 % 7.89 C
3728 02-03-2019 22:35:00 10.3 C 85 % 7.89 C
3729 02-03-2019 22:40:00 10.3 C 85 % 7.89 C
3730 02-03-2019 22:45:00 10.3 C 84 % 7.72 C
3731 02-03-2019 22:50:00 10.3 C 84 % 7.72 C
3732 02-03-2019 22:55:00 10.3 C 84 % 7.72 C
3733 02-03-2019 23:00:00 10.3 C 84 % 7.72 C
3734 02-03-2019 23:05:00 10.2 C 84 % 7.62 C
3735 02-03-2019 23:10:00 10.2 C 84 % 7.62 C
3736 02-03-2019 23:15:00 10.1 C 84 % 7.52 C
3737 02-03-2019 23:20:00 10.1 C 83 % 7.35 C
3738 02-03-2019 23:25:00 10.1 C 83 % 7.35 C
3739 02-03-2019 23:30:00 9.9 C 83 % 7.15 C
3740 02-03-2019 23:35:00 9.8 C 83 % 7.05 C
3741 02-03-2019 23:40:00 9.8 C 83 % 7.05 C
3742 02-03-2019 23:45:00 9.8 C 82 % 6.88 C
3743 02-03-2019 23:50:00 9.7 C 83 % 6.96 C
3744 02-03-2019 23:55:00 9.6 C 82 % 6.68 C
3745 03-03-2019 00:00:00 9.6 C 82 % 6.68 C
3746 03-03-2019 00:05:00 9.5 C 82 % 6.59 C
3747 03-03-2019 00:10:00 9.5 C 82 % 6.59 C
3748 03-03-2019 00:15:00 9.5 C 82 % 6.59 C
3749 03-03-2019 00:20:00 9.4 C 82 % 6.49 C
3750 03-03-2019 00:25:00 9.3 C 82 % 6.39 C
Sensor: Nr:Datum:Temp:Feuchte:Taupunkt:
Aussen-T/F 3751 03-03-2019 00:30:00 9.2 C 82 % 6.29 C
3752 03-03-2019 00:35:00 8.9 C 82 % 6 C
3753 03-03-2019 00:40:00 8.7 C 83 % 5.98 C
3754 03-03-2019 00:45:00 8.5 C 84 % 5.96 C
3755 03-03-2019 00:50:00 8.3 C 85 % 5.93 C
3756 03-03-2019 00:55:00 8.3 C 86 % 6.1 C
3757 03-03-2019 01:00:00 8.3 C 87 % 6.27 C
3758 03-03-2019 01:05:00 8.4 C 87 % 6.37 C
3759 03-03-2019 01:10:00 8.6 C 87 % 6.56 C
3760 03-03-2019 01:15:00 8.8 C 87 % 6.76 C
3761 03-03-2019 01:20:00 8.9 C 86 % 6.69 C
3762 03-03-2019 01:25:00 9.1 C 86 % 6.89 C
3763 03-03-2019 01:30:00 9.3 C 86 % 7.08 C
3764 03-03-2019 01:35:00 9.4 C 85 % 7.01 C
3765 03-03-2019 01:40:00 9.7 C 84 % 7.13 C
3766 03-03-2019 01:45:00 9.8 C 83 % 7.05 C
3767 03-03-2019 01:50:00 9.9 C 83 % 7.15 C
3768 03-03-2019 01:55:00 9.9 C 82 % 6.98 C
3769 03-03-2019 02:00:00 10 C 82 % 7.07 C
3770 03-03-2019 02:05:00 10 C 82 % 7.07 C
3771 03-03-2019 02:10:00 10.1 C 81 % 6.99 C
3772 03-03-2019 02:15:00 10.1 C 81 % 6.99 C
3773 03-03-2019 02:20:00 10.1 C 81 % 6.99 C
3774 03-03-2019 02:25:00 10.1 C 81 % 6.99 C
3775 03-03-2019 02:30:00 10.1 C 81 % 6.99 C
Sensor: Nr:Datum:Temp:Feuchte:Taupunkt:
Aussen-T/F 3776 03-03-2019 02:35:00 9.9 C 81 % 6.8 C
3777 03-03-2019 02:40:00 9.9 C 81 % 6.8 C
3778 03-03-2019 02:45:00 9.9 C 81 % 6.8 C
3779 03-03-2019 02:50:00 9.8 C 81 % 6.7 C
3780 03-03-2019 02:55:00 9.8 C 82 % 6.88 C
3781 03-03-2019 03:00:00 9.8 C 81 % 6.7 C
3782 03-03-2019 03:05:00 9.8 C 81 % 6.7 C
3783 03-03-2019 03:10:00 9.9 C 81 % 6.8 C
3784 03-03-2019 03:15:00 9.9 C 81 % 6.8 C
3785 03-03-2019 03:20:00 9.9 C 81 % 6.8 C
3786 03-03-2019 03:25:00 10 C 81 % 6.89 C
3787 03-03-2019 03:30:00 10 C 81 % 6.89 C
3788 03-03-2019 03:35:00 10.1 C 81 % 6.99 C
3789 03-03-2019 03:40:00 10.1 C 81 % 6.99 C
3790 03-03-2019 03:45:00 10.1 C 81 % 6.99 C
3791 03-03-2019 03:50:00 10.2 C 81 % 7.09 C
3792 03-03-2019 03:55:00 10.2 C 81 % 7.09 C
3793 03-03-2019 04:00:00 10.2 C 81 % 7.09 C
3794 03-03-2019 04:05:00 10.2 C 81 % 7.09 C
3795 03-03-2019 04:10:00 10.2 C 81 % 7.09 C
3796 03-03-2019 04:15:00 10.2 C 81 % 7.09 C
3797 03-03-2019 04:20:00 10.2 C 81 % 7.09 C
3798 03-03-2019 04:25:00 10.3 C 81 % 7.19 C
3799 03-03-2019 04:30:00 10.3 C 81 % 7.19 C
3800 03-03-2019 04:35:00 10.3 C 81 % 7.19 C
Sensor: Nr:Datum:Temp:Feuchte:Taupunkt:
Aussen-T/F 3801 03-03-2019 04:40:00 10.2 C 81 % 7.09 C
3802 03-03-2019 04:45:00 10.2 C 81 % 7.09 C
3803 03-03-2019 04:50:00 10.2 C 81 % 7.09 C
3804 03-03-2019 04:55:00 10.2 C 80 % 6.91 C
3805 03-03-2019 05:00:00 10.2 C 80 % 6.91 C
3806 03-03-2019 05:05:00 10.3 C 80 % 7.01 C
3807 03-03-2019 05:10:00 10.2 C 80 % 6.91 C
3808 03-03-2019 05:15:00 10.2 C 80 % 6.91 C
3809 03-03-2019 05:20:00 10.2 C 80 % 6.91 C
3810 03-03-2019 05:25:00 10.2 C 80 % 6.91 C
3811 03-03-2019 05:30:00 10.2 C 80 % 6.91 C
3812 03-03-2019 05:35:00 10.2 C 80 % 6.91 C
3813 03-03-2019 05:40:00 10.2 C 79 % 6.73 C
3814 03-03-2019 05:45:00 10.2 C 79 % 6.73 C
3815 03-03-2019 05:50:00 10.2 C 80 % 6.91 C
3816 03-03-2019 05:55:00 10.2 C 80 % 6.91 C
3817 03-03-2019 06:00:00 10.2 C 80 % 6.91 C
3818 03-03-2019 06:05:00 10.1 C 80 % 6.81 C
3819 03-03-2019 06:10:00 10.1 C 81 % 6.99 C
3820 03-03-2019 06:15:00 10.1 C 81 % 6.99 C
3821 03-03-2019 06:20:00 10.1 C 81 % 6.99 C
3822 03-03-2019 06:25:00 10.1 C 81 % 6.99 C
3823 03-03-2019 06:30:00 10.1 C 81 % 6.99 C
3824 03-03-2019 06:35:00 10.1 C 81 % 6.99 C
3825 03-03-2019 06:40:00 10.1 C 81 % 6.99 C
Sensor: Nr:Datum:Temp:Feuchte:Taupunkt:
Aussen-T/F 3826 03-03-2019 06:45:00 10.1 C 81 % 6.99 C
3827 03-03-2019 06:50:00 10.1 C 81 % 6.99 C
3828 03-03-2019 06:55:00 10.1 C 81 % 6.99 C
3829 03-03-2019 07:00:00 10.1 C 81 % 6.99 C
3830 03-03-2019 07:05:00 10.1 C 81 % 6.99 C
3831 03-03-2019 07:10:00 10.1 C 81 % 6.99 C
3832 03-03-2019 07:15:00 10.1 C 81 % 6.99 C
3833 03-03-2019 07:20:00 10.1 C 81 % 6.99 C
3834 03-03-2019 07:25:00 10.1 C 81 % 6.99 C
3835 03-03-2019 07:30:00 10.1 C 81 % 6.99 C
3836 03-03-2019 07:35:00 10.1 C 81 % 6.99 C
3837 03-03-2019 07:40:00 10.2 C 81 % 7.09 C
3838 03-03-2019 07:45:00 10.2 C 81 % 7.09 C
3839 03-03-2019 07:50:00 10.2 C 81 % 7.09 C
3840 03-03-2019 07:55:00 10.2 C 81 % 7.09 C
3841 03-03-2019 08:00:00 10.2 C 81 % 7.09 C
3842 03-03-2019 08:05:00 10.2 C 81 % 7.09 C
3843 03-03-2019 08:10:00 10.3 C 81 % 7.19 C
3844 03-03-2019 08:15:00 10.3 C 81 % 7.19 C
3845 03-03-2019 08:20:00 10.3 C 81 % 7.19 C
3846 03-03-2019 08:25:00 10.3 C 81 % 7.19 C
3847 03-03-2019 08:30:00 10.3 C 82 % 7.37 C
3848 03-03-2019 08:35:00 10.3 C 82 % 7.37 C
3849 03-03-2019 08:40:00 10.3 C 82 % 7.37 C
3850 03-03-2019 08:45:00 10.4 C 82 % 7.46 C
Sensor: Nr:Datum:Temp:Feuchte:Taupunkt:
Aussen-T/F 3851 03-03-2019 08:50:00 10.4 C 82 % 7.46 C
3852 03-03-2019 08:55:00 10.5 C 82 % 7.56 C
3853 03-03-2019 09:00:00 10.6 C 82 % 7.66 C
3854 03-03-2019 09:05:00 10.7 C 81 % 7.58 C
3855 03-03-2019 09:10:00 10.8 C 82 % 7.85 C
3856 03-03-2019 09:15:00 10.9 C 81 % 7.77 C
3857 03-03-2019 09:20:00 10.9 C 81 % 7.77 C
3858 03-03-2019 09:25:00 11 C 81 % 7.87 C
3859 03-03-2019 09:30:00 10.9 C 81 % 7.77 C
3860 03-03-2019 09:35:00 10.9 C 81 % 7.77 C
3861 03-03-2019 09:40:00 10.9 C 81 % 7.77 C
3862 03-03-2019 09:45:00 10.9 C 81 % 7.77 C
3863 03-03-2019 09:50:00 10.9 C 81 % 7.77 C
3864 03-03-2019 09:55:00 11.1 C 81 % 7.97 C
3865 03-03-2019 10:00:00 11.1 C 81 % 7.97 C
3866 03-03-2019 10:05:00 11.1 C 81 % 7.97 C
3867 03-03-2019 10:10:00 11.2 C 81 % 8.06 C
3868 03-03-2019 10:15:00 11.2 C 81 % 8.06 C
3869 03-03-2019 10:20:00 11.1 C 81 % 7.97 C
3870 03-03-2019 10:25:00 11.1 C 81 % 7.97 C
3871 03-03-2019 10:30:00 11.1 C 81 % 7.97 C
3872 03-03-2019 10:35:00 11.2 C 81 % 8.06 C
3873 03-03-2019 10:40:00 11.2 C 81 % 8.06 C
3874 03-03-2019 10:45:00 11.2 C 81 % 8.06 C
3875 03-03-2019 10:50:00 11.2 C 81 % 8.06 C
Sensor: Nr:Datum:Temp:Feuchte:Taupunkt:
Aussen-T/F 3876 03-03-2019 10:55:00 11.2 C 81 % 8.06 C
3877 03-03-2019 11:00:00 11.1 C 81 % 7.97 C
3878 03-03-2019 11:05:00 11.1 C 82 % 8.15 C
3879 03-03-2019 11:10:00 11 C 82 % 8.05 C
3880 03-03-2019 11:15:00 10.9 C 82 % 7.95 C
3881 03-03-2019 11:20:00 10.9 C 82 % 7.95 C
3882 03-03-2019 11:25:00 10.9 C 82 % 7.95 C
3883 03-03-2019 11:30:00 11 C 82 % 8.05 C
3884 03-03-2019 11:35:00 11 C 82 % 8.05 C
3885 03-03-2019 11:40:00 11 C 82 % 8.05 C
3886 03-03-2019 11:45:00 11 C 82 % 8.05 C
3887 03-03-2019 11:50:00 11.1 C 83 % 8.33 C
3888 03-03-2019 11:55:00 11.1 C 82 % 8.15 C
3889 03-03-2019 12:00:00 11.1 C 83 % 8.33 C
3890 03-03-2019 12:05:00 11.1 C 82 % 8.15 C
3891 03-03-2019 12:10:00 11.1 C 82 % 8.15 C
3892 03-03-2019 12:15:00 11.1 C 82 % 8.15 C
3893 03-03-2019 12:20:00 11.2 C 82 % 8.25 C
3894 03-03-2019 12:25:00 11.2 C 82 % 8.25 C
3895 03-03-2019 12:30:00 11.3 C 82 % 8.34 C
3896 03-03-2019 12:35:00 11.3 C 82 % 8.34 C
3897